<?xml version="1.0" encoding="UTF-8" standalone="no" ?>
<gpx xmlns="http://www.topografix.com/GPX/1/1" xmlns:xsi="http://www.w3.org/2001/XMLSchema-instance" xsi:schemaLocation="http://www.topografix.com/GPX/1/1 http://www.topografix.com/GPX/1/1/gpx.xsd" version="1.1" creator="VisuGPX - https://www.visugpx.com">
  <metadata>
    <name>Brèche de L'Aiguillette-Grd Queyras</name>
    <desc><![CDATA[grp_trc:]]></desc>
  </metadata>
  <trk>
    <name><![CDATA[19 nov. 2021]]></name>
    <cmt><![CDATA[08:28:27]]></cmt>
    <desc><![CDATA[comment ...]]></desc>
    <trkseg>
      <trkpt lat="44.71896" lon="6.9046">
        <ele>1987</ele>
        <time>2021-11-19T07:28:26Z</time>
      </trkpt>
      <trkpt lat="44.71896" lon="6.90463">
        <ele>1987</ele>
        <time>2021-11-19T07:28:27Z</time>
      </trkpt>
      <trkpt lat="44.71897" lon="6.90466">
        <ele>1987</ele>
        <time>2021-11-19T07:28:38Z</time>
      </trkpt>
      <trkpt lat="44.71899" lon="6.9047">
        <ele>1987</ele>
        <time>2021-11-19T07:28:41Z</time>
      </trkpt>
      <trkpt lat="44.719" lon="6.90473">
        <ele>1987</ele>
        <time>2021-11-19T07:28:43Z</time>
      </trkpt>
      <trkpt lat="44.71901" lon="6.90474">
        <ele>1986</ele>
        <time>2021-11-19T07:29:02Z</time>
      </trkpt>
      <trkpt lat="44.71907" lon="6.90484">
        <ele>1984</ele>
        <time>2021-11-19T07:29:11Z</time>
      </trkpt>
      <trkpt lat="44.71908" lon="6.90484">
        <ele>1984</ele>
        <time>2021-11-19T07:29:27Z</time>
      </trkpt>
      <trkpt lat="44.7191" lon="6.90484">
        <ele>1984</ele>
        <time>2021-11-19T07:30:03Z</time>
      </trkpt>
      <trkpt lat="44.71911" lon="6.90488">
        <ele>1985</ele>
        <time>2021-11-19T07:30:08Z</time>
      </trkpt>
      <trkpt lat="44.71912" lon="6.9049">
        <ele>1985</ele>
        <time>2021-11-19T07:30:10Z</time>
      </trkpt>
      <trkpt lat="44.71913" lon="6.90495">
        <ele>1985</ele>
        <time>2021-11-19T07:30:18Z</time>
      </trkpt>
      <trkpt lat="44.71913" lon="6.90498">
        <ele>1985</ele>
        <time>2021-11-19T07:30:23Z</time>
      </trkpt>
      <trkpt lat="44.71914" lon="6.905">
        <ele>1985</ele>
        <time>2021-11-19T07:30:25Z</time>
      </trkpt>
      <trkpt lat="44.71914" lon="6.90502">
        <ele>1985</ele>
        <time>2021-11-19T07:30:27Z</time>
      </trkpt>
      <trkpt lat="44.71914" lon="6.90507">
        <ele>1985</ele>
        <time>2021-11-19T07:30:32Z</time>
      </trkpt>
      <trkpt lat="44.71915" lon="6.90509">
        <ele>1986</ele>
        <time>2021-11-19T07:30:34Z</time>
      </trkpt>
      <trkpt lat="44.71916" lon="6.90512">
        <ele>1986</ele>
        <time>2021-11-19T07:30:37Z</time>
      </trkpt>
      <trkpt lat="44.71917" lon="6.90517">
        <ele>1986</ele>
        <time>2021-11-19T07:30:42Z</time>
      </trkpt>
      <trkpt lat="44.71917" lon="6.90519">
        <ele>1985</ele>
        <time>2021-11-19T07:30:44Z</time>
      </trkpt>
      <trkpt lat="44.71917" lon="6.90522">
        <ele>1985</ele>
        <time>2021-11-19T07:30:47Z</time>
      </trkpt>
      <trkpt lat="44.71918" lon="6.90524">
        <ele>1985</ele>
        <time>2021-11-19T07:30:50Z</time>
      </trkpt>
      <trkpt lat="44.71918" lon="6.90527">
        <ele>1985</ele>
        <time>2021-11-19T07:30:52Z</time>
      </trkpt>
      <trkpt lat="44.71918" lon="6.90529">
        <ele>1985</ele>
        <time>2021-11-19T07:30:54Z</time>
      </trkpt>
      <trkpt lat="44.71919" lon="6.9053">
        <ele>1985</ele>
        <time>2021-11-19T07:30:58Z</time>
      </trkpt>
      <trkpt lat="44.71921" lon="6.90534">
        <ele>1985</ele>
        <time>2021-11-19T07:31:04Z</time>
      </trkpt>
      <trkpt lat="44.71921" lon="6.90537">
        <ele>1985</ele>
        <time>2021-11-19T07:31:07Z</time>
      </trkpt>
      <trkpt lat="44.71921" lon="6.90539">
        <ele>1985</ele>
        <time>2021-11-19T07:31:10Z</time>
      </trkpt>
      <trkpt lat="44.71923" lon="6.90546">
        <ele>1986</ele>
        <time>2021-11-19T07:31:23Z</time>
      </trkpt>
      <trkpt lat="44.71927" lon="6.90556">
        <ele>1988</ele>
        <time>2021-11-19T07:31:34Z</time>
      </trkpt>
      <trkpt lat="44.71926" lon="6.90558">
        <ele>1989</ele>
        <time>2021-11-19T07:31:37Z</time>
      </trkpt>
      <trkpt lat="44.71928" lon="6.9056">
        <ele>1989</ele>
        <time>2021-11-19T07:31:40Z</time>
      </trkpt>
      <trkpt lat="44.71929" lon="6.90563">
        <ele>1990</ele>
        <time>2021-11-19T07:31:43Z</time>
      </trkpt>
      <trkpt lat="44.7193" lon="6.90568">
        <ele>1991</ele>
        <time>2021-11-19T07:31:48Z</time>
      </trkpt>
      <trkpt lat="44.71932" lon="6.9057">
        <ele>1992</ele>
        <time>2021-11-19T07:31:51Z</time>
      </trkpt>
      <trkpt lat="44.71933" lon="6.90572">
        <ele>1992</ele>
        <time>2021-11-19T07:31:53Z</time>
      </trkpt>
      <trkpt lat="44.71935" lon="6.90578">
        <ele>1993</ele>
        <time>2021-11-19T07:31:59Z</time>
      </trkpt>
      <trkpt lat="44.71936" lon="6.90582">
        <ele>1993</ele>
        <time>2021-11-19T07:32:04Z</time>
      </trkpt>
      <trkpt lat="44.71938" lon="6.90588">
        <ele>1994</ele>
        <time>2021-11-19T07:32:09Z</time>
      </trkpt>
      <trkpt lat="44.71941" lon="6.90592">
        <ele>1995</ele>
        <time>2021-11-19T07:32:16Z</time>
      </trkpt>
      <trkpt lat="44.71942" lon="6.90595">
        <ele>1995</ele>
        <time>2021-11-19T07:32:19Z</time>
      </trkpt>
      <trkpt lat="44.71944" lon="6.90599">
        <ele>1996</ele>
        <time>2021-11-19T07:32:24Z</time>
      </trkpt>
      <trkpt lat="44.71945" lon="6.906">
        <ele>1997</ele>
        <time>2021-11-19T07:32:27Z</time>
      </trkpt>
      <trkpt lat="44.71947" lon="6.90603">
        <ele>1997</ele>
        <time>2021-11-19T07:32:30Z</time>
      </trkpt>
      <trkpt lat="44.71947" lon="6.90605">
        <ele>1997</ele>
        <time>2021-11-19T07:32:32Z</time>
      </trkpt>
      <trkpt lat="44.71948" lon="6.90607">
        <ele>1998</ele>
        <time>2021-11-19T07:32:35Z</time>
      </trkpt>
      <trkpt lat="44.71949" lon="6.9061">
        <ele>1998</ele>
        <time>2021-11-19T07:32:38Z</time>
      </trkpt>
      <trkpt lat="44.7195" lon="6.90612">
        <ele>1999</ele>
        <time>2021-11-19T07:32:41Z</time>
      </trkpt>
      <trkpt lat="44.71951" lon="6.90616">
        <ele>1999</ele>
        <time>2021-11-19T07:32:44Z</time>
      </trkpt>
      <trkpt lat="44.71951" lon="6.90618">
        <ele>2000</ele>
        <time>2021-11-19T07:32:46Z</time>
      </trkpt>
      <trkpt lat="44.71953" lon="6.90626">
        <ele>2001</ele>
        <time>2021-11-19T07:32:56Z</time>
      </trkpt>
      <trkpt lat="44.71956" lon="6.90638">
        <ele>2003</ele>
        <time>2021-11-19T07:33:09Z</time>
      </trkpt>
      <trkpt lat="44.71959" lon="6.90642">
        <ele>2004</ele>
        <time>2021-11-19T07:33:13Z</time>
      </trkpt>
      <trkpt lat="44.71963" lon="6.90651">
        <ele>2005</ele>
        <time>2021-11-19T07:33:23Z</time>
      </trkpt>
      <trkpt lat="44.71965" lon="6.90657">
        <ele>2007</ele>
        <time>2021-11-19T07:33:32Z</time>
      </trkpt>
      <trkpt lat="44.71966" lon="6.90659">
        <ele>2007</ele>
        <time>2021-11-19T07:33:34Z</time>
      </trkpt>
      <trkpt lat="44.71967" lon="6.90661">
        <ele>2007</ele>
        <time>2021-11-19T07:33:36Z</time>
      </trkpt>
      <trkpt lat="44.71968" lon="6.90663">
        <ele>2007</ele>
        <time>2021-11-19T07:33:38Z</time>
      </trkpt>
      <trkpt lat="44.71969" lon="6.90666">
        <ele>2008</ele>
        <time>2021-11-19T07:33:41Z</time>
      </trkpt>
      <trkpt lat="44.71971" lon="6.90671">
        <ele>2008</ele>
        <time>2021-11-19T07:33:47Z</time>
      </trkpt>
      <trkpt lat="44.71972" lon="6.90673">
        <ele>2008</ele>
        <time>2021-11-19T07:33:52Z</time>
      </trkpt>
      <trkpt lat="44.71973" lon="6.90675">
        <ele>2007</ele>
        <time>2021-11-19T07:33:56Z</time>
      </trkpt>
      <trkpt lat="44.71978" lon="6.90682">
        <ele>2008</ele>
        <time>2021-11-19T07:34:10Z</time>
      </trkpt>
      <trkpt lat="44.71983" lon="6.90687">
        <ele>2009</ele>
        <time>2021-11-19T07:34:19Z</time>
      </trkpt>
      <trkpt lat="44.71986" lon="6.9069">
        <ele>2009</ele>
        <time>2021-11-19T07:34:23Z</time>
      </trkpt>
      <trkpt lat="44.71987" lon="6.90692">
        <ele>2010</ele>
        <time>2021-11-19T07:34:27Z</time>
      </trkpt>
      <trkpt lat="44.71989" lon="6.90694">
        <ele>2011</ele>
        <time>2021-11-19T07:34:30Z</time>
      </trkpt>
      <trkpt lat="44.7199" lon="6.90695">
        <ele>2012</ele>
        <time>2021-11-19T07:34:33Z</time>
      </trkpt>
      <trkpt lat="44.71991" lon="6.90698">
        <ele>2012</ele>
        <time>2021-11-19T07:34:35Z</time>
      </trkpt>
      <trkpt lat="44.71992" lon="6.90702">
        <ele>2013</ele>
        <time>2021-11-19T07:34:39Z</time>
      </trkpt>
      <trkpt lat="44.71993" lon="6.90705">
        <ele>2014</ele>
        <time>2021-11-19T07:34:41Z</time>
      </trkpt>
      <trkpt lat="44.71995" lon="6.90709">
        <ele>2015</ele>
        <time>2021-11-19T07:34:45Z</time>
      </trkpt>
      <trkpt lat="44.71996" lon="6.90712">
        <ele>2016</ele>
        <time>2021-11-19T07:34:48Z</time>
      </trkpt>
      <trkpt lat="44.71996" lon="6.90714">
        <ele>2017</ele>
        <time>2021-11-19T07:34:51Z</time>
      </trkpt>
      <trkpt lat="44.71997" lon="6.90716">
        <ele>2017</ele>
        <time>2021-11-19T07:34:54Z</time>
      </trkpt>
      <trkpt lat="44.71998" lon="6.90723">
        <ele>2019</ele>
        <time>2021-11-19T07:35:03Z</time>
      </trkpt>
      <trkpt lat="44.72" lon="6.90727">
        <ele>2020</ele>
        <time>2021-11-19T07:35:08Z</time>
      </trkpt>
      <trkpt lat="44.72" lon="6.90729">
        <ele>2021</ele>
        <time>2021-11-19T07:35:11Z</time>
      </trkpt>
      <trkpt lat="44.72" lon="6.90731">
        <ele>2021</ele>
        <time>2021-11-19T07:35:13Z</time>
      </trkpt>
      <trkpt lat="44.72001" lon="6.90733">
        <ele>2022</ele>
        <time>2021-11-19T07:35:15Z</time>
      </trkpt>
      <trkpt lat="44.72002" lon="6.90735">
        <ele>2022</ele>
        <time>2021-11-19T07:35:18Z</time>
      </trkpt>
      <trkpt lat="44.72001" lon="6.90738">
        <ele>2023</ele>
        <time>2021-11-19T07:35:20Z</time>
      </trkpt>
      <trkpt lat="44.72001" lon="6.90741">
        <ele>2023</ele>
        <time>2021-11-19T07:35:23Z</time>
      </trkpt>
      <trkpt lat="44.72002" lon="6.90746">
        <ele>2022</ele>
        <time>2021-11-19T07:35:30Z</time>
      </trkpt>
      <trkpt lat="44.72003" lon="6.90748">
        <ele>2021</ele>
        <time>2021-11-19T07:35:32Z</time>
      </trkpt>
      <trkpt lat="44.72004" lon="6.90751">
        <ele>2021</ele>
        <time>2021-11-19T07:35:36Z</time>
      </trkpt>
      <trkpt lat="44.72007" lon="6.9076">
        <ele>2022</ele>
        <time>2021-11-19T07:35:48Z</time>
      </trkpt>
      <trkpt lat="44.72007" lon="6.90762">
        <ele>2022</ele>
        <time>2021-11-19T07:35:52Z</time>
      </trkpt>
      <trkpt lat="44.72009" lon="6.90763">
        <ele>2023</ele>
        <time>2021-11-19T07:35:59Z</time>
      </trkpt>
      <trkpt lat="44.72014" lon="6.90762">
        <ele>2025</ele>
        <time>2021-11-19T07:36:10Z</time>
      </trkpt>
      <trkpt lat="44.7202" lon="6.90765">
        <ele>2027</ele>
        <time>2021-11-19T07:36:19Z</time>
      </trkpt>
      <trkpt lat="44.72021" lon="6.90768">
        <ele>2027</ele>
        <time>2021-11-19T07:36:22Z</time>
      </trkpt>
      <trkpt lat="44.72023" lon="6.9077">
        <ele>2028</ele>
        <time>2021-11-19T07:36:34Z</time>
      </trkpt>
      <trkpt lat="44.72024" lon="6.90771">
        <ele>2029</ele>
        <time>2021-11-19T07:36:37Z</time>
      </trkpt>
      <trkpt lat="44.72026" lon="6.90774">
        <ele>2029</ele>
        <time>2021-11-19T07:36:40Z</time>
      </trkpt>
      <trkpt lat="44.72027" lon="6.90775">
        <ele>2029</ele>
        <time>2021-11-19T07:36:43Z</time>
      </trkpt>
      <trkpt lat="44.72028" lon="6.90777">
        <ele>2029</ele>
        <time>2021-11-19T07:36:47Z</time>
      </trkpt>
      <trkpt lat="44.7203" lon="6.90778">
        <ele>2030</ele>
        <time>2021-11-19T07:36:51Z</time>
      </trkpt>
      <trkpt lat="44.72031" lon="6.9078">
        <ele>2031</ele>
        <time>2021-11-19T07:36:55Z</time>
      </trkpt>
      <trkpt lat="44.72034" lon="6.90784">
        <ele>2032</ele>
        <time>2021-11-19T07:37:00Z</time>
      </trkpt>
      <trkpt lat="44.72035" lon="6.90785">
        <ele>2032</ele>
        <time>2021-11-19T07:37:02Z</time>
      </trkpt>
      <trkpt lat="44.72037" lon="6.90786">
        <ele>2032</ele>
        <time>2021-11-19T07:37:06Z</time>
      </trkpt>
      <trkpt lat="44.72038" lon="6.90788">
        <ele>2033</ele>
        <time>2021-11-19T07:37:11Z</time>
      </trkpt>
      <trkpt lat="44.72045" lon="6.90795">
        <ele>2034</ele>
        <time>2021-11-19T07:37:23Z</time>
      </trkpt>
      <trkpt lat="44.72046" lon="6.90796">
        <ele>2034</ele>
        <time>2021-11-19T07:37:25Z</time>
      </trkpt>
      <trkpt lat="44.7205" lon="6.90802">
        <ele>2036</ele>
        <time>2021-11-19T07:37:33Z</time>
      </trkpt>
      <trkpt lat="44.72051" lon="6.90807">
        <ele>2038</ele>
        <time>2021-11-19T07:37:39Z</time>
      </trkpt>
      <trkpt lat="44.72053" lon="6.90809">
        <ele>2038</ele>
        <time>2021-11-19T07:37:42Z</time>
      </trkpt>
      <trkpt lat="44.72054" lon="6.90811">
        <ele>2039</ele>
        <time>2021-11-19T07:37:44Z</time>
      </trkpt>
      <trkpt lat="44.72056" lon="6.90818">
        <ele>2041</ele>
        <time>2021-11-19T07:37:51Z</time>
      </trkpt>
      <trkpt lat="44.72057" lon="6.90821">
        <ele>2041</ele>
        <time>2021-11-19T07:37:53Z</time>
      </trkpt>
      <trkpt lat="44.72057" lon="6.90824">
        <ele>2042</ele>
        <time>2021-11-19T07:37:55Z</time>
      </trkpt>
      <trkpt lat="44.72057" lon="6.90826">
        <ele>2042</ele>
        <time>2021-11-19T07:37:57Z</time>
      </trkpt>
      <trkpt lat="44.72058" lon="6.90828">
        <ele>2042</ele>
        <time>2021-11-19T07:37:59Z</time>
      </trkpt>
      <trkpt lat="44.72058" lon="6.90831">
        <ele>2042</ele>
        <time>2021-11-19T07:38:02Z</time>
      </trkpt>
      <trkpt lat="44.72059" lon="6.90833">
        <ele>2043</ele>
        <time>2021-11-19T07:38:05Z</time>
      </trkpt>
      <trkpt lat="44.72059" lon="6.90836">
        <ele>2044</ele>
        <time>2021-11-19T07:38:08Z</time>
      </trkpt>
      <trkpt lat="44.7206" lon="6.90839">
        <ele>2046</ele>
        <time>2021-11-19T07:38:12Z</time>
      </trkpt>
      <trkpt lat="44.72062" lon="6.90844">
        <ele>2047</ele>
        <time>2021-11-19T07:38:18Z</time>
      </trkpt>
      <trkpt lat="44.72065" lon="6.90857">
        <ele>2052</ele>
        <time>2021-11-19T07:38:35Z</time>
      </trkpt>
      <trkpt lat="44.72066" lon="6.9086">
        <ele>2053</ele>
        <time>2021-11-19T07:38:38Z</time>
      </trkpt>
      <trkpt lat="44.72067" lon="6.90862">
        <ele>2053</ele>
        <time>2021-11-19T07:38:41Z</time>
      </trkpt>
      <trkpt lat="44.72075" lon="6.90861">
        <ele>2058</ele>
        <time>2021-11-19T07:39:01Z</time>
      </trkpt>
      <trkpt lat="44.72077" lon="6.9086">
        <ele>2059</ele>
        <time>2021-11-19T07:39:08Z</time>
      </trkpt>
      <trkpt lat="44.72079" lon="6.90861">
        <ele>2060</ele>
        <time>2021-11-19T07:39:18Z</time>
      </trkpt>
      <trkpt lat="44.72083" lon="6.90873">
        <ele>2063</ele>
        <time>2021-11-19T07:39:32Z</time>
      </trkpt>
      <trkpt lat="44.72082" lon="6.90875">
        <ele>2064</ele>
        <time>2021-11-19T07:39:35Z</time>
      </trkpt>
      <trkpt lat="44.72083" lon="6.90877">
        <ele>2064</ele>
        <time>2021-11-19T07:39:40Z</time>
      </trkpt>
      <trkpt lat="44.72082" lon="6.90879">
        <ele>2064</ele>
        <time>2021-11-19T07:39:42Z</time>
      </trkpt>
      <trkpt lat="44.72082" lon="6.90881">
        <ele>2064</ele>
        <time>2021-11-19T07:39:45Z</time>
      </trkpt>
      <trkpt lat="44.72084" lon="6.90885">
        <ele>2064</ele>
        <time>2021-11-19T07:39:51Z</time>
      </trkpt>
      <trkpt lat="44.72084" lon="6.90888">
        <ele>2064</ele>
        <time>2021-11-19T07:39:54Z</time>
      </trkpt>
      <trkpt lat="44.72084" lon="6.9089">
        <ele>2065</ele>
        <time>2021-11-19T07:39:58Z</time>
      </trkpt>
      <trkpt lat="44.72084" lon="6.90896">
        <ele>2067</ele>
        <time>2021-11-19T07:40:08Z</time>
      </trkpt>
      <trkpt lat="44.72084" lon="6.90898">
        <ele>2068</ele>
        <time>2021-11-19T07:40:11Z</time>
      </trkpt>
      <trkpt lat="44.72084" lon="6.90918">
        <ele>2073</ele>
        <time>2021-11-19T07:40:34Z</time>
      </trkpt>
      <trkpt lat="44.72085" lon="6.9092">
        <ele>2074</ele>
        <time>2021-11-19T07:40:37Z</time>
      </trkpt>
      <trkpt lat="44.72087" lon="6.90924">
        <ele>2075</ele>
        <time>2021-11-19T07:40:43Z</time>
      </trkpt>
      <trkpt lat="44.72085" lon="6.9094">
        <ele>2078</ele>
        <time>2021-11-19T07:41:02Z</time>
      </trkpt>
      <trkpt lat="44.72086" lon="6.90942">
        <ele>2079</ele>
        <time>2021-11-19T07:41:10Z</time>
      </trkpt>
      <trkpt lat="44.72087" lon="6.90946">
        <ele>2080</ele>
        <time>2021-11-19T07:41:17Z</time>
      </trkpt>
      <trkpt lat="44.72089" lon="6.9095">
        <ele>2081</ele>
        <time>2021-11-19T07:41:25Z</time>
      </trkpt>
      <trkpt lat="44.72091" lon="6.90952">
        <ele>2082</ele>
        <time>2021-11-19T07:41:31Z</time>
      </trkpt>
      <trkpt lat="44.72092" lon="6.90955">
        <ele>2082</ele>
        <time>2021-11-19T07:41:35Z</time>
      </trkpt>
      <trkpt lat="44.72093" lon="6.90957">
        <ele>2082</ele>
        <time>2021-11-19T07:41:37Z</time>
      </trkpt>
      <trkpt lat="44.72092" lon="6.9096">
        <ele>2082</ele>
        <time>2021-11-19T07:41:39Z</time>
      </trkpt>
      <trkpt lat="44.72092" lon="6.90964">
        <ele>2082</ele>
        <time>2021-11-19T07:41:42Z</time>
      </trkpt>
      <trkpt lat="44.7209" lon="6.90967">
        <ele>2082</ele>
        <time>2021-11-19T07:41:44Z</time>
      </trkpt>
      <trkpt lat="44.72089" lon="6.90972">
        <ele>2082</ele>
        <time>2021-11-19T07:41:48Z</time>
      </trkpt>
      <trkpt lat="44.72089" lon="6.90974">
        <ele>2082</ele>
        <time>2021-11-19T07:41:50Z</time>
      </trkpt>
      <trkpt lat="44.72087" lon="6.90977">
        <ele>2083</ele>
        <time>2021-11-19T07:41:54Z</time>
      </trkpt>
      <trkpt lat="44.72087" lon="6.9098">
        <ele>2083</ele>
        <time>2021-11-19T07:41:56Z</time>
      </trkpt>
      <trkpt lat="44.72087" lon="6.90983">
        <ele>2083</ele>
        <time>2021-11-19T07:41:58Z</time>
      </trkpt>
      <trkpt lat="44.72088" lon="6.90985">
        <ele>2083</ele>
        <time>2021-11-19T07:42:00Z</time>
      </trkpt>
      <trkpt lat="44.72092" lon="6.90991">
        <ele>2083</ele>
        <time>2021-11-19T07:42:03Z</time>
      </trkpt>
      <trkpt lat="44.72093" lon="6.90994">
        <ele>2083</ele>
        <time>2021-11-19T07:42:06Z</time>
      </trkpt>
      <trkpt lat="44.72092" lon="6.90999">
        <ele>2083</ele>
        <time>2021-11-19T07:42:10Z</time>
      </trkpt>
      <trkpt lat="44.7209" lon="6.91002">
        <ele>2083</ele>
        <time>2021-11-19T07:42:12Z</time>
      </trkpt>
      <trkpt lat="44.72088" lon="6.91005">
        <ele>2083</ele>
        <time>2021-11-19T07:42:18Z</time>
      </trkpt>
      <trkpt lat="44.72085" lon="6.91006">
        <ele>2083</ele>
        <time>2021-11-19T07:42:22Z</time>
      </trkpt>
      <trkpt lat="44.72081" lon="6.91012">
        <ele>2085</ele>
        <time>2021-11-19T07:42:29Z</time>
      </trkpt>
      <trkpt lat="44.72078" lon="6.91017">
        <ele>2086</ele>
        <time>2021-11-19T07:42:34Z</time>
      </trkpt>
      <trkpt lat="44.72078" lon="6.91019">
        <ele>2086</ele>
        <time>2021-11-19T07:42:37Z</time>
      </trkpt>
      <trkpt lat="44.72077" lon="6.91021">
        <ele>2087</ele>
        <time>2021-11-19T07:42:40Z</time>
      </trkpt>
      <trkpt lat="44.72076" lon="6.91025">
        <ele>2087</ele>
        <time>2021-11-19T07:42:43Z</time>
      </trkpt>
      <trkpt lat="44.72075" lon="6.91027">
        <ele>2087</ele>
        <time>2021-11-19T07:42:45Z</time>
      </trkpt>
      <trkpt lat="44.72075" lon="6.91029">
        <ele>2087</ele>
        <time>2021-11-19T07:42:48Z</time>
      </trkpt>
      <trkpt lat="44.72074" lon="6.91032">
        <ele>2088</ele>
        <time>2021-11-19T07:42:51Z</time>
      </trkpt>
      <trkpt lat="44.72071" lon="6.91042">
        <ele>2089</ele>
        <time>2021-11-19T07:43:01Z</time>
      </trkpt>
      <trkpt lat="44.72071" lon="6.91045">
        <ele>2090</ele>
        <time>2021-11-19T07:43:04Z</time>
      </trkpt>
      <trkpt lat="44.7207" lon="6.9105">
        <ele>2091</ele>
        <time>2021-11-19T07:43:10Z</time>
      </trkpt>
      <trkpt lat="44.7207" lon="6.91053">
        <ele>2092</ele>
        <time>2021-11-19T07:43:14Z</time>
      </trkpt>
      <trkpt lat="44.7207" lon="6.91057">
        <ele>2092</ele>
        <time>2021-11-19T07:43:19Z</time>
      </trkpt>
      <trkpt lat="44.72072" lon="6.91067">
        <ele>2093</ele>
        <time>2021-11-19T07:43:28Z</time>
      </trkpt>
      <trkpt lat="44.72073" lon="6.9108">
        <ele>2094</ele>
        <time>2021-11-19T07:43:40Z</time>
      </trkpt>
      <trkpt lat="44.72074" lon="6.91082">
        <ele>2094</ele>
        <time>2021-11-19T07:43:43Z</time>
      </trkpt>
      <trkpt lat="44.72075" lon="6.91084">
        <ele>2094</ele>
        <time>2021-11-19T07:43:46Z</time>
      </trkpt>
      <trkpt lat="44.72075" lon="6.91087">
        <ele>2094</ele>
        <time>2021-11-19T07:43:49Z</time>
      </trkpt>
      <trkpt lat="44.72075" lon="6.91089">
        <ele>2095</ele>
        <time>2021-11-19T07:43:53Z</time>
      </trkpt>
      <trkpt lat="44.72075" lon="6.91094">
        <ele>2095</ele>
        <time>2021-11-19T07:43:58Z</time>
      </trkpt>
      <trkpt lat="44.72075" lon="6.91097">
        <ele>2096</ele>
        <time>2021-11-19T07:44:00Z</time>
      </trkpt>
      <trkpt lat="44.7207" lon="6.91105">
        <ele>2097</ele>
        <time>2021-11-19T07:44:08Z</time>
      </trkpt>
      <trkpt lat="44.72069" lon="6.91107">
        <ele>2097</ele>
        <time>2021-11-19T07:44:11Z</time>
      </trkpt>
      <trkpt lat="44.72069" lon="6.9111">
        <ele>2098</ele>
        <time>2021-11-19T07:44:14Z</time>
      </trkpt>
      <trkpt lat="44.72065" lon="6.91117">
        <ele>2100</ele>
        <time>2021-11-19T07:44:22Z</time>
      </trkpt>
      <trkpt lat="44.72062" lon="6.91123">
        <ele>2102</ele>
        <time>2021-11-19T07:44:29Z</time>
      </trkpt>
      <trkpt lat="44.72061" lon="6.91125">
        <ele>2102</ele>
        <time>2021-11-19T07:44:32Z</time>
      </trkpt>
      <trkpt lat="44.72061" lon="6.9113">
        <ele>2103</ele>
        <time>2021-11-19T07:44:39Z</time>
      </trkpt>
      <trkpt lat="44.7206" lon="6.91133">
        <ele>2103</ele>
        <time>2021-11-19T07:44:41Z</time>
      </trkpt>
      <trkpt lat="44.7206" lon="6.91135">
        <ele>2104</ele>
        <time>2021-11-19T07:44:53Z</time>
      </trkpt>
      <trkpt lat="44.72059" lon="6.91139">
        <ele>2104</ele>
        <time>2021-11-19T07:44:59Z</time>
      </trkpt>
      <trkpt lat="44.72059" lon="6.91142">
        <ele>2104</ele>
        <time>2021-11-19T07:45:01Z</time>
      </trkpt>
      <trkpt lat="44.72057" lon="6.91148">
        <ele>2104</ele>
        <time>2021-11-19T07:45:07Z</time>
      </trkpt>
      <trkpt lat="44.72057" lon="6.9115">
        <ele>2104</ele>
        <time>2021-11-19T07:45:09Z</time>
      </trkpt>
      <trkpt lat="44.72056" lon="6.91152">
        <ele>2104</ele>
        <time>2021-11-19T07:45:11Z</time>
      </trkpt>
      <trkpt lat="44.72054" lon="6.91155">
        <ele>2105</ele>
        <time>2021-11-19T07:45:15Z</time>
      </trkpt>
      <trkpt lat="44.72052" lon="6.91162">
        <ele>2106</ele>
        <time>2021-11-19T07:45:23Z</time>
      </trkpt>
      <trkpt lat="44.72051" lon="6.91163">
        <ele>2107</ele>
        <time>2021-11-19T07:45:27Z</time>
      </trkpt>
      <trkpt lat="44.7205" lon="6.91165">
        <ele>2107</ele>
        <time>2021-11-19T07:45:29Z</time>
      </trkpt>
      <trkpt lat="44.7205" lon="6.91168">
        <ele>2107</ele>
        <time>2021-11-19T07:45:33Z</time>
      </trkpt>
      <trkpt lat="44.7205" lon="6.91171">
        <ele>2108</ele>
        <time>2021-11-19T07:45:36Z</time>
      </trkpt>
      <trkpt lat="44.72048" lon="6.91183">
        <ele>2110</ele>
        <time>2021-11-19T07:45:48Z</time>
      </trkpt>
      <trkpt lat="44.72049" lon="6.91186">
        <ele>2110</ele>
        <time>2021-11-19T07:45:52Z</time>
      </trkpt>
      <trkpt lat="44.7205" lon="6.91188">
        <ele>2111</ele>
        <time>2021-11-19T07:45:55Z</time>
      </trkpt>
      <trkpt lat="44.72047" lon="6.91198">
        <ele>2113</ele>
        <time>2021-11-19T07:46:06Z</time>
      </trkpt>
      <trkpt lat="44.72048" lon="6.9121">
        <ele>2114</ele>
        <time>2021-11-19T07:46:21Z</time>
      </trkpt>
      <trkpt lat="44.72048" lon="6.91213">
        <ele>2115</ele>
        <time>2021-11-19T07:46:23Z</time>
      </trkpt>
      <trkpt lat="44.72047" lon="6.91215">
        <ele>2115</ele>
        <time>2021-11-19T07:46:26Z</time>
      </trkpt>
      <trkpt lat="44.72048" lon="6.91217">
        <ele>2116</ele>
        <time>2021-11-19T07:46:29Z</time>
      </trkpt>
      <trkpt lat="44.7205" lon="6.91218">
        <ele>2117</ele>
        <time>2021-11-19T07:46:33Z</time>
      </trkpt>
      <trkpt lat="44.72051" lon="6.9122">
        <ele>2118</ele>
        <time>2021-11-19T07:46:35Z</time>
      </trkpt>
      <trkpt lat="44.72052" lon="6.91226">
        <ele>2119</ele>
        <time>2021-11-19T07:46:43Z</time>
      </trkpt>
      <trkpt lat="44.72053" lon="6.91229">
        <ele>2120</ele>
        <time>2021-11-19T07:46:45Z</time>
      </trkpt>
      <trkpt lat="44.72053" lon="6.91231">
        <ele>2120</ele>
        <time>2021-11-19T07:46:47Z</time>
      </trkpt>
      <trkpt lat="44.72053" lon="6.91235">
        <ele>2120</ele>
        <time>2021-11-19T07:46:51Z</time>
      </trkpt>
      <trkpt lat="44.72053" lon="6.91238">
        <ele>2121</ele>
        <time>2021-11-19T07:46:54Z</time>
      </trkpt>
      <trkpt lat="44.72052" lon="6.91241">
        <ele>2121</ele>
        <time>2021-11-19T07:46:56Z</time>
      </trkpt>
      <trkpt lat="44.72053" lon="6.91243">
        <ele>2121</ele>
        <time>2021-11-19T07:46:59Z</time>
      </trkpt>
      <trkpt lat="44.72052" lon="6.91248">
        <ele>2122</ele>
        <time>2021-11-19T07:47:06Z</time>
      </trkpt>
      <trkpt lat="44.72052" lon="6.91251">
        <ele>2123</ele>
        <time>2021-11-19T07:47:09Z</time>
      </trkpt>
      <trkpt lat="44.72053" lon="6.91253">
        <ele>2123</ele>
        <time>2021-11-19T07:47:12Z</time>
      </trkpt>
      <trkpt lat="44.72054" lon="6.91256">
        <ele>2124</ele>
        <time>2021-11-19T07:47:15Z</time>
      </trkpt>
      <trkpt lat="44.72054" lon="6.91259">
        <ele>2124</ele>
        <time>2021-11-19T07:47:17Z</time>
      </trkpt>
      <trkpt lat="44.72055" lon="6.91261">
        <ele>2124</ele>
        <time>2021-11-19T07:47:21Z</time>
      </trkpt>
      <trkpt lat="44.72056" lon="6.91263">
        <ele>2123</ele>
        <time>2021-11-19T07:47:25Z</time>
      </trkpt>
      <trkpt lat="44.72056" lon="6.91274">
        <ele>2127</ele>
        <time>2021-11-19T07:47:37Z</time>
      </trkpt>
      <trkpt lat="44.72057" lon="6.91276">
        <ele>2127</ele>
        <time>2021-11-19T07:47:41Z</time>
      </trkpt>
      <trkpt lat="44.72058" lon="6.91279">
        <ele>2128</ele>
        <time>2021-11-19T07:47:44Z</time>
      </trkpt>
      <trkpt lat="44.7206" lon="6.91283">
        <ele>2128</ele>
        <time>2021-11-19T07:47:50Z</time>
      </trkpt>
      <trkpt lat="44.72061" lon="6.91285">
        <ele>2130</ele>
        <time>2021-11-19T07:47:54Z</time>
      </trkpt>
      <trkpt lat="44.72063" lon="6.91286">
        <ele>2131</ele>
        <time>2021-11-19T07:47:58Z</time>
      </trkpt>
      <trkpt lat="44.72065" lon="6.91286">
        <ele>2132</ele>
        <time>2021-11-19T07:48:02Z</time>
      </trkpt>
      <trkpt lat="44.72067" lon="6.91286">
        <ele>2134</ele>
        <time>2021-11-19T07:48:06Z</time>
      </trkpt>
      <trkpt lat="44.7207" lon="6.91287">
        <ele>2136</ele>
        <time>2021-11-19T07:48:14Z</time>
      </trkpt>
      <trkpt lat="44.72073" lon="6.91287">
        <ele>2138</ele>
        <time>2021-11-19T07:48:18Z</time>
      </trkpt>
      <trkpt lat="44.72075" lon="6.91287">
        <ele>2139</ele>
        <time>2021-11-19T07:48:22Z</time>
      </trkpt>
      <trkpt lat="44.72077" lon="6.91286">
        <ele>2140</ele>
        <time>2021-11-19T07:48:26Z</time>
      </trkpt>
      <trkpt lat="44.72081" lon="6.91286">
        <ele>2141</ele>
        <time>2021-11-19T07:48:33Z</time>
      </trkpt>
      <trkpt lat="44.72085" lon="6.91286">
        <ele>2141</ele>
        <time>2021-11-19T07:48:39Z</time>
      </trkpt>
      <trkpt lat="44.72092" lon="6.91284">
        <ele>2143</ele>
        <time>2021-11-19T07:48:51Z</time>
      </trkpt>
      <trkpt lat="44.72093" lon="6.91284">
        <ele>2143</ele>
        <time>2021-11-19T07:48:54Z</time>
      </trkpt>
      <trkpt lat="44.72094" lon="6.91286">
        <ele>2143</ele>
        <time>2021-11-19T07:49:01Z</time>
      </trkpt>
      <trkpt lat="44.72095" lon="6.91289">
        <ele>2145</ele>
        <time>2021-11-19T07:49:05Z</time>
      </trkpt>
      <trkpt lat="44.72094" lon="6.91292">
        <ele>2145</ele>
        <time>2021-11-19T07:49:08Z</time>
      </trkpt>
      <trkpt lat="44.72093" lon="6.91293">
        <ele>2146</ele>
        <time>2021-11-19T07:49:15Z</time>
      </trkpt>
      <trkpt lat="44.72093" lon="6.91295">
        <ele>2146</ele>
        <time>2021-11-19T07:49:50Z</time>
      </trkpt>
      <trkpt lat="44.72093" lon="6.91298">
        <ele>2146</ele>
        <time>2021-11-19T07:49:52Z</time>
      </trkpt>
      <trkpt lat="44.72091" lon="6.91305">
        <ele>2146</ele>
        <time>2021-11-19T07:49:58Z</time>
      </trkpt>
      <trkpt lat="44.72092" lon="6.9131">
        <ele>2146</ele>
        <time>2021-11-19T07:50:04Z</time>
      </trkpt>
      <trkpt lat="44.72091" lon="6.91319">
        <ele>2146</ele>
        <time>2021-11-19T07:50:12Z</time>
      </trkpt>
      <trkpt lat="44.7209" lon="6.9132">
        <ele>2146</ele>
        <time>2021-11-19T07:50:14Z</time>
      </trkpt>
      <trkpt lat="44.7209" lon="6.91325">
        <ele>2147</ele>
        <time>2021-11-19T07:50:21Z</time>
      </trkpt>
      <trkpt lat="44.72088" lon="6.9133">
        <ele>2147</ele>
        <time>2021-11-19T07:50:26Z</time>
      </trkpt>
      <trkpt lat="44.72087" lon="6.91332">
        <ele>2148</ele>
        <time>2021-11-19T07:50:29Z</time>
      </trkpt>
      <trkpt lat="44.72087" lon="6.91335">
        <ele>2149</ele>
        <time>2021-11-19T07:50:34Z</time>
      </trkpt>
      <trkpt lat="44.72087" lon="6.91337">
        <ele>2149</ele>
        <time>2021-11-19T07:50:36Z</time>
      </trkpt>
      <trkpt lat="44.72088" lon="6.91346">
        <ele>2152</ele>
        <time>2021-11-19T07:50:48Z</time>
      </trkpt>
      <trkpt lat="44.72088" lon="6.91348">
        <ele>2152</ele>
        <time>2021-11-19T07:50:50Z</time>
      </trkpt>
      <trkpt lat="44.72088" lon="6.91351">
        <ele>2152</ele>
        <time>2021-11-19T07:50:53Z</time>
      </trkpt>
      <trkpt lat="44.72088" lon="6.91356">
        <ele>2153</ele>
        <time>2021-11-19T07:50:57Z</time>
      </trkpt>
      <trkpt lat="44.72087" lon="6.91358">
        <ele>2153</ele>
        <time>2021-11-19T07:51:00Z</time>
      </trkpt>
      <trkpt lat="44.72087" lon="6.91361">
        <ele>2154</ele>
        <time>2021-11-19T07:51:02Z</time>
      </trkpt>
      <trkpt lat="44.72085" lon="6.91374">
        <ele>2155</ele>
        <time>2021-11-19T07:51:10Z</time>
      </trkpt>
      <trkpt lat="44.72085" lon="6.91383">
        <ele>2157</ele>
        <time>2021-11-19T07:51:17Z</time>
      </trkpt>
      <trkpt lat="44.72085" lon="6.91386">
        <ele>2157</ele>
        <time>2021-11-19T07:51:19Z</time>
      </trkpt>
      <trkpt lat="44.72084" lon="6.91391">
        <ele>2157</ele>
        <time>2021-11-19T07:51:23Z</time>
      </trkpt>
      <trkpt lat="44.72084" lon="6.91394">
        <ele>2158</ele>
        <time>2021-11-19T07:51:25Z</time>
      </trkpt>
      <trkpt lat="44.72084" lon="6.91396">
        <ele>2158</ele>
        <time>2021-11-19T07:51:27Z</time>
      </trkpt>
      <trkpt lat="44.72084" lon="6.91402">
        <ele>2159</ele>
        <time>2021-11-19T07:51:34Z</time>
      </trkpt>
      <trkpt lat="44.72086" lon="6.91403">
        <ele>2159</ele>
        <time>2021-11-19T07:51:37Z</time>
      </trkpt>
      <trkpt lat="44.72087" lon="6.91407">
        <ele>2159</ele>
        <time>2021-11-19T07:51:40Z</time>
      </trkpt>
      <trkpt lat="44.72089" lon="6.91411">
        <ele>2160</ele>
        <time>2021-11-19T07:51:46Z</time>
      </trkpt>
      <trkpt lat="44.7209" lon="6.91414">
        <ele>2160</ele>
        <time>2021-11-19T07:51:49Z</time>
      </trkpt>
      <trkpt lat="44.7209" lon="6.91416">
        <ele>2161</ele>
        <time>2021-11-19T07:51:52Z</time>
      </trkpt>
      <trkpt lat="44.72092" lon="6.91421">
        <ele>2162</ele>
        <time>2021-11-19T07:51:58Z</time>
      </trkpt>
      <trkpt lat="44.72093" lon="6.91429">
        <ele>2162</ele>
        <time>2021-11-19T07:52:05Z</time>
      </trkpt>
      <trkpt lat="44.72094" lon="6.91431">
        <ele>2162</ele>
        <time>2021-11-19T07:52:08Z</time>
      </trkpt>
      <trkpt lat="44.72096" lon="6.91435">
        <ele>2162</ele>
        <time>2021-11-19T07:52:14Z</time>
      </trkpt>
      <trkpt lat="44.72097" lon="6.91438">
        <ele>2162</ele>
        <time>2021-11-19T07:52:18Z</time>
      </trkpt>
      <trkpt lat="44.72099" lon="6.91447">
        <ele>2162</ele>
        <time>2021-11-19T07:52:29Z</time>
      </trkpt>
      <trkpt lat="44.72101" lon="6.91452">
        <ele>2162</ele>
        <time>2021-11-19T07:52:35Z</time>
      </trkpt>
      <trkpt lat="44.72102" lon="6.91454">
        <ele>2162</ele>
        <time>2021-11-19T07:52:37Z</time>
      </trkpt>
      <trkpt lat="44.72103" lon="6.91456">
        <ele>2162</ele>
        <time>2021-11-19T07:52:40Z</time>
      </trkpt>
      <trkpt lat="44.72103" lon="6.91459">
        <ele>2162</ele>
        <time>2021-11-19T07:52:43Z</time>
      </trkpt>
      <trkpt lat="44.72102" lon="6.91465">
        <ele>2163</ele>
        <time>2021-11-19T07:52:52Z</time>
      </trkpt>
      <trkpt lat="44.72103" lon="6.91468">
        <ele>2164</ele>
        <time>2021-11-19T07:52:56Z</time>
      </trkpt>
      <trkpt lat="44.72105" lon="6.91474">
        <ele>2166</ele>
        <time>2021-11-19T07:53:05Z</time>
      </trkpt>
      <trkpt lat="44.72107" lon="6.9148">
        <ele>2167</ele>
        <time>2021-11-19T07:53:15Z</time>
      </trkpt>
      <trkpt lat="44.72107" lon="6.91483">
        <ele>2168</ele>
        <time>2021-11-19T07:53:18Z</time>
      </trkpt>
      <trkpt lat="44.72107" lon="6.91485">
        <ele>2169</ele>
        <time>2021-11-19T07:53:21Z</time>
      </trkpt>
      <trkpt lat="44.72108" lon="6.91488">
        <ele>2169</ele>
        <time>2021-11-19T07:53:24Z</time>
      </trkpt>
      <trkpt lat="44.72108" lon="6.9149">
        <ele>2170</ele>
        <time>2021-11-19T07:53:27Z</time>
      </trkpt>
      <trkpt lat="44.72109" lon="6.91492">
        <ele>2170</ele>
        <time>2021-11-19T07:53:31Z</time>
      </trkpt>
      <trkpt lat="44.7211" lon="6.91495">
        <ele>2171</ele>
        <time>2021-11-19T07:53:35Z</time>
      </trkpt>
      <trkpt lat="44.72111" lon="6.91497">
        <ele>2172</ele>
        <time>2021-11-19T07:53:39Z</time>
      </trkpt>
      <trkpt lat="44.72111" lon="6.91502">
        <ele>2173</ele>
        <time>2021-11-19T07:53:43Z</time>
      </trkpt>
      <trkpt lat="44.72111" lon="6.91505">
        <ele>2173</ele>
        <time>2021-11-19T07:53:45Z</time>
      </trkpt>
      <trkpt lat="44.72111" lon="6.91515">
        <ele>2175</ele>
        <time>2021-11-19T07:53:56Z</time>
      </trkpt>
      <trkpt lat="44.7211" lon="6.91517">
        <ele>2176</ele>
        <time>2021-11-19T07:53:58Z</time>
      </trkpt>
      <trkpt lat="44.72111" lon="6.9152">
        <ele>2177</ele>
        <time>2021-11-19T07:54:01Z</time>
      </trkpt>
      <trkpt lat="44.72112" lon="6.91521">
        <ele>2177</ele>
        <time>2021-11-19T07:54:04Z</time>
      </trkpt>
      <trkpt lat="44.72113" lon="6.91526">
        <ele>2178</ele>
        <time>2021-11-19T07:54:10Z</time>
      </trkpt>
      <trkpt lat="44.72114" lon="6.91529">
        <ele>2179</ele>
        <time>2021-11-19T07:54:13Z</time>
      </trkpt>
      <trkpt lat="44.72114" lon="6.91536">
        <ele>2180</ele>
        <time>2021-11-19T07:54:21Z</time>
      </trkpt>
      <trkpt lat="44.72115" lon="6.91539">
        <ele>2181</ele>
        <time>2021-11-19T07:54:24Z</time>
      </trkpt>
      <trkpt lat="44.72117" lon="6.91541">
        <ele>2182</ele>
        <time>2021-11-19T07:54:28Z</time>
      </trkpt>
      <trkpt lat="44.72117" lon="6.91545">
        <ele>2182</ele>
        <time>2021-11-19T07:54:31Z</time>
      </trkpt>
      <trkpt lat="44.72117" lon="6.91547">
        <ele>2182</ele>
        <time>2021-11-19T07:54:33Z</time>
      </trkpt>
      <trkpt lat="44.72117" lon="6.91551">
        <ele>2182</ele>
        <time>2021-11-19T07:54:36Z</time>
      </trkpt>
      <trkpt lat="44.72118" lon="6.91553">
        <ele>2183</ele>
        <time>2021-11-19T07:54:39Z</time>
      </trkpt>
      <trkpt lat="44.72118" lon="6.91555">
        <ele>2183</ele>
        <time>2021-11-19T07:54:44Z</time>
      </trkpt>
      <trkpt lat="44.72118" lon="6.91558">
        <ele>2183</ele>
        <time>2021-11-19T07:54:47Z</time>
      </trkpt>
      <trkpt lat="44.72118" lon="6.9156">
        <ele>2184</ele>
        <time>2021-11-19T07:54:49Z</time>
      </trkpt>
      <trkpt lat="44.72116" lon="6.91564">
        <ele>2185</ele>
        <time>2021-11-19T07:54:55Z</time>
      </trkpt>
      <trkpt lat="44.72114" lon="6.91565">
        <ele>2186</ele>
        <time>2021-11-19T07:54:57Z</time>
      </trkpt>
      <trkpt lat="44.72113" lon="6.91566">
        <ele>2187</ele>
        <time>2021-11-19T07:55:00Z</time>
      </trkpt>
      <trkpt lat="44.72111" lon="6.91567">
        <ele>2188</ele>
        <time>2021-11-19T07:55:03Z</time>
      </trkpt>
      <trkpt lat="44.7211" lon="6.91568">
        <ele>2190</ele>
        <time>2021-11-19T07:55:07Z</time>
      </trkpt>
      <trkpt lat="44.7211" lon="6.91571">
        <ele>2191</ele>
        <time>2021-11-19T07:55:11Z</time>
      </trkpt>
      <trkpt lat="44.7211" lon="6.91574">
        <ele>2193</ele>
        <time>2021-11-19T07:55:17Z</time>
      </trkpt>
      <trkpt lat="44.72112" lon="6.91577">
        <ele>2193</ele>
        <time>2021-11-19T07:55:40Z</time>
      </trkpt>
      <trkpt lat="44.72113" lon="6.9158">
        <ele>2194</ele>
        <time>2021-11-19T07:55:43Z</time>
      </trkpt>
      <trkpt lat="44.72113" lon="6.91582">
        <ele>2194</ele>
        <time>2021-11-19T07:55:45Z</time>
      </trkpt>
      <trkpt lat="44.72115" lon="6.91587">
        <ele>2194</ele>
        <time>2021-11-19T07:55:50Z</time>
      </trkpt>
      <trkpt lat="44.72116" lon="6.91589">
        <ele>2194</ele>
        <time>2021-11-19T07:55:54Z</time>
      </trkpt>
      <trkpt lat="44.72116" lon="6.91592">
        <ele>2194</ele>
        <time>2021-11-19T07:55:57Z</time>
      </trkpt>
      <trkpt lat="44.72116" lon="6.91594">
        <ele>2194</ele>
        <time>2021-11-19T07:56:00Z</time>
      </trkpt>
      <trkpt lat="44.72116" lon="6.91597">
        <ele>2194</ele>
        <time>2021-11-19T07:56:03Z</time>
      </trkpt>
      <trkpt lat="44.72115" lon="6.916">
        <ele>2195</ele>
        <time>2021-11-19T07:56:06Z</time>
      </trkpt>
      <trkpt lat="44.72114" lon="6.91602">
        <ele>2195</ele>
        <time>2021-11-19T07:56:08Z</time>
      </trkpt>
      <trkpt lat="44.7211" lon="6.91624">
        <ele>2197</ele>
        <time>2021-11-19T07:56:35Z</time>
      </trkpt>
      <trkpt lat="44.7211" lon="6.91629">
        <ele>2198</ele>
        <time>2021-11-19T07:56:41Z</time>
      </trkpt>
      <trkpt lat="44.72111" lon="6.91631">
        <ele>2199</ele>
        <time>2021-11-19T07:56:44Z</time>
      </trkpt>
      <trkpt lat="44.7211" lon="6.91637">
        <ele>2200</ele>
        <time>2021-11-19T07:56:51Z</time>
      </trkpt>
      <trkpt lat="44.72109" lon="6.9164">
        <ele>2201</ele>
        <time>2021-11-19T07:56:55Z</time>
      </trkpt>
      <trkpt lat="44.72108" lon="6.91643">
        <ele>2202</ele>
        <time>2021-11-19T07:56:58Z</time>
      </trkpt>
      <trkpt lat="44.72108" lon="6.91645">
        <ele>2202</ele>
        <time>2021-11-19T07:57:01Z</time>
      </trkpt>
      <trkpt lat="44.72111" lon="6.91643">
        <ele>2204</ele>
        <time>2021-11-19T07:57:11Z</time>
      </trkpt>
      <trkpt lat="44.7212" lon="6.9164">
        <ele>2207</ele>
        <time>2021-11-19T07:57:26Z</time>
      </trkpt>
      <trkpt lat="44.72122" lon="6.9164">
        <ele>2208</ele>
        <time>2021-11-19T07:57:29Z</time>
      </trkpt>
      <trkpt lat="44.72123" lon="6.91639">
        <ele>2208</ele>
        <time>2021-11-19T07:57:32Z</time>
      </trkpt>
      <trkpt lat="44.72127" lon="6.91639">
        <ele>2210</ele>
        <time>2021-11-19T07:57:37Z</time>
      </trkpt>
      <trkpt lat="44.72129" lon="6.91639">
        <ele>2210</ele>
        <time>2021-11-19T07:57:40Z</time>
      </trkpt>
      <trkpt lat="44.7213" lon="6.91641">
        <ele>2211</ele>
        <time>2021-11-19T07:57:43Z</time>
      </trkpt>
      <trkpt lat="44.72131" lon="6.91645">
        <ele>2212</ele>
        <time>2021-11-19T07:57:49Z</time>
      </trkpt>
      <trkpt lat="44.72129" lon="6.91649">
        <ele>2213</ele>
        <time>2021-11-19T07:57:54Z</time>
      </trkpt>
      <trkpt lat="44.72129" lon="6.91651">
        <ele>2213</ele>
        <time>2021-11-19T07:57:57Z</time>
      </trkpt>
      <trkpt lat="44.72124" lon="6.91665">
        <ele>2216</ele>
        <time>2021-11-19T07:58:13Z</time>
      </trkpt>
      <trkpt lat="44.72125" lon="6.91676">
        <ele>2218</ele>
        <time>2021-11-19T07:58:26Z</time>
      </trkpt>
      <trkpt lat="44.72125" lon="6.91682">
        <ele>2219</ele>
        <time>2021-11-19T07:58:33Z</time>
      </trkpt>
      <trkpt lat="44.72125" lon="6.91684">
        <ele>2219</ele>
        <time>2021-11-19T07:58:37Z</time>
      </trkpt>
      <trkpt lat="44.72125" lon="6.91687">
        <ele>2219</ele>
        <time>2021-11-19T07:58:41Z</time>
      </trkpt>
      <trkpt lat="44.72126" lon="6.91687">
        <ele>2220</ele>
        <time>2021-11-19T07:58:45Z</time>
      </trkpt>
      <trkpt lat="44.7213" lon="6.91683">
        <ele>2222</ele>
        <time>2021-11-19T07:59:03Z</time>
      </trkpt>
      <trkpt lat="44.72134" lon="6.91683">
        <ele>2222</ele>
        <time>2021-11-19T07:59:09Z</time>
      </trkpt>
      <trkpt lat="44.72138" lon="6.91683">
        <ele>2223</ele>
        <time>2021-11-19T07:59:15Z</time>
      </trkpt>
      <trkpt lat="44.7215" lon="6.91683">
        <ele>2226</ele>
        <time>2021-11-19T07:59:31Z</time>
      </trkpt>
      <trkpt lat="44.72152" lon="6.91682">
        <ele>2227</ele>
        <time>2021-11-19T07:59:35Z</time>
      </trkpt>
      <trkpt lat="44.72154" lon="6.91682">
        <ele>2228</ele>
        <time>2021-11-19T07:59:38Z</time>
      </trkpt>
      <trkpt lat="44.72158" lon="6.91683">
        <ele>2229</ele>
        <time>2021-11-19T07:59:43Z</time>
      </trkpt>
      <trkpt lat="44.72159" lon="6.91682">
        <ele>2229</ele>
        <time>2021-11-19T07:59:46Z</time>
      </trkpt>
      <trkpt lat="44.72162" lon="6.9168">
        <ele>2231</ele>
        <time>2021-11-19T07:59:53Z</time>
      </trkpt>
      <trkpt lat="44.72171" lon="6.91681">
        <ele>2234</ele>
        <time>2021-11-19T08:00:07Z</time>
      </trkpt>
      <trkpt lat="44.72173" lon="6.91683">
        <ele>2235</ele>
        <time>2021-11-19T08:00:12Z</time>
      </trkpt>
      <trkpt lat="44.72171" lon="6.91688">
        <ele>2236</ele>
        <time>2021-11-19T08:00:20Z</time>
      </trkpt>
      <trkpt lat="44.72171" lon="6.9169">
        <ele>2236</ele>
        <time>2021-11-19T08:00:22Z</time>
      </trkpt>
      <trkpt lat="44.7217" lon="6.91692">
        <ele>2237</ele>
        <time>2021-11-19T08:00:25Z</time>
      </trkpt>
      <trkpt lat="44.72168" lon="6.91699">
        <ele>2238</ele>
        <time>2021-11-19T08:00:32Z</time>
      </trkpt>
      <trkpt lat="44.72169" lon="6.91706">
        <ele>2239</ele>
        <time>2021-11-19T08:00:41Z</time>
      </trkpt>
      <trkpt lat="44.7217" lon="6.9171">
        <ele>2239</ele>
        <time>2021-11-19T08:00:49Z</time>
      </trkpt>
      <trkpt lat="44.72171" lon="6.91713">
        <ele>2239</ele>
        <time>2021-11-19T08:00:52Z</time>
      </trkpt>
      <trkpt lat="44.72173" lon="6.91712">
        <ele>2240</ele>
        <time>2021-11-19T08:00:56Z</time>
      </trkpt>
      <trkpt lat="44.72174" lon="6.91711">
        <ele>2241</ele>
        <time>2021-11-19T08:01:01Z</time>
      </trkpt>
      <trkpt lat="44.72176" lon="6.91709">
        <ele>2241</ele>
        <time>2021-11-19T08:01:04Z</time>
      </trkpt>
      <trkpt lat="44.72177" lon="6.91708">
        <ele>2242</ele>
        <time>2021-11-19T08:01:07Z</time>
      </trkpt>
      <trkpt lat="44.72179" lon="6.91708">
        <ele>2242</ele>
        <time>2021-11-19T08:01:10Z</time>
      </trkpt>
      <trkpt lat="44.7218" lon="6.9171">
        <ele>2241</ele>
        <time>2021-11-19T08:01:14Z</time>
      </trkpt>
      <trkpt lat="44.72181" lon="6.91711">
        <ele>2241</ele>
        <time>2021-11-19T08:01:17Z</time>
      </trkpt>
      <trkpt lat="44.72182" lon="6.91713">
        <ele>2241</ele>
        <time>2021-11-19T08:01:21Z</time>
      </trkpt>
      <trkpt lat="44.72183" lon="6.91716">
        <ele>2242</ele>
        <time>2021-11-19T08:01:26Z</time>
      </trkpt>
      <trkpt lat="44.72181" lon="6.91722">
        <ele>2243</ele>
        <time>2021-11-19T08:01:32Z</time>
      </trkpt>
      <trkpt lat="44.72181" lon="6.91724">
        <ele>2243</ele>
        <time>2021-11-19T08:01:34Z</time>
      </trkpt>
      <trkpt lat="44.7218" lon="6.91726">
        <ele>2244</ele>
        <time>2021-11-19T08:01:37Z</time>
      </trkpt>
      <trkpt lat="44.7218" lon="6.91729">
        <ele>2244</ele>
        <time>2021-11-19T08:01:40Z</time>
      </trkpt>
      <trkpt lat="44.7218" lon="6.91732">
        <ele>2245</ele>
        <time>2021-11-19T08:01:42Z</time>
      </trkpt>
      <trkpt lat="44.72186" lon="6.91732">
        <ele>2247</ele>
        <time>2021-11-19T08:01:53Z</time>
      </trkpt>
      <trkpt lat="44.7219" lon="6.91731">
        <ele>2249</ele>
        <time>2021-11-19T08:02:02Z</time>
      </trkpt>
      <trkpt lat="44.72191" lon="6.91729">
        <ele>2250</ele>
        <time>2021-11-19T08:02:05Z</time>
      </trkpt>
      <trkpt lat="44.72193" lon="6.91727">
        <ele>2250</ele>
        <time>2021-11-19T08:02:08Z</time>
      </trkpt>
      <trkpt lat="44.72197" lon="6.91725">
        <ele>2252</ele>
        <time>2021-11-19T08:02:16Z</time>
      </trkpt>
      <trkpt lat="44.72199" lon="6.91726">
        <ele>2252</ele>
        <time>2021-11-19T08:02:20Z</time>
      </trkpt>
      <trkpt lat="44.72201" lon="6.9173">
        <ele>2253</ele>
        <time>2021-11-19T08:02:27Z</time>
      </trkpt>
      <trkpt lat="44.72203" lon="6.91735">
        <ele>2253</ele>
        <time>2021-11-19T08:02:33Z</time>
      </trkpt>
      <trkpt lat="44.72202" lon="6.91738">
        <ele>2253</ele>
        <time>2021-11-19T08:02:36Z</time>
      </trkpt>
      <trkpt lat="44.72203" lon="6.91743">
        <ele>2253</ele>
        <time>2021-11-19T08:02:42Z</time>
      </trkpt>
      <trkpt lat="44.72202" lon="6.91745">
        <ele>2253</ele>
        <time>2021-11-19T08:02:45Z</time>
      </trkpt>
      <trkpt lat="44.72204" lon="6.91745">
        <ele>2254</ele>
        <time>2021-11-19T08:02:54Z</time>
      </trkpt>
      <trkpt lat="44.72205" lon="6.91742">
        <ele>2255</ele>
        <time>2021-11-19T08:02:58Z</time>
      </trkpt>
      <trkpt lat="44.72207" lon="6.9174">
        <ele>2256</ele>
        <time>2021-11-19T08:03:02Z</time>
      </trkpt>
      <trkpt lat="44.72207" lon="6.91742">
        <ele>2261</ele>
        <time>2021-11-19T08:03:13Z</time>
      </trkpt>
      <trkpt lat="44.72208" lon="6.91745">
        <ele>2264</ele>
        <time>2021-11-19T08:03:16Z</time>
      </trkpt>
      <trkpt lat="44.72208" lon="6.91747">
        <ele>2266</ele>
        <time>2021-11-19T08:03:19Z</time>
      </trkpt>
      <trkpt lat="44.72208" lon="6.91752">
        <ele>2267</ele>
        <time>2021-11-19T08:03:25Z</time>
      </trkpt>
      <trkpt lat="44.72207" lon="6.91755">
        <ele>2268</ele>
        <time>2021-11-19T08:03:28Z</time>
      </trkpt>
      <trkpt lat="44.72206" lon="6.9176">
        <ele>2270</ele>
        <time>2021-11-19T08:03:36Z</time>
      </trkpt>
      <trkpt lat="44.72205" lon="6.91768">
        <ele>2272</ele>
        <time>2021-11-19T08:03:48Z</time>
      </trkpt>
      <trkpt lat="44.72204" lon="6.9177">
        <ele>2272</ele>
        <time>2021-11-19T08:03:52Z</time>
      </trkpt>
      <trkpt lat="44.72203" lon="6.91776">
        <ele>2273</ele>
        <time>2021-11-19T08:03:57Z</time>
      </trkpt>
      <trkpt lat="44.72204" lon="6.91778">
        <ele>2273</ele>
        <time>2021-11-19T08:04:00Z</time>
      </trkpt>
      <trkpt lat="44.72208" lon="6.91773">
        <ele>2275</ele>
        <time>2021-11-19T08:04:12Z</time>
      </trkpt>
      <trkpt lat="44.72209" lon="6.91771">
        <ele>2275</ele>
        <time>2021-11-19T08:04:15Z</time>
      </trkpt>
      <trkpt lat="44.7221" lon="6.91771">
        <ele>2276</ele>
        <time>2021-11-19T08:04:18Z</time>
      </trkpt>
      <trkpt lat="44.72214" lon="6.91769">
        <ele>2276</ele>
        <time>2021-11-19T08:04:23Z</time>
      </trkpt>
      <trkpt lat="44.72216" lon="6.91768">
        <ele>2276</ele>
        <time>2021-11-19T08:04:27Z</time>
      </trkpt>
      <trkpt lat="44.72217" lon="6.91766">
        <ele>2275</ele>
        <time>2021-11-19T08:04:30Z</time>
      </trkpt>
      <trkpt lat="44.72221" lon="6.91766">
        <ele>2276</ele>
        <time>2021-11-19T08:04:37Z</time>
      </trkpt>
      <trkpt lat="44.72222" lon="6.91765">
        <ele>2276</ele>
        <time>2021-11-19T08:04:41Z</time>
      </trkpt>
      <trkpt lat="44.72224" lon="6.91764">
        <ele>2276</ele>
        <time>2021-11-19T08:04:46Z</time>
      </trkpt>
      <trkpt lat="44.72225" lon="6.91766">
        <ele>2276</ele>
        <time>2021-11-19T08:04:49Z</time>
      </trkpt>
      <trkpt lat="44.72226" lon="6.91768">
        <ele>2277</ele>
        <time>2021-11-19T08:04:52Z</time>
      </trkpt>
      <trkpt lat="44.72227" lon="6.9177">
        <ele>2277</ele>
        <time>2021-11-19T08:04:56Z</time>
      </trkpt>
      <trkpt lat="44.72227" lon="6.91773">
        <ele>2278</ele>
        <time>2021-11-19T08:04:59Z</time>
      </trkpt>
      <trkpt lat="44.72228" lon="6.91782">
        <ele>2279</ele>
        <time>2021-11-19T08:05:11Z</time>
      </trkpt>
      <trkpt lat="44.72229" lon="6.91785">
        <ele>2279</ele>
        <time>2021-11-19T08:05:14Z</time>
      </trkpt>
      <trkpt lat="44.72228" lon="6.91787">
        <ele>2280</ele>
        <time>2021-11-19T08:05:16Z</time>
      </trkpt>
      <trkpt lat="44.72227" lon="6.91792">
        <ele>2280</ele>
        <time>2021-11-19T08:05:21Z</time>
      </trkpt>
      <trkpt lat="44.72226" lon="6.91799">
        <ele>2282</ele>
        <time>2021-11-19T08:05:32Z</time>
      </trkpt>
      <trkpt lat="44.72224" lon="6.91801">
        <ele>2283</ele>
        <time>2021-11-19T08:05:34Z</time>
      </trkpt>
      <trkpt lat="44.72223" lon="6.91803">
        <ele>2284</ele>
        <time>2021-11-19T08:05:37Z</time>
      </trkpt>
      <trkpt lat="44.72222" lon="6.91814">
        <ele>2288</ele>
        <time>2021-11-19T08:05:49Z</time>
      </trkpt>
      <trkpt lat="44.72221" lon="6.91819">
        <ele>2289</ele>
        <time>2021-11-19T08:05:56Z</time>
      </trkpt>
      <trkpt lat="44.72221" lon="6.91821">
        <ele>2290</ele>
        <time>2021-11-19T08:05:59Z</time>
      </trkpt>
      <trkpt lat="44.72221" lon="6.91824">
        <ele>2290</ele>
        <time>2021-11-19T08:06:02Z</time>
      </trkpt>
      <trkpt lat="44.72219" lon="6.91834">
        <ele>2292</ele>
        <time>2021-11-19T08:06:12Z</time>
      </trkpt>
      <trkpt lat="44.72219" lon="6.91836">
        <ele>2292</ele>
        <time>2021-11-19T08:06:14Z</time>
      </trkpt>
      <trkpt lat="44.72219" lon="6.91839">
        <ele>2292</ele>
        <time>2021-11-19T08:06:16Z</time>
      </trkpt>
      <trkpt lat="44.7222" lon="6.91842">
        <ele>2292</ele>
        <time>2021-11-19T08:06:19Z</time>
      </trkpt>
      <trkpt lat="44.7222" lon="6.91845">
        <ele>2292</ele>
        <time>2021-11-19T08:06:21Z</time>
      </trkpt>
      <trkpt lat="44.72221" lon="6.91848">
        <ele>2292</ele>
        <time>2021-11-19T08:06:24Z</time>
      </trkpt>
      <trkpt lat="44.72221" lon="6.9185">
        <ele>2292</ele>
        <time>2021-11-19T08:06:27Z</time>
      </trkpt>
      <trkpt lat="44.72221" lon="6.91853">
        <ele>2292</ele>
        <time>2021-11-19T08:06:29Z</time>
      </trkpt>
      <trkpt lat="44.72222" lon="6.91854">
        <ele>2292</ele>
        <time>2021-11-19T08:06:31Z</time>
      </trkpt>
      <trkpt lat="44.72224" lon="6.91865">
        <ele>2292</ele>
        <time>2021-11-19T08:06:40Z</time>
      </trkpt>
      <trkpt lat="44.72224" lon="6.91867">
        <ele>2292</ele>
        <time>2021-11-19T08:06:42Z</time>
      </trkpt>
      <trkpt lat="44.72223" lon="6.91873">
        <ele>2292</ele>
        <time>2021-11-19T08:06:46Z</time>
      </trkpt>
      <trkpt lat="44.72223" lon="6.91875">
        <ele>2292</ele>
        <time>2021-11-19T08:06:49Z</time>
      </trkpt>
      <trkpt lat="44.72224" lon="6.91878">
        <ele>2292</ele>
        <time>2021-11-19T08:06:52Z</time>
      </trkpt>
      <trkpt lat="44.72225" lon="6.91883">
        <ele>2292</ele>
        <time>2021-11-19T08:06:59Z</time>
      </trkpt>
      <trkpt lat="44.72225" lon="6.91886">
        <ele>2293</ele>
        <time>2021-11-19T08:07:02Z</time>
      </trkpt>
      <trkpt lat="44.72224" lon="6.91891">
        <ele>2293</ele>
        <time>2021-11-19T08:07:06Z</time>
      </trkpt>
      <trkpt lat="44.72226" lon="6.91902">
        <ele>2295</ele>
        <time>2021-11-19T08:07:16Z</time>
      </trkpt>
      <trkpt lat="44.72227" lon="6.91904">
        <ele>2295</ele>
        <time>2021-11-19T08:07:18Z</time>
      </trkpt>
      <trkpt lat="44.72227" lon="6.91907">
        <ele>2295</ele>
        <time>2021-11-19T08:07:20Z</time>
      </trkpt>
      <trkpt lat="44.72227" lon="6.91909">
        <ele>2295</ele>
        <time>2021-11-19T08:07:23Z</time>
      </trkpt>
      <trkpt lat="44.72227" lon="6.91912">
        <ele>2296</ele>
        <time>2021-11-19T08:07:26Z</time>
      </trkpt>
      <trkpt lat="44.72227" lon="6.91915">
        <ele>2296</ele>
        <time>2021-11-19T08:07:28Z</time>
      </trkpt>
      <trkpt lat="44.72225" lon="6.91919">
        <ele>2296</ele>
        <time>2021-11-19T08:07:33Z</time>
      </trkpt>
      <trkpt lat="44.72224" lon="6.91921">
        <ele>2296</ele>
        <time>2021-11-19T08:07:35Z</time>
      </trkpt>
      <trkpt lat="44.72223" lon="6.91924">
        <ele>2296</ele>
        <time>2021-11-19T08:07:37Z</time>
      </trkpt>
      <trkpt lat="44.72224" lon="6.91926">
        <ele>2296</ele>
        <time>2021-11-19T08:07:39Z</time>
      </trkpt>
      <trkpt lat="44.72223" lon="6.9193">
        <ele>2297</ele>
        <time>2021-11-19T08:07:43Z</time>
      </trkpt>
      <trkpt lat="44.72223" lon="6.91933">
        <ele>2297</ele>
        <time>2021-11-19T08:07:45Z</time>
      </trkpt>
      <trkpt lat="44.72223" lon="6.91936">
        <ele>2297</ele>
        <time>2021-11-19T08:07:47Z</time>
      </trkpt>
      <trkpt lat="44.72219" lon="6.9195">
        <ele>2299</ele>
        <time>2021-11-19T08:08:03Z</time>
      </trkpt>
      <trkpt lat="44.72215" lon="6.91957">
        <ele>2300</ele>
        <time>2021-11-19T08:08:12Z</time>
      </trkpt>
      <trkpt lat="44.72214" lon="6.9196">
        <ele>2300</ele>
        <time>2021-11-19T08:08:15Z</time>
      </trkpt>
      <trkpt lat="44.72213" lon="6.91962">
        <ele>2301</ele>
        <time>2021-11-19T08:08:17Z</time>
      </trkpt>
      <trkpt lat="44.72213" lon="6.91965">
        <ele>2301</ele>
        <time>2021-11-19T08:08:20Z</time>
      </trkpt>
      <trkpt lat="44.72213" lon="6.9197">
        <ele>2302</ele>
        <time>2021-11-19T08:08:25Z</time>
      </trkpt>
      <trkpt lat="44.72213" lon="6.91973">
        <ele>2302</ele>
        <time>2021-11-19T08:08:28Z</time>
      </trkpt>
      <trkpt lat="44.72213" lon="6.91976">
        <ele>2302</ele>
        <time>2021-11-19T08:08:32Z</time>
      </trkpt>
      <trkpt lat="44.72214" lon="6.91976">
        <ele>2307</ele>
        <time>2021-11-19T08:10:15Z</time>
      </trkpt>
      <trkpt lat="44.72216" lon="6.91973">
        <ele>2307</ele>
        <time>2021-11-19T08:10:26Z</time>
      </trkpt>
      <trkpt lat="44.72217" lon="6.91977">
        <ele>2306</ele>
        <time>2021-11-19T08:10:33Z</time>
      </trkpt>
      <trkpt lat="44.72215" lon="6.91982">
        <ele>2305</ele>
        <time>2021-11-19T08:10:40Z</time>
      </trkpt>
      <trkpt lat="44.72214" lon="6.91988">
        <ele>2306</ele>
        <time>2021-11-19T08:10:49Z</time>
      </trkpt>
      <trkpt lat="44.72212" lon="6.91994">
        <ele>2307</ele>
        <time>2021-11-19T08:10:55Z</time>
      </trkpt>
      <trkpt lat="44.72211" lon="6.91996">
        <ele>2308</ele>
        <time>2021-11-19T08:10:57Z</time>
      </trkpt>
      <trkpt lat="44.7221" lon="6.91999">
        <ele>2308</ele>
        <time>2021-11-19T08:10:59Z</time>
      </trkpt>
      <trkpt lat="44.72207" lon="6.92003">
        <ele>2309</ele>
        <time>2021-11-19T08:11:03Z</time>
      </trkpt>
      <trkpt lat="44.72205" lon="6.9201">
        <ele>2309</ele>
        <time>2021-11-19T08:11:11Z</time>
      </trkpt>
      <trkpt lat="44.72205" lon="6.92013">
        <ele>2308</ele>
        <time>2021-11-19T08:11:37Z</time>
      </trkpt>
      <trkpt lat="44.72203" lon="6.92016">
        <ele>2309</ele>
        <time>2021-11-19T08:11:39Z</time>
      </trkpt>
      <trkpt lat="44.72202" lon="6.92019">
        <ele>2309</ele>
        <time>2021-11-19T08:11:42Z</time>
      </trkpt>
      <trkpt lat="44.72191" lon="6.92028">
        <ele>2312</ele>
        <time>2021-11-19T08:11:57Z</time>
      </trkpt>
      <trkpt lat="44.7219" lon="6.9203">
        <ele>2312</ele>
        <time>2021-11-19T08:12:01Z</time>
      </trkpt>
      <trkpt lat="44.72189" lon="6.92032">
        <ele>2313</ele>
        <time>2021-11-19T08:12:05Z</time>
      </trkpt>
      <trkpt lat="44.72189" lon="6.92034">
        <ele>2314</ele>
        <time>2021-11-19T08:12:09Z</time>
      </trkpt>
      <trkpt lat="44.72189" lon="6.92038">
        <ele>2314</ele>
        <time>2021-11-19T08:12:14Z</time>
      </trkpt>
      <trkpt lat="44.7219" lon="6.9204">
        <ele>2314</ele>
        <time>2021-11-19T08:12:17Z</time>
      </trkpt>
      <trkpt lat="44.72191" lon="6.92042">
        <ele>2315</ele>
        <time>2021-11-19T08:12:22Z</time>
      </trkpt>
      <trkpt lat="44.72189" lon="6.92045">
        <ele>2316</ele>
        <time>2021-11-19T08:12:30Z</time>
      </trkpt>
      <trkpt lat="44.72186" lon="6.92048">
        <ele>2318</ele>
        <time>2021-11-19T08:12:36Z</time>
      </trkpt>
      <trkpt lat="44.72184" lon="6.92049">
        <ele>2319</ele>
        <time>2021-11-19T08:12:39Z</time>
      </trkpt>
      <trkpt lat="44.72183" lon="6.92051">
        <ele>2319</ele>
        <time>2021-11-19T08:12:42Z</time>
      </trkpt>
      <trkpt lat="44.72182" lon="6.92054">
        <ele>2320</ele>
        <time>2021-11-19T08:12:45Z</time>
      </trkpt>
      <trkpt lat="44.7218" lon="6.92055">
        <ele>2320</ele>
        <time>2021-11-19T08:12:47Z</time>
      </trkpt>
      <trkpt lat="44.72179" lon="6.92058">
        <ele>2321</ele>
        <time>2021-11-19T08:12:51Z</time>
      </trkpt>
      <trkpt lat="44.72175" lon="6.9206">
        <ele>2321</ele>
        <time>2021-11-19T08:12:58Z</time>
      </trkpt>
      <trkpt lat="44.72168" lon="6.92067">
        <ele>2324</ele>
        <time>2021-11-19T08:13:10Z</time>
      </trkpt>
      <trkpt lat="44.72166" lon="6.92068">
        <ele>2324</ele>
        <time>2021-11-19T08:13:12Z</time>
      </trkpt>
      <trkpt lat="44.72165" lon="6.9207">
        <ele>2325</ele>
        <time>2021-11-19T08:13:15Z</time>
      </trkpt>
      <trkpt lat="44.72163" lon="6.92072">
        <ele>2325</ele>
        <time>2021-11-19T08:13:17Z</time>
      </trkpt>
      <trkpt lat="44.72162" lon="6.92074">
        <ele>2326</ele>
        <time>2021-11-19T08:13:20Z</time>
      </trkpt>
      <trkpt lat="44.72161" lon="6.92076">
        <ele>2326</ele>
        <time>2021-11-19T08:13:23Z</time>
      </trkpt>
      <trkpt lat="44.7216" lon="6.92078">
        <ele>2326</ele>
        <time>2021-11-19T08:13:26Z</time>
      </trkpt>
      <trkpt lat="44.72159" lon="6.92081">
        <ele>2327</ele>
        <time>2021-11-19T08:13:30Z</time>
      </trkpt>
      <trkpt lat="44.72158" lon="6.92083">
        <ele>2327</ele>
        <time>2021-11-19T08:13:33Z</time>
      </trkpt>
      <trkpt lat="44.72156" lon="6.92084">
        <ele>2327</ele>
        <time>2021-11-19T08:13:35Z</time>
      </trkpt>
      <trkpt lat="44.72156" lon="6.92086">
        <ele>2328</ele>
        <time>2021-11-19T08:13:38Z</time>
      </trkpt>
      <trkpt lat="44.72156" lon="6.92089">
        <ele>2328</ele>
        <time>2021-11-19T08:13:41Z</time>
      </trkpt>
      <trkpt lat="44.72157" lon="6.92092">
        <ele>2328</ele>
        <time>2021-11-19T08:13:45Z</time>
      </trkpt>
      <trkpt lat="44.72157" lon="6.92094">
        <ele>2329</ele>
        <time>2021-11-19T08:13:48Z</time>
      </trkpt>
      <trkpt lat="44.72154" lon="6.92104">
        <ele>2329</ele>
        <time>2021-11-19T08:13:58Z</time>
      </trkpt>
      <trkpt lat="44.72153" lon="6.92107">
        <ele>2329</ele>
        <time>2021-11-19T08:14:00Z</time>
      </trkpt>
      <trkpt lat="44.72152" lon="6.9211">
        <ele>2330</ele>
        <time>2021-11-19T08:14:03Z</time>
      </trkpt>
      <trkpt lat="44.72152" lon="6.92113">
        <ele>2330</ele>
        <time>2021-11-19T08:14:05Z</time>
      </trkpt>
      <trkpt lat="44.7215" lon="6.92115">
        <ele>2331</ele>
        <time>2021-11-19T08:14:08Z</time>
      </trkpt>
      <trkpt lat="44.72149" lon="6.92117">
        <ele>2332</ele>
        <time>2021-11-19T08:14:11Z</time>
      </trkpt>
      <trkpt lat="44.72148" lon="6.92119">
        <ele>2333</ele>
        <time>2021-11-19T08:14:14Z</time>
      </trkpt>
      <trkpt lat="44.72147" lon="6.92121">
        <ele>2333</ele>
        <time>2021-11-19T08:14:16Z</time>
      </trkpt>
      <trkpt lat="44.72146" lon="6.92127">
        <ele>2334</ele>
        <time>2021-11-19T08:14:23Z</time>
      </trkpt>
      <trkpt lat="44.72145" lon="6.92129">
        <ele>2334</ele>
        <time>2021-11-19T08:14:26Z</time>
      </trkpt>
      <trkpt lat="44.72145" lon="6.92131">
        <ele>2334</ele>
        <time>2021-11-19T08:14:31Z</time>
      </trkpt>
      <trkpt lat="44.72143" lon="6.92134">
        <ele>2336</ele>
        <time>2021-11-19T08:14:35Z</time>
      </trkpt>
      <trkpt lat="44.72143" lon="6.92139">
        <ele>2337</ele>
        <time>2021-11-19T08:14:41Z</time>
      </trkpt>
      <trkpt lat="44.72142" lon="6.92141">
        <ele>2337</ele>
        <time>2021-11-19T08:14:43Z</time>
      </trkpt>
      <trkpt lat="44.72141" lon="6.92144">
        <ele>2338</ele>
        <time>2021-11-19T08:14:46Z</time>
      </trkpt>
      <trkpt lat="44.72141" lon="6.92147">
        <ele>2338</ele>
        <time>2021-11-19T08:14:48Z</time>
      </trkpt>
      <trkpt lat="44.72138" lon="6.92155">
        <ele>2339</ele>
        <time>2021-11-19T08:14:56Z</time>
      </trkpt>
      <trkpt lat="44.72134" lon="6.92161">
        <ele>2339</ele>
        <time>2021-11-19T08:15:03Z</time>
      </trkpt>
      <trkpt lat="44.72135" lon="6.92167">
        <ele>2340</ele>
        <time>2021-11-19T08:15:09Z</time>
      </trkpt>
      <trkpt lat="44.72132" lon="6.92177">
        <ele>2341</ele>
        <time>2021-11-19T08:15:19Z</time>
      </trkpt>
      <trkpt lat="44.72131" lon="6.92179">
        <ele>2341</ele>
        <time>2021-11-19T08:15:21Z</time>
      </trkpt>
      <trkpt lat="44.72132" lon="6.92181">
        <ele>2342</ele>
        <time>2021-11-19T08:15:25Z</time>
      </trkpt>
      <trkpt lat="44.72131" lon="6.92184">
        <ele>2342</ele>
        <time>2021-11-19T08:15:28Z</time>
      </trkpt>
      <trkpt lat="44.7213" lon="6.92186">
        <ele>2342</ele>
        <time>2021-11-19T08:15:31Z</time>
      </trkpt>
      <trkpt lat="44.72129" lon="6.92188">
        <ele>2343</ele>
        <time>2021-11-19T08:15:35Z</time>
      </trkpt>
      <trkpt lat="44.72128" lon="6.92189">
        <ele>2344</ele>
        <time>2021-11-19T08:15:40Z</time>
      </trkpt>
      <trkpt lat="44.72127" lon="6.92193">
        <ele>2344</ele>
        <time>2021-11-19T08:15:45Z</time>
      </trkpt>
      <trkpt lat="44.72125" lon="6.92198">
        <ele>2344</ele>
        <time>2021-11-19T08:15:49Z</time>
      </trkpt>
      <trkpt lat="44.72124" lon="6.92199">
        <ele>2344</ele>
        <time>2021-11-19T08:15:51Z</time>
      </trkpt>
      <trkpt lat="44.72122" lon="6.92201">
        <ele>2344</ele>
        <time>2021-11-19T08:15:53Z</time>
      </trkpt>
      <trkpt lat="44.72121" lon="6.92203">
        <ele>2344</ele>
        <time>2021-11-19T08:15:55Z</time>
      </trkpt>
      <trkpt lat="44.72121" lon="6.92206">
        <ele>2344</ele>
        <time>2021-11-19T08:15:58Z</time>
      </trkpt>
      <trkpt lat="44.72121" lon="6.92211">
        <ele>2344</ele>
        <time>2021-11-19T08:16:03Z</time>
      </trkpt>
      <trkpt lat="44.7212" lon="6.92213">
        <ele>2344</ele>
        <time>2021-11-19T08:16:07Z</time>
      </trkpt>
      <trkpt lat="44.7212" lon="6.92216">
        <ele>2344</ele>
        <time>2021-11-19T08:16:09Z</time>
      </trkpt>
      <trkpt lat="44.72119" lon="6.92221">
        <ele>2345</ele>
        <time>2021-11-19T08:16:13Z</time>
      </trkpt>
      <trkpt lat="44.72118" lon="6.92224">
        <ele>2346</ele>
        <time>2021-11-19T08:16:16Z</time>
      </trkpt>
      <trkpt lat="44.72117" lon="6.9223">
        <ele>2347</ele>
        <time>2021-11-19T08:16:22Z</time>
      </trkpt>
      <trkpt lat="44.72114" lon="6.92237">
        <ele>2348</ele>
        <time>2021-11-19T08:16:29Z</time>
      </trkpt>
      <trkpt lat="44.72113" lon="6.92238">
        <ele>2348</ele>
        <time>2021-11-19T08:16:31Z</time>
      </trkpt>
      <trkpt lat="44.72114" lon="6.9224">
        <ele>2348</ele>
        <time>2021-11-19T08:16:34Z</time>
      </trkpt>
      <trkpt lat="44.72114" lon="6.92246">
        <ele>2349</ele>
        <time>2021-11-19T08:16:40Z</time>
      </trkpt>
      <trkpt lat="44.72113" lon="6.92248">
        <ele>2350</ele>
        <time>2021-11-19T08:16:42Z</time>
      </trkpt>
      <trkpt lat="44.72111" lon="6.92254">
        <ele>2351</ele>
        <time>2021-11-19T08:16:47Z</time>
      </trkpt>
      <trkpt lat="44.72108" lon="6.92262">
        <ele>2353</ele>
        <time>2021-11-19T08:16:55Z</time>
      </trkpt>
      <trkpt lat="44.72107" lon="6.92264">
        <ele>2353</ele>
        <time>2021-11-19T08:16:58Z</time>
      </trkpt>
      <trkpt lat="44.72108" lon="6.92266">
        <ele>2354</ele>
        <time>2021-11-19T08:17:01Z</time>
      </trkpt>
      <trkpt lat="44.72107" lon="6.9227">
        <ele>2354</ele>
        <time>2021-11-19T08:17:05Z</time>
      </trkpt>
      <trkpt lat="44.72104" lon="6.9228">
        <ele>2357</ele>
        <time>2021-11-19T08:17:15Z</time>
      </trkpt>
      <trkpt lat="44.72107" lon="6.92287">
        <ele>2359</ele>
        <time>2021-11-19T08:17:24Z</time>
      </trkpt>
      <trkpt lat="44.72108" lon="6.92293">
        <ele>2359</ele>
        <time>2021-11-19T08:17:31Z</time>
      </trkpt>
      <trkpt lat="44.72107" lon="6.92296">
        <ele>2360</ele>
        <time>2021-11-19T08:17:35Z</time>
      </trkpt>
      <trkpt lat="44.72108" lon="6.92298">
        <ele>2360</ele>
        <time>2021-11-19T08:17:38Z</time>
      </trkpt>
      <trkpt lat="44.7211" lon="6.92304">
        <ele>2360</ele>
        <time>2021-11-19T08:17:44Z</time>
      </trkpt>
      <trkpt lat="44.72114" lon="6.9232">
        <ele>2359</ele>
        <time>2021-11-19T08:17:58Z</time>
      </trkpt>
      <trkpt lat="44.72115" lon="6.92323">
        <ele>2359</ele>
        <time>2021-11-19T08:18:00Z</time>
      </trkpt>
      <trkpt lat="44.72114" lon="6.92325">
        <ele>2360</ele>
        <time>2021-11-19T08:18:03Z</time>
      </trkpt>
      <trkpt lat="44.72113" lon="6.92327">
        <ele>2360</ele>
        <time>2021-11-19T08:18:08Z</time>
      </trkpt>
      <trkpt lat="44.72111" lon="6.92328">
        <ele>2361</ele>
        <time>2021-11-19T08:18:12Z</time>
      </trkpt>
      <trkpt lat="44.7211" lon="6.92331">
        <ele>2362</ele>
        <time>2021-11-19T08:18:16Z</time>
      </trkpt>
      <trkpt lat="44.72109" lon="6.92333">
        <ele>2362</ele>
        <time>2021-11-19T08:18:18Z</time>
      </trkpt>
      <trkpt lat="44.72108" lon="6.92336">
        <ele>2362</ele>
        <time>2021-11-19T08:18:20Z</time>
      </trkpt>
      <trkpt lat="44.72107" lon="6.9234">
        <ele>2363</ele>
        <time>2021-11-19T08:18:25Z</time>
      </trkpt>
      <trkpt lat="44.72106" lon="6.92343">
        <ele>2363</ele>
        <time>2021-11-19T08:18:28Z</time>
      </trkpt>
      <trkpt lat="44.72106" lon="6.92346">
        <ele>2363</ele>
        <time>2021-11-19T08:18:31Z</time>
      </trkpt>
      <trkpt lat="44.72105" lon="6.92349">
        <ele>2363</ele>
        <time>2021-11-19T08:18:34Z</time>
      </trkpt>
      <trkpt lat="44.72105" lon="6.92354">
        <ele>2364</ele>
        <time>2021-11-19T08:18:38Z</time>
      </trkpt>
      <trkpt lat="44.72105" lon="6.9236">
        <ele>2364</ele>
        <time>2021-11-19T08:18:43Z</time>
      </trkpt>
      <trkpt lat="44.72105" lon="6.92362">
        <ele>2364</ele>
        <time>2021-11-19T08:18:46Z</time>
      </trkpt>
      <trkpt lat="44.72103" lon="6.9237">
        <ele>2365</ele>
        <time>2021-11-19T08:18:56Z</time>
      </trkpt>
      <trkpt lat="44.72101" lon="6.92375">
        <ele>2365</ele>
        <time>2021-11-19T08:19:00Z</time>
      </trkpt>
      <trkpt lat="44.72102" lon="6.92378">
        <ele>2365</ele>
        <time>2021-11-19T08:19:03Z</time>
      </trkpt>
      <trkpt lat="44.72102" lon="6.92386">
        <ele>2366</ele>
        <time>2021-11-19T08:19:12Z</time>
      </trkpt>
      <trkpt lat="44.72099" lon="6.92398">
        <ele>2369</ele>
        <time>2021-11-19T08:19:24Z</time>
      </trkpt>
      <trkpt lat="44.72098" lon="6.92401">
        <ele>2369</ele>
        <time>2021-11-19T08:19:26Z</time>
      </trkpt>
      <trkpt lat="44.72096" lon="6.92407">
        <ele>2370</ele>
        <time>2021-11-19T08:19:33Z</time>
      </trkpt>
      <trkpt lat="44.72094" lon="6.92409">
        <ele>2370</ele>
        <time>2021-11-19T08:19:36Z</time>
      </trkpt>
      <trkpt lat="44.72094" lon="6.92412">
        <ele>2371</ele>
        <time>2021-11-19T08:19:39Z</time>
      </trkpt>
      <trkpt lat="44.72092" lon="6.92416">
        <ele>2372</ele>
        <time>2021-11-19T08:19:42Z</time>
      </trkpt>
      <trkpt lat="44.72092" lon="6.92421">
        <ele>2373</ele>
        <time>2021-11-19T08:19:46Z</time>
      </trkpt>
      <trkpt lat="44.72091" lon="6.92423">
        <ele>2374</ele>
        <time>2021-11-19T08:19:48Z</time>
      </trkpt>
      <trkpt lat="44.7209" lon="6.92425">
        <ele>2375</ele>
        <time>2021-11-19T08:19:50Z</time>
      </trkpt>
      <trkpt lat="44.72089" lon="6.92427">
        <ele>2375</ele>
        <time>2021-11-19T08:19:52Z</time>
      </trkpt>
      <trkpt lat="44.72089" lon="6.92429">
        <ele>2376</ele>
        <time>2021-11-19T08:19:54Z</time>
      </trkpt>
      <trkpt lat="44.72088" lon="6.92434">
        <ele>2377</ele>
        <time>2021-11-19T08:19:58Z</time>
      </trkpt>
      <trkpt lat="44.72087" lon="6.92437">
        <ele>2377</ele>
        <time>2021-11-19T08:20:01Z</time>
      </trkpt>
      <trkpt lat="44.72086" lon="6.92443">
        <ele>2378</ele>
        <time>2021-11-19T08:20:06Z</time>
      </trkpt>
      <trkpt lat="44.72085" lon="6.92445">
        <ele>2379</ele>
        <time>2021-11-19T08:20:08Z</time>
      </trkpt>
      <trkpt lat="44.72085" lon="6.92447">
        <ele>2379</ele>
        <time>2021-11-19T08:20:11Z</time>
      </trkpt>
      <trkpt lat="44.72084" lon="6.92451">
        <ele>2380</ele>
        <time>2021-11-19T08:20:15Z</time>
      </trkpt>
      <trkpt lat="44.72084" lon="6.92454">
        <ele>2380</ele>
        <time>2021-11-19T08:20:18Z</time>
      </trkpt>
      <trkpt lat="44.72083" lon="6.92456">
        <ele>2380</ele>
        <time>2021-11-19T08:20:20Z</time>
      </trkpt>
      <trkpt lat="44.72082" lon="6.92459">
        <ele>2381</ele>
        <time>2021-11-19T08:20:22Z</time>
      </trkpt>
      <trkpt lat="44.7208" lon="6.92475">
        <ele>2379</ele>
        <time>2021-11-19T08:20:37Z</time>
      </trkpt>
      <trkpt lat="44.72078" lon="6.92481">
        <ele>2378</ele>
        <time>2021-11-19T08:20:41Z</time>
      </trkpt>
      <trkpt lat="44.72075" lon="6.92486">
        <ele>2379</ele>
        <time>2021-11-19T08:20:46Z</time>
      </trkpt>
      <trkpt lat="44.72074" lon="6.92488">
        <ele>2379</ele>
        <time>2021-11-19T08:20:49Z</time>
      </trkpt>
      <trkpt lat="44.72076" lon="6.92499">
        <ele>2381</ele>
        <time>2021-11-19T08:20:59Z</time>
      </trkpt>
      <trkpt lat="44.72075" lon="6.92501">
        <ele>2381</ele>
        <time>2021-11-19T08:21:01Z</time>
      </trkpt>
      <trkpt lat="44.72073" lon="6.92505">
        <ele>2382</ele>
        <time>2021-11-19T08:21:05Z</time>
      </trkpt>
      <trkpt lat="44.72072" lon="6.9251">
        <ele>2382</ele>
        <time>2021-11-19T08:21:10Z</time>
      </trkpt>
      <trkpt lat="44.72071" lon="6.92512">
        <ele>2383</ele>
        <time>2021-11-19T08:21:12Z</time>
      </trkpt>
      <trkpt lat="44.72071" lon="6.92515">
        <ele>2383</ele>
        <time>2021-11-19T08:21:15Z</time>
      </trkpt>
      <trkpt lat="44.72071" lon="6.92517">
        <ele>2383</ele>
        <time>2021-11-19T08:21:18Z</time>
      </trkpt>
      <trkpt lat="44.72071" lon="6.92519">
        <ele>2383</ele>
        <time>2021-11-19T08:21:20Z</time>
      </trkpt>
      <trkpt lat="44.7207" lon="6.92522">
        <ele>2383</ele>
        <time>2021-11-19T08:21:22Z</time>
      </trkpt>
      <trkpt lat="44.7207" lon="6.92524">
        <ele>2384</ele>
        <time>2021-11-19T08:21:24Z</time>
      </trkpt>
      <trkpt lat="44.7207" lon="6.9253">
        <ele>2384</ele>
        <time>2021-11-19T08:21:29Z</time>
      </trkpt>
      <trkpt lat="44.72068" lon="6.92538">
        <ele>2385</ele>
        <time>2021-11-19T08:21:36Z</time>
      </trkpt>
      <trkpt lat="44.72068" lon="6.9254">
        <ele>2385</ele>
        <time>2021-11-19T08:21:39Z</time>
      </trkpt>
      <trkpt lat="44.72067" lon="6.92543">
        <ele>2386</ele>
        <time>2021-11-19T08:21:42Z</time>
      </trkpt>
      <trkpt lat="44.72066" lon="6.92545">
        <ele>2386</ele>
        <time>2021-11-19T08:21:44Z</time>
      </trkpt>
      <trkpt lat="44.72066" lon="6.92548">
        <ele>2386</ele>
        <time>2021-11-19T08:21:46Z</time>
      </trkpt>
      <trkpt lat="44.72063" lon="6.92556">
        <ele>2386</ele>
        <time>2021-11-19T08:21:54Z</time>
      </trkpt>
      <trkpt lat="44.72062" lon="6.92561">
        <ele>2386</ele>
        <time>2021-11-19T08:21:59Z</time>
      </trkpt>
      <trkpt lat="44.72058" lon="6.9257">
        <ele>2387</ele>
        <time>2021-11-19T08:22:07Z</time>
      </trkpt>
      <trkpt lat="44.72058" lon="6.92572">
        <ele>2388</ele>
        <time>2021-11-19T08:22:09Z</time>
      </trkpt>
      <trkpt lat="44.72058" lon="6.92575">
        <ele>2388</ele>
        <time>2021-11-19T08:22:12Z</time>
      </trkpt>
      <trkpt lat="44.72057" lon="6.92579">
        <ele>2389</ele>
        <time>2021-11-19T08:22:17Z</time>
      </trkpt>
      <trkpt lat="44.72056" lon="6.92582">
        <ele>2390</ele>
        <time>2021-11-19T08:22:19Z</time>
      </trkpt>
      <trkpt lat="44.72055" lon="6.92587">
        <ele>2390</ele>
        <time>2021-11-19T08:22:27Z</time>
      </trkpt>
      <trkpt lat="44.72055" lon="6.9259">
        <ele>2391</ele>
        <time>2021-11-19T08:22:29Z</time>
      </trkpt>
      <trkpt lat="44.72055" lon="6.92593">
        <ele>2391</ele>
        <time>2021-11-19T08:22:32Z</time>
      </trkpt>
      <trkpt lat="44.72055" lon="6.92596">
        <ele>2392</ele>
        <time>2021-11-19T08:22:34Z</time>
      </trkpt>
      <trkpt lat="44.72053" lon="6.92614">
        <ele>2393</ele>
        <time>2021-11-19T08:22:51Z</time>
      </trkpt>
      <trkpt lat="44.72053" lon="6.92617">
        <ele>2393</ele>
        <time>2021-11-19T08:22:53Z</time>
      </trkpt>
      <trkpt lat="44.72054" lon="6.92618">
        <ele>2394</ele>
        <time>2021-11-19T08:23:00Z</time>
      </trkpt>
      <trkpt lat="44.72051" lon="6.92625">
        <ele>2394</ele>
        <time>2021-11-19T08:23:12Z</time>
      </trkpt>
      <trkpt lat="44.72051" lon="6.9263">
        <ele>2394</ele>
        <time>2021-11-19T08:23:16Z</time>
      </trkpt>
      <trkpt lat="44.7205" lon="6.92633">
        <ele>2394</ele>
        <time>2021-11-19T08:23:18Z</time>
      </trkpt>
      <trkpt lat="44.72049" lon="6.92635">
        <ele>2395</ele>
        <time>2021-11-19T08:23:20Z</time>
      </trkpt>
      <trkpt lat="44.72048" lon="6.92638">
        <ele>2395</ele>
        <time>2021-11-19T08:23:22Z</time>
      </trkpt>
      <trkpt lat="44.72048" lon="6.92641">
        <ele>2395</ele>
        <time>2021-11-19T08:23:24Z</time>
      </trkpt>
      <trkpt lat="44.72047" lon="6.92643">
        <ele>2395</ele>
        <time>2021-11-19T08:23:26Z</time>
      </trkpt>
      <trkpt lat="44.72047" lon="6.92646">
        <ele>2395</ele>
        <time>2021-11-19T08:23:29Z</time>
      </trkpt>
      <trkpt lat="44.72047" lon="6.92648">
        <ele>2395</ele>
        <time>2021-11-19T08:23:33Z</time>
      </trkpt>
      <trkpt lat="44.72045" lon="6.92648">
        <ele>2395</ele>
        <time>2021-11-19T08:23:38Z</time>
      </trkpt>
      <trkpt lat="44.72045" lon="6.92651">
        <ele>2395</ele>
        <time>2021-11-19T08:23:45Z</time>
      </trkpt>
      <trkpt lat="44.72047" lon="6.92654">
        <ele>2395</ele>
        <time>2021-11-19T08:23:48Z</time>
      </trkpt>
      <trkpt lat="44.72047" lon="6.92656">
        <ele>2395</ele>
        <time>2021-11-19T08:23:51Z</time>
      </trkpt>
      <trkpt lat="44.72046" lon="6.92659">
        <ele>2395</ele>
        <time>2021-11-19T08:23:54Z</time>
      </trkpt>
      <trkpt lat="44.72046" lon="6.92662">
        <ele>2395</ele>
        <time>2021-11-19T08:23:56Z</time>
      </trkpt>
      <trkpt lat="44.72045" lon="6.92666">
        <ele>2394</ele>
        <time>2021-11-19T08:23:59Z</time>
      </trkpt>
      <trkpt lat="44.72045" lon="6.92669">
        <ele>2394</ele>
        <time>2021-11-19T08:24:02Z</time>
      </trkpt>
      <trkpt lat="44.72045" lon="6.92672">
        <ele>2394</ele>
        <time>2021-11-19T08:24:05Z</time>
      </trkpt>
      <trkpt lat="44.72044" lon="6.92675">
        <ele>2394</ele>
        <time>2021-11-19T08:24:08Z</time>
      </trkpt>
      <trkpt lat="44.72043" lon="6.92681">
        <ele>2394</ele>
        <time>2021-11-19T08:24:14Z</time>
      </trkpt>
      <trkpt lat="44.72043" lon="6.92683">
        <ele>2394</ele>
        <time>2021-11-19T08:24:16Z</time>
      </trkpt>
      <trkpt lat="44.72043" lon="6.92686">
        <ele>2394</ele>
        <time>2021-11-19T08:24:19Z</time>
      </trkpt>
      <trkpt lat="44.72043" lon="6.92689">
        <ele>2395</ele>
        <time>2021-11-19T08:24:22Z</time>
      </trkpt>
      <trkpt lat="44.7204" lon="6.92694">
        <ele>2395</ele>
        <time>2021-11-19T08:24:27Z</time>
      </trkpt>
      <trkpt lat="44.72039" lon="6.92696">
        <ele>2396</ele>
        <time>2021-11-19T08:24:30Z</time>
      </trkpt>
      <trkpt lat="44.72038" lon="6.92703">
        <ele>2398</ele>
        <time>2021-11-19T08:24:37Z</time>
      </trkpt>
      <trkpt lat="44.72039" lon="6.92705">
        <ele>2399</ele>
        <time>2021-11-19T08:24:40Z</time>
      </trkpt>
      <trkpt lat="44.72039" lon="6.92711">
        <ele>2399</ele>
        <time>2021-11-19T08:24:47Z</time>
      </trkpt>
      <trkpt lat="44.72039" lon="6.92714">
        <ele>2399</ele>
        <time>2021-11-19T08:24:50Z</time>
      </trkpt>
      <trkpt lat="44.72039" lon="6.92716">
        <ele>2400</ele>
        <time>2021-11-19T08:24:52Z</time>
      </trkpt>
      <trkpt lat="44.72039" lon="6.9272">
        <ele>2400</ele>
        <time>2021-11-19T08:24:55Z</time>
      </trkpt>
      <trkpt lat="44.72039" lon="6.92722">
        <ele>2400</ele>
        <time>2021-11-19T08:24:58Z</time>
      </trkpt>
      <trkpt lat="44.72041" lon="6.92726">
        <ele>2401</ele>
        <time>2021-11-19T08:25:05Z</time>
      </trkpt>
      <trkpt lat="44.72041" lon="6.92729">
        <ele>2401</ele>
        <time>2021-11-19T08:25:07Z</time>
      </trkpt>
      <trkpt lat="44.72042" lon="6.92731">
        <ele>2401</ele>
        <time>2021-11-19T08:25:09Z</time>
      </trkpt>
      <trkpt lat="44.72043" lon="6.92739">
        <ele>2402</ele>
        <time>2021-11-19T08:25:18Z</time>
      </trkpt>
      <trkpt lat="44.7204" lon="6.92747">
        <ele>2402</ele>
        <time>2021-11-19T08:25:26Z</time>
      </trkpt>
      <trkpt lat="44.72039" lon="6.92752">
        <ele>2403</ele>
        <time>2021-11-19T08:25:31Z</time>
      </trkpt>
      <trkpt lat="44.7204" lon="6.92755">
        <ele>2403</ele>
        <time>2021-11-19T08:25:34Z</time>
      </trkpt>
      <trkpt lat="44.7204" lon="6.92757">
        <ele>2403</ele>
        <time>2021-11-19T08:25:37Z</time>
      </trkpt>
      <trkpt lat="44.72041" lon="6.9276">
        <ele>2404</ele>
        <time>2021-11-19T08:25:39Z</time>
      </trkpt>
      <trkpt lat="44.72041" lon="6.92762">
        <ele>2404</ele>
        <time>2021-11-19T08:25:42Z</time>
      </trkpt>
      <trkpt lat="44.7204" lon="6.92772">
        <ele>2405</ele>
        <time>2021-11-19T08:25:49Z</time>
      </trkpt>
      <trkpt lat="44.7204" lon="6.92775">
        <ele>2405</ele>
        <time>2021-11-19T08:25:51Z</time>
      </trkpt>
      <trkpt lat="44.72041" lon="6.9278">
        <ele>2406</ele>
        <time>2021-11-19T08:25:56Z</time>
      </trkpt>
      <trkpt lat="44.72041" lon="6.92782">
        <ele>2408</ele>
        <time>2021-11-19T08:25:59Z</time>
      </trkpt>
      <trkpt lat="44.7204" lon="6.92785">
        <ele>2408</ele>
        <time>2021-11-19T08:26:03Z</time>
      </trkpt>
      <trkpt lat="44.72041" lon="6.92788">
        <ele>2410</ele>
        <time>2021-11-19T08:26:06Z</time>
      </trkpt>
      <trkpt lat="44.72041" lon="6.92791">
        <ele>2410</ele>
        <time>2021-11-19T08:26:09Z</time>
      </trkpt>
      <trkpt lat="44.72041" lon="6.92793">
        <ele>2410</ele>
        <time>2021-11-19T08:26:11Z</time>
      </trkpt>
      <trkpt lat="44.72041" lon="6.92796">
        <ele>2411</ele>
        <time>2021-11-19T08:26:14Z</time>
      </trkpt>
      <trkpt lat="44.72041" lon="6.92798">
        <ele>2412</ele>
        <time>2021-11-19T08:26:17Z</time>
      </trkpt>
      <trkpt lat="44.72042" lon="6.92803">
        <ele>2412</ele>
        <time>2021-11-19T08:26:23Z</time>
      </trkpt>
      <trkpt lat="44.72041" lon="6.92813">
        <ele>2413</ele>
        <time>2021-11-19T08:26:32Z</time>
      </trkpt>
      <trkpt lat="44.7204" lon="6.92816">
        <ele>2414</ele>
        <time>2021-11-19T08:26:35Z</time>
      </trkpt>
      <trkpt lat="44.7204" lon="6.92818">
        <ele>2414</ele>
        <time>2021-11-19T08:26:38Z</time>
      </trkpt>
      <trkpt lat="44.72039" lon="6.92825">
        <ele>2414</ele>
        <time>2021-11-19T08:26:44Z</time>
      </trkpt>
      <trkpt lat="44.72041" lon="6.92827">
        <ele>2415</ele>
        <time>2021-11-19T08:26:47Z</time>
      </trkpt>
      <trkpt lat="44.72043" lon="6.92832">
        <ele>2416</ele>
        <time>2021-11-19T08:26:53Z</time>
      </trkpt>
      <trkpt lat="44.72044" lon="6.92835">
        <ele>2416</ele>
        <time>2021-11-19T08:26:56Z</time>
      </trkpt>
      <trkpt lat="44.72044" lon="6.92838">
        <ele>2416</ele>
        <time>2021-11-19T08:26:58Z</time>
      </trkpt>
      <trkpt lat="44.72045" lon="6.92841">
        <ele>2417</ele>
        <time>2021-11-19T08:27:00Z</time>
      </trkpt>
      <trkpt lat="44.72047" lon="6.92843">
        <ele>2417</ele>
        <time>2021-11-19T08:27:03Z</time>
      </trkpt>
      <trkpt lat="44.72047" lon="6.92845">
        <ele>2417</ele>
        <time>2021-11-19T08:27:05Z</time>
      </trkpt>
      <trkpt lat="44.72048" lon="6.92848">
        <ele>2417</ele>
        <time>2021-11-19T08:27:09Z</time>
      </trkpt>
      <trkpt lat="44.72048" lon="6.92851">
        <ele>2418</ele>
        <time>2021-11-19T08:27:11Z</time>
      </trkpt>
      <trkpt lat="44.72049" lon="6.92854">
        <ele>2418</ele>
        <time>2021-11-19T08:27:14Z</time>
      </trkpt>
      <trkpt lat="44.72049" lon="6.92861">
        <ele>2419</ele>
        <time>2021-11-19T08:27:20Z</time>
      </trkpt>
      <trkpt lat="44.7205" lon="6.92863">
        <ele>2419</ele>
        <time>2021-11-19T08:27:23Z</time>
      </trkpt>
      <trkpt lat="44.72052" lon="6.92868">
        <ele>2419</ele>
        <time>2021-11-19T08:27:28Z</time>
      </trkpt>
      <trkpt lat="44.72052" lon="6.92871">
        <ele>2420</ele>
        <time>2021-11-19T08:27:31Z</time>
      </trkpt>
      <trkpt lat="44.72054" lon="6.92874">
        <ele>2420</ele>
        <time>2021-11-19T08:27:35Z</time>
      </trkpt>
      <trkpt lat="44.72056" lon="6.92878">
        <ele>2422</ele>
        <time>2021-11-19T08:27:42Z</time>
      </trkpt>
      <trkpt lat="44.72056" lon="6.92881">
        <ele>2422</ele>
        <time>2021-11-19T08:27:44Z</time>
      </trkpt>
      <trkpt lat="44.72056" lon="6.92884">
        <ele>2423</ele>
        <time>2021-11-19T08:27:47Z</time>
      </trkpt>
      <trkpt lat="44.72057" lon="6.92886">
        <ele>2423</ele>
        <time>2021-11-19T08:27:52Z</time>
      </trkpt>
      <trkpt lat="44.72057" lon="6.9289">
        <ele>2424</ele>
        <time>2021-11-19T08:27:56Z</time>
      </trkpt>
      <trkpt lat="44.72057" lon="6.92893">
        <ele>2425</ele>
        <time>2021-11-19T08:28:00Z</time>
      </trkpt>
      <trkpt lat="44.72059" lon="6.92895">
        <ele>2424</ele>
        <time>2021-11-19T08:28:03Z</time>
      </trkpt>
      <trkpt lat="44.7206" lon="6.92897">
        <ele>2424</ele>
        <time>2021-11-19T08:28:05Z</time>
      </trkpt>
      <trkpt lat="44.72061" lon="6.92906">
        <ele>2423</ele>
        <time>2021-11-19T08:28:13Z</time>
      </trkpt>
      <trkpt lat="44.72062" lon="6.9291">
        <ele>2423</ele>
        <time>2021-11-19T08:28:16Z</time>
      </trkpt>
      <trkpt lat="44.72062" lon="6.92912">
        <ele>2422</ele>
        <time>2021-11-19T08:28:19Z</time>
      </trkpt>
      <trkpt lat="44.72063" lon="6.92915">
        <ele>2423</ele>
        <time>2021-11-19T08:28:23Z</time>
      </trkpt>
      <trkpt lat="44.72063" lon="6.9292">
        <ele>2423</ele>
        <time>2021-11-19T08:28:28Z</time>
      </trkpt>
      <trkpt lat="44.72065" lon="6.92926">
        <ele>2424</ele>
        <time>2021-11-19T08:28:34Z</time>
      </trkpt>
      <trkpt lat="44.72064" lon="6.92932">
        <ele>2426</ele>
        <time>2021-11-19T08:28:40Z</time>
      </trkpt>
      <trkpt lat="44.72066" lon="6.92933">
        <ele>2426</ele>
        <time>2021-11-19T08:28:44Z</time>
      </trkpt>
      <trkpt lat="44.72068" lon="6.92938">
        <ele>2426</ele>
        <time>2021-11-19T08:28:51Z</time>
      </trkpt>
      <trkpt lat="44.72068" lon="6.92941">
        <ele>2427</ele>
        <time>2021-11-19T08:28:58Z</time>
      </trkpt>
      <trkpt lat="44.72066" lon="6.92943">
        <ele>2427</ele>
        <time>2021-11-19T08:29:01Z</time>
      </trkpt>
      <trkpt lat="44.72069" lon="6.92949">
        <ele>2427</ele>
        <time>2021-11-19T08:29:07Z</time>
      </trkpt>
      <trkpt lat="44.72068" lon="6.92952">
        <ele>2427</ele>
        <time>2021-11-19T08:29:10Z</time>
      </trkpt>
      <trkpt lat="44.72069" lon="6.92955">
        <ele>2428</ele>
        <time>2021-11-19T08:29:14Z</time>
      </trkpt>
      <trkpt lat="44.7207" lon="6.92957">
        <ele>2428</ele>
        <time>2021-11-19T08:29:17Z</time>
      </trkpt>
      <trkpt lat="44.7207" lon="6.92959">
        <ele>2429</ele>
        <time>2021-11-19T08:29:19Z</time>
      </trkpt>
      <trkpt lat="44.72069" lon="6.92963">
        <ele>2429</ele>
        <time>2021-11-19T08:29:23Z</time>
      </trkpt>
      <trkpt lat="44.7207" lon="6.92966">
        <ele>2429</ele>
        <time>2021-11-19T08:29:26Z</time>
      </trkpt>
      <trkpt lat="44.72069" lon="6.92968">
        <ele>2430</ele>
        <time>2021-11-19T08:29:28Z</time>
      </trkpt>
      <trkpt lat="44.7207" lon="6.92977">
        <ele>2431</ele>
        <time>2021-11-19T08:29:36Z</time>
      </trkpt>
      <trkpt lat="44.72072" lon="6.92979">
        <ele>2432</ele>
        <time>2021-11-19T08:29:40Z</time>
      </trkpt>
      <trkpt lat="44.72073" lon="6.92981">
        <ele>2432</ele>
        <time>2021-11-19T08:29:43Z</time>
      </trkpt>
      <trkpt lat="44.72076" lon="6.92985">
        <ele>2433</ele>
        <time>2021-11-19T08:29:51Z</time>
      </trkpt>
      <trkpt lat="44.72077" lon="6.92988">
        <ele>2433</ele>
        <time>2021-11-19T08:29:54Z</time>
      </trkpt>
      <trkpt lat="44.72075" lon="6.92992">
        <ele>2433</ele>
        <time>2021-11-19T08:29:57Z</time>
      </trkpt>
      <trkpt lat="44.72075" lon="6.92996">
        <ele>2434</ele>
        <time>2021-11-19T08:30:00Z</time>
      </trkpt>
      <trkpt lat="44.72075" lon="6.92999">
        <ele>2434</ele>
        <time>2021-11-19T08:30:02Z</time>
      </trkpt>
      <trkpt lat="44.72074" lon="6.93002">
        <ele>2434</ele>
        <time>2021-11-19T08:30:04Z</time>
      </trkpt>
      <trkpt lat="44.72073" lon="6.93005">
        <ele>2435</ele>
        <time>2021-11-19T08:30:06Z</time>
      </trkpt>
      <trkpt lat="44.72073" lon="6.93008">
        <ele>2435</ele>
        <time>2021-11-19T08:30:08Z</time>
      </trkpt>
      <trkpt lat="44.72073" lon="6.93011">
        <ele>2436</ele>
        <time>2021-11-19T08:30:11Z</time>
      </trkpt>
      <trkpt lat="44.72072" lon="6.93014">
        <ele>2436</ele>
        <time>2021-11-19T08:30:15Z</time>
      </trkpt>
      <trkpt lat="44.72073" lon="6.93017">
        <ele>2437</ele>
        <time>2021-11-19T08:30:18Z</time>
      </trkpt>
      <trkpt lat="44.72074" lon="6.93019">
        <ele>2437</ele>
        <time>2021-11-19T08:30:21Z</time>
      </trkpt>
      <trkpt lat="44.72075" lon="6.93022">
        <ele>2437</ele>
        <time>2021-11-19T08:30:26Z</time>
      </trkpt>
      <trkpt lat="44.72075" lon="6.93025">
        <ele>2437</ele>
        <time>2021-11-19T08:30:29Z</time>
      </trkpt>
      <trkpt lat="44.72074" lon="6.93028">
        <ele>2438</ele>
        <time>2021-11-19T08:30:33Z</time>
      </trkpt>
      <trkpt lat="44.72075" lon="6.93033">
        <ele>2439</ele>
        <time>2021-11-19T08:30:38Z</time>
      </trkpt>
      <trkpt lat="44.72075" lon="6.93036">
        <ele>2440</ele>
        <time>2021-11-19T08:30:41Z</time>
      </trkpt>
      <trkpt lat="44.72074" lon="6.93039">
        <ele>2441</ele>
        <time>2021-11-19T08:30:44Z</time>
      </trkpt>
      <trkpt lat="44.72073" lon="6.93041">
        <ele>2442</ele>
        <time>2021-11-19T08:30:49Z</time>
      </trkpt>
      <trkpt lat="44.72074" lon="6.93044">
        <ele>2444</ele>
        <time>2021-11-19T08:30:55Z</time>
      </trkpt>
      <trkpt lat="44.72075" lon="6.9305">
        <ele>2445</ele>
        <time>2021-11-19T08:31:01Z</time>
      </trkpt>
      <trkpt lat="44.72075" lon="6.93053">
        <ele>2445</ele>
        <time>2021-11-19T08:31:03Z</time>
      </trkpt>
      <trkpt lat="44.72075" lon="6.93055">
        <ele>2446</ele>
        <time>2021-11-19T08:31:06Z</time>
      </trkpt>
      <trkpt lat="44.72075" lon="6.93058">
        <ele>2447</ele>
        <time>2021-11-19T08:31:09Z</time>
      </trkpt>
      <trkpt lat="44.72075" lon="6.93067">
        <ele>2449</ele>
        <time>2021-11-19T08:31:20Z</time>
      </trkpt>
      <trkpt lat="44.72075" lon="6.93069">
        <ele>2449</ele>
        <time>2021-11-19T08:31:22Z</time>
      </trkpt>
      <trkpt lat="44.72074" lon="6.93072">
        <ele>2450</ele>
        <time>2021-11-19T08:31:25Z</time>
      </trkpt>
      <trkpt lat="44.72075" lon="6.93079">
        <ele>2452</ele>
        <time>2021-11-19T08:31:30Z</time>
      </trkpt>
      <trkpt lat="44.72074" lon="6.93082">
        <ele>2452</ele>
        <time>2021-11-19T08:31:33Z</time>
      </trkpt>
      <trkpt lat="44.72073" lon="6.93085">
        <ele>2453</ele>
        <time>2021-11-19T08:31:36Z</time>
      </trkpt>
      <trkpt lat="44.72072" lon="6.93089">
        <ele>2453</ele>
        <time>2021-11-19T08:31:40Z</time>
      </trkpt>
      <trkpt lat="44.72074" lon="6.93091">
        <ele>2455</ele>
        <time>2021-11-19T08:31:44Z</time>
      </trkpt>
      <trkpt lat="44.72074" lon="6.93094">
        <ele>2455</ele>
        <time>2021-11-19T08:31:47Z</time>
      </trkpt>
      <trkpt lat="44.72073" lon="6.93096">
        <ele>2456</ele>
        <time>2021-11-19T08:31:49Z</time>
      </trkpt>
      <trkpt lat="44.72073" lon="6.93101">
        <ele>2457</ele>
        <time>2021-11-19T08:31:54Z</time>
      </trkpt>
      <trkpt lat="44.72073" lon="6.93111">
        <ele>2458</ele>
        <time>2021-11-19T08:32:04Z</time>
      </trkpt>
      <trkpt lat="44.72072" lon="6.93116">
        <ele>2459</ele>
        <time>2021-11-19T08:32:08Z</time>
      </trkpt>
      <trkpt lat="44.72071" lon="6.93119">
        <ele>2460</ele>
        <time>2021-11-19T08:32:10Z</time>
      </trkpt>
      <trkpt lat="44.72071" lon="6.93121">
        <ele>2460</ele>
        <time>2021-11-19T08:32:13Z</time>
      </trkpt>
      <trkpt lat="44.7207" lon="6.93124">
        <ele>2460</ele>
        <time>2021-11-19T08:32:15Z</time>
      </trkpt>
      <trkpt lat="44.72069" lon="6.93127">
        <ele>2460</ele>
        <time>2021-11-19T08:32:19Z</time>
      </trkpt>
      <trkpt lat="44.7207" lon="6.93133">
        <ele>2460</ele>
        <time>2021-11-19T08:32:26Z</time>
      </trkpt>
      <trkpt lat="44.7207" lon="6.93138">
        <ele>2461</ele>
        <time>2021-11-19T08:32:32Z</time>
      </trkpt>
      <trkpt lat="44.7207" lon="6.93142">
        <ele>2460</ele>
        <time>2021-11-19T08:32:35Z</time>
      </trkpt>
      <trkpt lat="44.72069" lon="6.93147">
        <ele>2461</ele>
        <time>2021-11-19T08:32:40Z</time>
      </trkpt>
      <trkpt lat="44.7207" lon="6.9315">
        <ele>2461</ele>
        <time>2021-11-19T08:32:44Z</time>
      </trkpt>
      <trkpt lat="44.72072" lon="6.93154">
        <ele>2461</ele>
        <time>2021-11-19T08:32:50Z</time>
      </trkpt>
      <trkpt lat="44.72072" lon="6.93163">
        <ele>2462</ele>
        <time>2021-11-19T08:32:59Z</time>
      </trkpt>
      <trkpt lat="44.72072" lon="6.93166">
        <ele>2462</ele>
        <time>2021-11-19T08:33:03Z</time>
      </trkpt>
      <trkpt lat="44.72072" lon="6.9317">
        <ele>2462</ele>
        <time>2021-11-19T08:33:06Z</time>
      </trkpt>
      <trkpt lat="44.72072" lon="6.93173">
        <ele>2462</ele>
        <time>2021-11-19T08:33:09Z</time>
      </trkpt>
      <trkpt lat="44.72072" lon="6.93176">
        <ele>2462</ele>
        <time>2021-11-19T08:33:12Z</time>
      </trkpt>
      <trkpt lat="44.72071" lon="6.93179">
        <ele>2462</ele>
        <time>2021-11-19T08:33:14Z</time>
      </trkpt>
      <trkpt lat="44.72071" lon="6.93183">
        <ele>2462</ele>
        <time>2021-11-19T08:33:18Z</time>
      </trkpt>
      <trkpt lat="44.72072" lon="6.93203">
        <ele>2462</ele>
        <time>2021-11-19T08:33:36Z</time>
      </trkpt>
      <trkpt lat="44.72073" lon="6.93206">
        <ele>2462</ele>
        <time>2021-11-19T08:33:40Z</time>
      </trkpt>
      <trkpt lat="44.72075" lon="6.93211">
        <ele>2462</ele>
        <time>2021-11-19T08:33:46Z</time>
      </trkpt>
      <trkpt lat="44.72075" lon="6.93215">
        <ele>2463</ele>
        <time>2021-11-19T08:33:50Z</time>
      </trkpt>
      <trkpt lat="44.72078" lon="6.93221">
        <ele>2464</ele>
        <time>2021-11-19T08:34:01Z</time>
      </trkpt>
      <trkpt lat="44.72078" lon="6.93224">
        <ele>2464</ele>
        <time>2021-11-19T08:34:04Z</time>
      </trkpt>
      <trkpt lat="44.72079" lon="6.93226">
        <ele>2465</ele>
        <time>2021-11-19T08:34:07Z</time>
      </trkpt>
      <trkpt lat="44.72079" lon="6.93229">
        <ele>2466</ele>
        <time>2021-11-19T08:34:10Z</time>
      </trkpt>
      <trkpt lat="44.72078" lon="6.93232">
        <ele>2466</ele>
        <time>2021-11-19T08:34:13Z</time>
      </trkpt>
      <trkpt lat="44.72078" lon="6.93235">
        <ele>2467</ele>
        <time>2021-11-19T08:34:17Z</time>
      </trkpt>
      <trkpt lat="44.72081" lon="6.93243">
        <ele>2468</ele>
        <time>2021-11-19T08:34:25Z</time>
      </trkpt>
      <trkpt lat="44.72081" lon="6.93246">
        <ele>2468</ele>
        <time>2021-11-19T08:34:27Z</time>
      </trkpt>
      <trkpt lat="44.7208" lon="6.93248">
        <ele>2470</ele>
        <time>2021-11-19T08:34:31Z</time>
      </trkpt>
      <trkpt lat="44.72081" lon="6.93251">
        <ele>2470</ele>
        <time>2021-11-19T08:34:34Z</time>
      </trkpt>
      <trkpt lat="44.72082" lon="6.93254">
        <ele>2471</ele>
        <time>2021-11-19T08:34:37Z</time>
      </trkpt>
      <trkpt lat="44.72081" lon="6.93256">
        <ele>2471</ele>
        <time>2021-11-19T08:34:39Z</time>
      </trkpt>
      <trkpt lat="44.72081" lon="6.93259">
        <ele>2472</ele>
        <time>2021-11-19T08:34:44Z</time>
      </trkpt>
      <trkpt lat="44.72078" lon="6.93267">
        <ele>2475</ele>
        <time>2021-11-19T08:34:53Z</time>
      </trkpt>
      <trkpt lat="44.72077" lon="6.9327">
        <ele>2476</ele>
        <time>2021-11-19T08:34:55Z</time>
      </trkpt>
      <trkpt lat="44.72077" lon="6.93272">
        <ele>2477</ele>
        <time>2021-11-19T08:34:57Z</time>
      </trkpt>
      <trkpt lat="44.72077" lon="6.93275">
        <ele>2478</ele>
        <time>2021-11-19T08:35:00Z</time>
      </trkpt>
      <trkpt lat="44.72077" lon="6.93277">
        <ele>2478</ele>
        <time>2021-11-19T08:35:03Z</time>
      </trkpt>
      <trkpt lat="44.72078" lon="6.9328">
        <ele>2479</ele>
        <time>2021-11-19T08:35:05Z</time>
      </trkpt>
      <trkpt lat="44.72078" lon="6.93283">
        <ele>2480</ele>
        <time>2021-11-19T08:35:08Z</time>
      </trkpt>
      <trkpt lat="44.72079" lon="6.93288">
        <ele>2481</ele>
        <time>2021-11-19T08:35:15Z</time>
      </trkpt>
      <trkpt lat="44.72081" lon="6.93296">
        <ele>2482</ele>
        <time>2021-11-19T08:35:23Z</time>
      </trkpt>
      <trkpt lat="44.72082" lon="6.93298">
        <ele>2482</ele>
        <time>2021-11-19T08:35:26Z</time>
      </trkpt>
      <trkpt lat="44.72083" lon="6.933">
        <ele>2482</ele>
        <time>2021-11-19T08:35:29Z</time>
      </trkpt>
      <trkpt lat="44.72084" lon="6.93303">
        <ele>2483</ele>
        <time>2021-11-19T08:35:32Z</time>
      </trkpt>
      <trkpt lat="44.72082" lon="6.93305">
        <ele>2483</ele>
        <time>2021-11-19T08:35:35Z</time>
      </trkpt>
      <trkpt lat="44.72082" lon="6.93308">
        <ele>2483</ele>
        <time>2021-11-19T08:35:38Z</time>
      </trkpt>
      <trkpt lat="44.72083" lon="6.93311">
        <ele>2483</ele>
        <time>2021-11-19T08:35:42Z</time>
      </trkpt>
      <trkpt lat="44.72084" lon="6.93314">
        <ele>2483</ele>
        <time>2021-11-19T08:35:45Z</time>
      </trkpt>
      <trkpt lat="44.72085" lon="6.93318">
        <ele>2483</ele>
        <time>2021-11-19T08:35:49Z</time>
      </trkpt>
      <trkpt lat="44.72085" lon="6.93324">
        <ele>2482</ele>
        <time>2021-11-19T08:35:55Z</time>
      </trkpt>
      <trkpt lat="44.72086" lon="6.93328">
        <ele>2482</ele>
        <time>2021-11-19T08:35:57Z</time>
      </trkpt>
      <trkpt lat="44.72086" lon="6.93331">
        <ele>2482</ele>
        <time>2021-11-19T08:36:00Z</time>
      </trkpt>
      <trkpt lat="44.72087" lon="6.93334">
        <ele>2483</ele>
        <time>2021-11-19T08:36:03Z</time>
      </trkpt>
      <trkpt lat="44.72087" lon="6.93337">
        <ele>2483</ele>
        <time>2021-11-19T08:36:07Z</time>
      </trkpt>
      <trkpt lat="44.72088" lon="6.93339">
        <ele>2483</ele>
        <time>2021-11-19T08:36:09Z</time>
      </trkpt>
      <trkpt lat="44.72088" lon="6.93345">
        <ele>2484</ele>
        <time>2021-11-19T08:36:14Z</time>
      </trkpt>
      <trkpt lat="44.7209" lon="6.93348">
        <ele>2484</ele>
        <time>2021-11-19T08:36:17Z</time>
      </trkpt>
      <trkpt lat="44.72091" lon="6.9335">
        <ele>2485</ele>
        <time>2021-11-19T08:36:20Z</time>
      </trkpt>
      <trkpt lat="44.72092" lon="6.93353">
        <ele>2485</ele>
        <time>2021-11-19T08:36:23Z</time>
      </trkpt>
      <trkpt lat="44.72093" lon="6.93356">
        <ele>2485</ele>
        <time>2021-11-19T08:36:27Z</time>
      </trkpt>
      <trkpt lat="44.72094" lon="6.93358">
        <ele>2486</ele>
        <time>2021-11-19T08:36:29Z</time>
      </trkpt>
      <trkpt lat="44.72093" lon="6.93361">
        <ele>2486</ele>
        <time>2021-11-19T08:36:31Z</time>
      </trkpt>
      <trkpt lat="44.72093" lon="6.93364">
        <ele>2487</ele>
        <time>2021-11-19T08:36:33Z</time>
      </trkpt>
      <trkpt lat="44.72093" lon="6.93366">
        <ele>2487</ele>
        <time>2021-11-19T08:36:35Z</time>
      </trkpt>
      <trkpt lat="44.72091" lon="6.93369">
        <ele>2487</ele>
        <time>2021-11-19T08:36:38Z</time>
      </trkpt>
      <trkpt lat="44.72089" lon="6.93373">
        <ele>2487</ele>
        <time>2021-11-19T08:36:43Z</time>
      </trkpt>
      <trkpt lat="44.7209" lon="6.93376">
        <ele>2487</ele>
        <time>2021-11-19T08:36:45Z</time>
      </trkpt>
      <trkpt lat="44.72089" lon="6.93378">
        <ele>2487</ele>
        <time>2021-11-19T08:36:47Z</time>
      </trkpt>
      <trkpt lat="44.72089" lon="6.93381">
        <ele>2487</ele>
        <time>2021-11-19T08:36:52Z</time>
      </trkpt>
      <trkpt lat="44.72092" lon="6.93384">
        <ele>2486</ele>
        <time>2021-11-19T08:37:02Z</time>
      </trkpt>
      <trkpt lat="44.72093" lon="6.93387">
        <ele>2487</ele>
        <time>2021-11-19T08:37:07Z</time>
      </trkpt>
      <trkpt lat="44.72094" lon="6.93389">
        <ele>2488</ele>
        <time>2021-11-19T08:37:11Z</time>
      </trkpt>
      <trkpt lat="44.72096" lon="6.93389">
        <ele>2488</ele>
        <time>2021-11-19T08:37:15Z</time>
      </trkpt>
      <trkpt lat="44.72098" lon="6.93391">
        <ele>2489</ele>
        <time>2021-11-19T08:37:18Z</time>
      </trkpt>
      <trkpt lat="44.721" lon="6.93393">
        <ele>2490</ele>
        <time>2021-11-19T08:37:22Z</time>
      </trkpt>
      <trkpt lat="44.72103" lon="6.93401">
        <ele>2492</ele>
        <time>2021-11-19T08:37:31Z</time>
      </trkpt>
      <trkpt lat="44.72105" lon="6.93402">
        <ele>2492</ele>
        <time>2021-11-19T08:37:34Z</time>
      </trkpt>
      <trkpt lat="44.72107" lon="6.93404">
        <ele>2493</ele>
        <time>2021-11-19T08:37:38Z</time>
      </trkpt>
      <trkpt lat="44.72108" lon="6.93409">
        <ele>2495</ele>
        <time>2021-11-19T08:37:45Z</time>
      </trkpt>
      <trkpt lat="44.72109" lon="6.93411">
        <ele>2496</ele>
        <time>2021-11-19T08:37:49Z</time>
      </trkpt>
      <trkpt lat="44.72111" lon="6.93413">
        <ele>2496</ele>
        <time>2021-11-19T08:37:52Z</time>
      </trkpt>
      <trkpt lat="44.72112" lon="6.93415">
        <ele>2497</ele>
        <time>2021-11-19T08:37:56Z</time>
      </trkpt>
      <trkpt lat="44.72114" lon="6.93418">
        <ele>2498</ele>
        <time>2021-11-19T08:37:59Z</time>
      </trkpt>
      <trkpt lat="44.72114" lon="6.9342">
        <ele>2499</ele>
        <time>2021-11-19T08:38:03Z</time>
      </trkpt>
      <trkpt lat="44.72114" lon="6.93423">
        <ele>2500</ele>
        <time>2021-11-19T08:38:06Z</time>
      </trkpt>
      <trkpt lat="44.72115" lon="6.93426">
        <ele>2501</ele>
        <time>2021-11-19T08:38:09Z</time>
      </trkpt>
      <trkpt lat="44.72116" lon="6.93431">
        <ele>2505</ele>
        <time>2021-11-19T08:38:19Z</time>
      </trkpt>
      <trkpt lat="44.72117" lon="6.93434">
        <ele>2507</ele>
        <time>2021-11-19T08:38:23Z</time>
      </trkpt>
      <trkpt lat="44.72118" lon="6.93436">
        <ele>2507</ele>
        <time>2021-11-19T08:38:27Z</time>
      </trkpt>
      <trkpt lat="44.72118" lon="6.93439">
        <ele>2509</ele>
        <time>2021-11-19T08:38:30Z</time>
      </trkpt>
      <trkpt lat="44.72118" lon="6.93442">
        <ele>2509</ele>
        <time>2021-11-19T08:38:34Z</time>
      </trkpt>
      <trkpt lat="44.72119" lon="6.93444">
        <ele>2509</ele>
        <time>2021-11-19T08:38:37Z</time>
      </trkpt>
      <trkpt lat="44.72119" lon="6.93447">
        <ele>2508</ele>
        <time>2021-11-19T08:38:39Z</time>
      </trkpt>
      <trkpt lat="44.7212" lon="6.93449">
        <ele>2508</ele>
        <time>2021-11-19T08:38:41Z</time>
      </trkpt>
      <trkpt lat="44.72121" lon="6.93451">
        <ele>2508</ele>
        <time>2021-11-19T08:38:45Z</time>
      </trkpt>
      <trkpt lat="44.72122" lon="6.93454">
        <ele>2508</ele>
        <time>2021-11-19T08:38:49Z</time>
      </trkpt>
      <trkpt lat="44.72123" lon="6.93456">
        <ele>2508</ele>
        <time>2021-11-19T08:38:53Z</time>
      </trkpt>
      <trkpt lat="44.72124" lon="6.93458">
        <ele>2508</ele>
        <time>2021-11-19T08:38:58Z</time>
      </trkpt>
      <trkpt lat="44.72123" lon="6.93465">
        <ele>2508</ele>
        <time>2021-11-19T08:39:10Z</time>
      </trkpt>
      <trkpt lat="44.72125" lon="6.93477">
        <ele>2506</ele>
        <time>2021-11-19T08:39:26Z</time>
      </trkpt>
      <trkpt lat="44.72125" lon="6.93479">
        <ele>2506</ele>
        <time>2021-11-19T08:39:29Z</time>
      </trkpt>
      <trkpt lat="44.72123" lon="6.93487">
        <ele>2507</ele>
        <time>2021-11-19T08:39:41Z</time>
      </trkpt>
      <trkpt lat="44.72123" lon="6.93491">
        <ele>2508</ele>
        <time>2021-11-19T08:39:44Z</time>
      </trkpt>
      <trkpt lat="44.72124" lon="6.93493">
        <ele>2508</ele>
        <time>2021-11-19T08:39:47Z</time>
      </trkpt>
      <trkpt lat="44.72124" lon="6.93495">
        <ele>2509</ele>
        <time>2021-11-19T08:39:51Z</time>
      </trkpt>
      <trkpt lat="44.72125" lon="6.93497">
        <ele>2510</ele>
        <time>2021-11-19T08:39:55Z</time>
      </trkpt>
      <trkpt lat="44.72126" lon="6.935">
        <ele>2511</ele>
        <time>2021-11-19T08:39:58Z</time>
      </trkpt>
      <trkpt lat="44.72128" lon="6.93501">
        <ele>2511</ele>
        <time>2021-11-19T08:40:03Z</time>
      </trkpt>
      <trkpt lat="44.72132" lon="6.93503">
        <ele>2512</ele>
        <time>2021-11-19T08:40:13Z</time>
      </trkpt>
      <trkpt lat="44.72135" lon="6.93504">
        <ele>2513</ele>
        <time>2021-11-19T08:40:17Z</time>
      </trkpt>
      <trkpt lat="44.72137" lon="6.93506">
        <ele>2514</ele>
        <time>2021-11-19T08:40:21Z</time>
      </trkpt>
      <trkpt lat="44.72138" lon="6.93508">
        <ele>2515</ele>
        <time>2021-11-19T08:40:24Z</time>
      </trkpt>
      <trkpt lat="44.72138" lon="6.9351">
        <ele>2517</ele>
        <time>2021-11-19T08:40:33Z</time>
      </trkpt>
      <trkpt lat="44.72139" lon="6.93514">
        <ele>2517</ele>
        <time>2021-11-19T08:40:38Z</time>
      </trkpt>
      <trkpt lat="44.7214" lon="6.93516">
        <ele>2518</ele>
        <time>2021-11-19T08:40:42Z</time>
      </trkpt>
      <trkpt lat="44.72142" lon="6.93518">
        <ele>2518</ele>
        <time>2021-11-19T08:40:46Z</time>
      </trkpt>
      <trkpt lat="44.72141" lon="6.9352">
        <ele>2518</ele>
        <time>2021-11-19T08:40:50Z</time>
      </trkpt>
      <trkpt lat="44.72141" lon="6.93523">
        <ele>2519</ele>
        <time>2021-11-19T08:40:55Z</time>
      </trkpt>
      <trkpt lat="44.72144" lon="6.93527">
        <ele>2520</ele>
        <time>2021-11-19T08:41:03Z</time>
      </trkpt>
      <trkpt lat="44.72144" lon="6.9353">
        <ele>2520</ele>
        <time>2021-11-19T08:41:06Z</time>
      </trkpt>
      <trkpt lat="44.72144" lon="6.93533">
        <ele>2520</ele>
        <time>2021-11-19T08:41:09Z</time>
      </trkpt>
      <trkpt lat="44.72144" lon="6.93536">
        <ele>2520</ele>
        <time>2021-11-19T08:41:12Z</time>
      </trkpt>
      <trkpt lat="44.72146" lon="6.93541">
        <ele>2521</ele>
        <time>2021-11-19T08:41:18Z</time>
      </trkpt>
      <trkpt lat="44.72147" lon="6.93543">
        <ele>2521</ele>
        <time>2021-11-19T08:41:21Z</time>
      </trkpt>
      <trkpt lat="44.72146" lon="6.93546">
        <ele>2522</ele>
        <time>2021-11-19T08:41:23Z</time>
      </trkpt>
      <trkpt lat="44.72145" lon="6.93549">
        <ele>2522</ele>
        <time>2021-11-19T08:41:25Z</time>
      </trkpt>
      <trkpt lat="44.72143" lon="6.93553">
        <ele>2524</ele>
        <time>2021-11-19T08:41:29Z</time>
      </trkpt>
      <trkpt lat="44.72143" lon="6.93555">
        <ele>2525</ele>
        <time>2021-11-19T08:41:33Z</time>
      </trkpt>
      <trkpt lat="44.72144" lon="6.93558">
        <ele>2525</ele>
        <time>2021-11-19T08:41:36Z</time>
      </trkpt>
      <trkpt lat="44.72142" lon="6.93566">
        <ele>2528</ele>
        <time>2021-11-19T08:41:46Z</time>
      </trkpt>
      <trkpt lat="44.72142" lon="6.93569">
        <ele>2528</ele>
        <time>2021-11-19T08:41:49Z</time>
      </trkpt>
      <trkpt lat="44.72141" lon="6.93571">
        <ele>2529</ele>
        <time>2021-11-19T08:41:52Z</time>
      </trkpt>
      <trkpt lat="44.72143" lon="6.93577">
        <ele>2530</ele>
        <time>2021-11-19T08:41:59Z</time>
      </trkpt>
      <trkpt lat="44.72144" lon="6.9358">
        <ele>2530</ele>
        <time>2021-11-19T08:42:03Z</time>
      </trkpt>
      <trkpt lat="44.72144" lon="6.93582">
        <ele>2531</ele>
        <time>2021-11-19T08:42:06Z</time>
      </trkpt>
      <trkpt lat="44.72144" lon="6.93586">
        <ele>2531</ele>
        <time>2021-11-19T08:42:09Z</time>
      </trkpt>
      <trkpt lat="44.72144" lon="6.93591">
        <ele>2532</ele>
        <time>2021-11-19T08:42:16Z</time>
      </trkpt>
      <trkpt lat="44.72144" lon="6.93602">
        <ele>2533</ele>
        <time>2021-11-19T08:42:27Z</time>
      </trkpt>
      <trkpt lat="44.72144" lon="6.93604">
        <ele>2534</ele>
        <time>2021-11-19T08:42:30Z</time>
      </trkpt>
      <trkpt lat="44.72144" lon="6.93608">
        <ele>2534</ele>
        <time>2021-11-19T08:42:33Z</time>
      </trkpt>
      <trkpt lat="44.72143" lon="6.9361">
        <ele>2534</ele>
        <time>2021-11-19T08:42:36Z</time>
      </trkpt>
      <trkpt lat="44.72144" lon="6.93616">
        <ele>2535</ele>
        <time>2021-11-19T08:42:44Z</time>
      </trkpt>
      <trkpt lat="44.72144" lon="6.93625">
        <ele>2536</ele>
        <time>2021-11-19T08:42:51Z</time>
      </trkpt>
      <trkpt lat="44.72143" lon="6.93627">
        <ele>2537</ele>
        <time>2021-11-19T08:42:54Z</time>
      </trkpt>
      <trkpt lat="44.72143" lon="6.93629">
        <ele>2537</ele>
        <time>2021-11-19T08:42:57Z</time>
      </trkpt>
      <trkpt lat="44.72143" lon="6.93631">
        <ele>2537</ele>
        <time>2021-11-19T08:43:00Z</time>
      </trkpt>
      <trkpt lat="44.72141" lon="6.93639">
        <ele>2540</ele>
        <time>2021-11-19T08:43:14Z</time>
      </trkpt>
      <trkpt lat="44.72142" lon="6.9364">
        <ele>2540</ele>
        <time>2021-11-19T08:43:17Z</time>
      </trkpt>
      <trkpt lat="44.72142" lon="6.93643">
        <ele>2540</ele>
        <time>2021-11-19T08:43:21Z</time>
      </trkpt>
      <trkpt lat="44.72141" lon="6.93645">
        <ele>2540</ele>
        <time>2021-11-19T08:43:24Z</time>
      </trkpt>
      <trkpt lat="44.72139" lon="6.9365">
        <ele>2541</ele>
        <time>2021-11-19T08:43:28Z</time>
      </trkpt>
      <trkpt lat="44.72139" lon="6.93653">
        <ele>2540</ele>
        <time>2021-11-19T08:43:31Z</time>
      </trkpt>
      <trkpt lat="44.72139" lon="6.93657">
        <ele>2540</ele>
        <time>2021-11-19T08:43:35Z</time>
      </trkpt>
      <trkpt lat="44.72138" lon="6.93664">
        <ele>2541</ele>
        <time>2021-11-19T08:43:41Z</time>
      </trkpt>
      <trkpt lat="44.72136" lon="6.93669">
        <ele>2541</ele>
        <time>2021-11-19T08:43:48Z</time>
      </trkpt>
      <trkpt lat="44.72134" lon="6.93675">
        <ele>2542</ele>
        <time>2021-11-19T08:43:53Z</time>
      </trkpt>
      <trkpt lat="44.72134" lon="6.93678">
        <ele>2542</ele>
        <time>2021-11-19T08:43:56Z</time>
      </trkpt>
      <trkpt lat="44.72134" lon="6.9368">
        <ele>2543</ele>
        <time>2021-11-19T08:44:00Z</time>
      </trkpt>
      <trkpt lat="44.72134" lon="6.93682">
        <ele>2543</ele>
        <time>2021-11-19T08:44:03Z</time>
      </trkpt>
      <trkpt lat="44.72132" lon="6.93693">
        <ele>2544</ele>
        <time>2021-11-19T08:44:14Z</time>
      </trkpt>
      <trkpt lat="44.72131" lon="6.93695">
        <ele>2544</ele>
        <time>2021-11-19T08:44:16Z</time>
      </trkpt>
      <trkpt lat="44.7213" lon="6.93697">
        <ele>2545</ele>
        <time>2021-11-19T08:44:19Z</time>
      </trkpt>
      <trkpt lat="44.72129" lon="6.93699">
        <ele>2545</ele>
        <time>2021-11-19T08:44:22Z</time>
      </trkpt>
      <trkpt lat="44.72127" lon="6.93701">
        <ele>2546</ele>
        <time>2021-11-19T08:44:24Z</time>
      </trkpt>
      <trkpt lat="44.72127" lon="6.93703">
        <ele>2547</ele>
        <time>2021-11-19T08:44:28Z</time>
      </trkpt>
      <trkpt lat="44.72127" lon="6.93706">
        <ele>2548</ele>
        <time>2021-11-19T08:44:31Z</time>
      </trkpt>
      <trkpt lat="44.72126" lon="6.93708">
        <ele>2548</ele>
        <time>2021-11-19T08:44:34Z</time>
      </trkpt>
      <trkpt lat="44.72126" lon="6.93711">
        <ele>2549</ele>
        <time>2021-11-19T08:44:37Z</time>
      </trkpt>
      <trkpt lat="44.72126" lon="6.93716">
        <ele>2551</ele>
        <time>2021-11-19T08:44:45Z</time>
      </trkpt>
      <trkpt lat="44.72126" lon="6.93719">
        <ele>2551</ele>
        <time>2021-11-19T08:44:48Z</time>
      </trkpt>
      <trkpt lat="44.72126" lon="6.93721">
        <ele>2551</ele>
        <time>2021-11-19T08:44:50Z</time>
      </trkpt>
      <trkpt lat="44.72127" lon="6.93727">
        <ele>2553</ele>
        <time>2021-11-19T08:44:58Z</time>
      </trkpt>
      <trkpt lat="44.72127" lon="6.93732">
        <ele>2554</ele>
        <time>2021-11-19T08:45:03Z</time>
      </trkpt>
      <trkpt lat="44.72128" lon="6.93737">
        <ele>2555</ele>
        <time>2021-11-19T08:45:11Z</time>
      </trkpt>
      <trkpt lat="44.7213" lon="6.9374">
        <ele>2556</ele>
        <time>2021-11-19T08:45:15Z</time>
      </trkpt>
      <trkpt lat="44.72129" lon="6.93743">
        <ele>2556</ele>
        <time>2021-11-19T08:45:18Z</time>
      </trkpt>
      <trkpt lat="44.7213" lon="6.93745">
        <ele>2557</ele>
        <time>2021-11-19T08:45:21Z</time>
      </trkpt>
      <trkpt lat="44.72131" lon="6.93751">
        <ele>2558</ele>
        <time>2021-11-19T08:45:27Z</time>
      </trkpt>
      <trkpt lat="44.72132" lon="6.93754">
        <ele>2558</ele>
        <time>2021-11-19T08:45:30Z</time>
      </trkpt>
      <trkpt lat="44.72136" lon="6.9376">
        <ele>2560</ele>
        <time>2021-11-19T08:45:41Z</time>
      </trkpt>
      <trkpt lat="44.72138" lon="6.93761">
        <ele>2561</ele>
        <time>2021-11-19T08:45:44Z</time>
      </trkpt>
      <trkpt lat="44.7214" lon="6.93763">
        <ele>2561</ele>
        <time>2021-11-19T08:45:46Z</time>
      </trkpt>
      <trkpt lat="44.72141" lon="6.93768">
        <ele>2561</ele>
        <time>2021-11-19T08:45:51Z</time>
      </trkpt>
      <trkpt lat="44.72144" lon="6.93773">
        <ele>2562</ele>
        <time>2021-11-19T08:45:57Z</time>
      </trkpt>
      <trkpt lat="44.72145" lon="6.93774">
        <ele>2562</ele>
        <time>2021-11-19T08:46:05Z</time>
      </trkpt>
      <trkpt lat="44.72144" lon="6.93777">
        <ele>2563</ele>
        <time>2021-11-19T08:46:16Z</time>
      </trkpt>
      <trkpt lat="44.72142" lon="6.93778">
        <ele>2565</ele>
        <time>2021-11-19T08:46:23Z</time>
      </trkpt>
      <trkpt lat="44.72141" lon="6.9378">
        <ele>2566</ele>
        <time>2021-11-19T08:46:26Z</time>
      </trkpt>
      <trkpt lat="44.72139" lon="6.9378">
        <ele>2568</ele>
        <time>2021-11-19T08:46:34Z</time>
      </trkpt>
      <trkpt lat="44.72134" lon="6.93784">
        <ele>2571</ele>
        <time>2021-11-19T08:46:47Z</time>
      </trkpt>
      <trkpt lat="44.72136" lon="6.93785">
        <ele>2571</ele>
        <time>2021-11-19T08:47:22Z</time>
      </trkpt>
      <trkpt lat="44.7214" lon="6.9379">
        <ele>2572</ele>
        <time>2021-11-19T08:47:28Z</time>
      </trkpt>
      <trkpt lat="44.72142" lon="6.93791">
        <ele>2572</ele>
        <time>2021-11-19T08:47:31Z</time>
      </trkpt>
      <trkpt lat="44.72144" lon="6.93802">
        <ele>2573</ele>
        <time>2021-11-19T08:47:41Z</time>
      </trkpt>
      <trkpt lat="44.72144" lon="6.93806">
        <ele>2574</ele>
        <time>2021-11-19T08:47:44Z</time>
      </trkpt>
      <trkpt lat="44.72144" lon="6.93809">
        <ele>2574</ele>
        <time>2021-11-19T08:47:47Z</time>
      </trkpt>
      <trkpt lat="44.72143" lon="6.93827">
        <ele>2574</ele>
        <time>2021-11-19T08:48:06Z</time>
      </trkpt>
      <trkpt lat="44.72144" lon="6.9383">
        <ele>2574</ele>
        <time>2021-11-19T08:48:09Z</time>
      </trkpt>
      <trkpt lat="44.72144" lon="6.93832">
        <ele>2575</ele>
        <time>2021-11-19T08:48:12Z</time>
      </trkpt>
      <trkpt lat="44.72144" lon="6.93835">
        <ele>2575</ele>
        <time>2021-11-19T08:48:15Z</time>
      </trkpt>
      <trkpt lat="44.72143" lon="6.93841">
        <ele>2576</ele>
        <time>2021-11-19T08:48:22Z</time>
      </trkpt>
      <trkpt lat="44.72142" lon="6.93844">
        <ele>2577</ele>
        <time>2021-11-19T08:48:28Z</time>
      </trkpt>
      <trkpt lat="44.72142" lon="6.93846">
        <ele>2577</ele>
        <time>2021-11-19T08:48:31Z</time>
      </trkpt>
      <trkpt lat="44.72141" lon="6.93849">
        <ele>2577</ele>
        <time>2021-11-19T08:48:34Z</time>
      </trkpt>
      <trkpt lat="44.7214" lon="6.93851">
        <ele>2577</ele>
        <time>2021-11-19T08:48:38Z</time>
      </trkpt>
      <trkpt lat="44.7214" lon="6.93857">
        <ele>2577</ele>
        <time>2021-11-19T08:48:45Z</time>
      </trkpt>
      <trkpt lat="44.72137" lon="6.93865">
        <ele>2578</ele>
        <time>2021-11-19T08:48:55Z</time>
      </trkpt>
      <trkpt lat="44.72136" lon="6.93866">
        <ele>2578</ele>
        <time>2021-11-19T08:48:59Z</time>
      </trkpt>
      <trkpt lat="44.72134" lon="6.93867">
        <ele>2578</ele>
        <time>2021-11-19T08:49:02Z</time>
      </trkpt>
      <trkpt lat="44.72133" lon="6.93869">
        <ele>2579</ele>
        <time>2021-11-19T08:49:05Z</time>
      </trkpt>
      <trkpt lat="44.72131" lon="6.9387">
        <ele>2579</ele>
        <time>2021-11-19T08:49:08Z</time>
      </trkpt>
      <trkpt lat="44.72129" lon="6.93871">
        <ele>2581</ele>
        <time>2021-11-19T08:49:16Z</time>
      </trkpt>
      <trkpt lat="44.72126" lon="6.93874">
        <ele>2582</ele>
        <time>2021-11-19T08:49:22Z</time>
      </trkpt>
      <trkpt lat="44.72124" lon="6.93876">
        <ele>2582</ele>
        <time>2021-11-19T08:49:25Z</time>
      </trkpt>
      <trkpt lat="44.72122" lon="6.93877">
        <ele>2583</ele>
        <time>2021-11-19T08:49:32Z</time>
      </trkpt>
      <trkpt lat="44.7212" lon="6.93878">
        <ele>2583</ele>
        <time>2021-11-19T08:49:36Z</time>
      </trkpt>
      <trkpt lat="44.72119" lon="6.9388">
        <ele>2583</ele>
        <time>2021-11-19T08:49:39Z</time>
      </trkpt>
      <trkpt lat="44.72115" lon="6.93882">
        <ele>2584</ele>
        <time>2021-11-19T08:49:47Z</time>
      </trkpt>
      <trkpt lat="44.72111" lon="6.93885">
        <ele>2585</ele>
        <time>2021-11-19T08:49:53Z</time>
      </trkpt>
      <trkpt lat="44.7211" lon="6.93886">
        <ele>2585</ele>
        <time>2021-11-19T08:49:55Z</time>
      </trkpt>
      <trkpt lat="44.72106" lon="6.93888">
        <ele>2586</ele>
        <time>2021-11-19T08:50:02Z</time>
      </trkpt>
      <trkpt lat="44.72105" lon="6.93888">
        <ele>2586</ele>
        <time>2021-11-19T08:50:05Z</time>
      </trkpt>
      <trkpt lat="44.72103" lon="6.9389">
        <ele>2586</ele>
        <time>2021-11-19T08:50:08Z</time>
      </trkpt>
      <trkpt lat="44.72099" lon="6.93893">
        <ele>2587</ele>
        <time>2021-11-19T08:50:16Z</time>
      </trkpt>
      <trkpt lat="44.72089" lon="6.93894">
        <ele>2590</ele>
        <time>2021-11-19T08:50:29Z</time>
      </trkpt>
      <trkpt lat="44.72088" lon="6.93896">
        <ele>2591</ele>
        <time>2021-11-19T08:50:32Z</time>
      </trkpt>
      <trkpt lat="44.72087" lon="6.93898">
        <ele>2592</ele>
        <time>2021-11-19T08:50:37Z</time>
      </trkpt>
      <trkpt lat="44.72086" lon="6.939">
        <ele>2593</ele>
        <time>2021-11-19T08:50:48Z</time>
      </trkpt>
      <trkpt lat="44.72091" lon="6.93902">
        <ele>2594</ele>
        <time>2021-11-19T08:51:01Z</time>
      </trkpt>
      <trkpt lat="44.72099" lon="6.93906">
        <ele>2595</ele>
        <time>2021-11-19T08:51:15Z</time>
      </trkpt>
      <trkpt lat="44.72102" lon="6.9391">
        <ele>2596</ele>
        <time>2021-11-19T08:51:22Z</time>
      </trkpt>
      <trkpt lat="44.72104" lon="6.93911">
        <ele>2596</ele>
        <time>2021-11-19T08:51:26Z</time>
      </trkpt>
      <trkpt lat="44.72101" lon="6.93913">
        <ele>2598</ele>
        <time>2021-11-19T08:51:40Z</time>
      </trkpt>
      <trkpt lat="44.72099" lon="6.93915">
        <ele>2599</ele>
        <time>2021-11-19T08:51:44Z</time>
      </trkpt>
      <trkpt lat="44.72096" lon="6.93915">
        <ele>2600</ele>
        <time>2021-11-19T08:51:50Z</time>
      </trkpt>
      <trkpt lat="44.72091" lon="6.93918">
        <ele>2601</ele>
        <time>2021-11-19T08:51:57Z</time>
      </trkpt>
      <trkpt lat="44.72088" lon="6.93919">
        <ele>2602</ele>
        <time>2021-11-19T08:52:00Z</time>
      </trkpt>
      <trkpt lat="44.72086" lon="6.9392">
        <ele>2602</ele>
        <time>2021-11-19T08:52:04Z</time>
      </trkpt>
      <trkpt lat="44.72084" lon="6.93922">
        <ele>2603</ele>
        <time>2021-11-19T08:52:07Z</time>
      </trkpt>
      <trkpt lat="44.72082" lon="6.93926">
        <ele>2605</ele>
        <time>2021-11-19T08:52:13Z</time>
      </trkpt>
      <trkpt lat="44.72079" lon="6.93933">
        <ele>2606</ele>
        <time>2021-11-19T08:52:22Z</time>
      </trkpt>
      <trkpt lat="44.72077" lon="6.93934">
        <ele>2607</ele>
        <time>2021-11-19T08:52:24Z</time>
      </trkpt>
      <trkpt lat="44.72072" lon="6.93937">
        <ele>2608</ele>
        <time>2021-11-19T08:52:30Z</time>
      </trkpt>
      <trkpt lat="44.7207" lon="6.93941">
        <ele>2610</ele>
        <time>2021-11-19T08:52:36Z</time>
      </trkpt>
      <trkpt lat="44.72068" lon="6.93943">
        <ele>2610</ele>
        <time>2021-11-19T08:52:42Z</time>
      </trkpt>
      <trkpt lat="44.72065" lon="6.93948">
        <ele>2612</ele>
        <time>2021-11-19T08:52:49Z</time>
      </trkpt>
      <trkpt lat="44.72065" lon="6.9395">
        <ele>2613</ele>
        <time>2021-11-19T08:52:54Z</time>
      </trkpt>
      <trkpt lat="44.72063" lon="6.93951">
        <ele>2614</ele>
        <time>2021-11-19T08:53:04Z</time>
      </trkpt>
      <trkpt lat="44.7206" lon="6.93959">
        <ele>2616</ele>
        <time>2021-11-19T08:53:15Z</time>
      </trkpt>
      <trkpt lat="44.72059" lon="6.93961">
        <ele>2617</ele>
        <time>2021-11-19T08:53:19Z</time>
      </trkpt>
      <trkpt lat="44.72057" lon="6.93965">
        <ele>2619</ele>
        <time>2021-11-19T08:53:30Z</time>
      </trkpt>
      <trkpt lat="44.72056" lon="6.93966">
        <ele>2619</ele>
        <time>2021-11-19T08:53:33Z</time>
      </trkpt>
      <trkpt lat="44.72055" lon="6.93969">
        <ele>2620</ele>
        <time>2021-11-19T08:53:37Z</time>
      </trkpt>
      <trkpt lat="44.72048" lon="6.93979">
        <ele>2621</ele>
        <time>2021-11-19T08:53:51Z</time>
      </trkpt>
      <trkpt lat="44.72042" lon="6.93989">
        <ele>2624</ele>
        <time>2021-11-19T08:54:04Z</time>
      </trkpt>
      <trkpt lat="44.72039" lon="6.93992">
        <ele>2625</ele>
        <time>2021-11-19T08:54:09Z</time>
      </trkpt>
      <trkpt lat="44.72038" lon="6.93991">
        <ele>2625</ele>
        <time>2021-11-19T08:54:16Z</time>
      </trkpt>
      <trkpt lat="44.72038" lon="6.93992">
        <ele>2625</ele>
        <time>2021-11-19T08:54:28Z</time>
      </trkpt>
      <trkpt lat="44.72036" lon="6.93993">
        <ele>2625</ele>
        <time>2021-11-19T08:54:35Z</time>
      </trkpt>
      <trkpt lat="44.72035" lon="6.93995">
        <ele>2626</ele>
        <time>2021-11-19T08:54:39Z</time>
      </trkpt>
      <trkpt lat="44.72035" lon="6.94001">
        <ele>2626</ele>
        <time>2021-11-19T08:55:26Z</time>
      </trkpt>
      <trkpt lat="44.72032" lon="6.94004">
        <ele>2627</ele>
        <time>2021-11-19T08:55:32Z</time>
      </trkpt>
      <trkpt lat="44.72031" lon="6.94006">
        <ele>2627</ele>
        <time>2021-11-19T08:55:34Z</time>
      </trkpt>
      <trkpt lat="44.72025" lon="6.9401">
        <ele>2628</ele>
        <time>2021-11-19T08:55:45Z</time>
      </trkpt>
      <trkpt lat="44.72024" lon="6.94013">
        <ele>2629</ele>
        <time>2021-11-19T08:55:48Z</time>
      </trkpt>
      <trkpt lat="44.72022" lon="6.94012">
        <ele>2630</ele>
        <time>2021-11-19T08:55:56Z</time>
      </trkpt>
      <trkpt lat="44.72021" lon="6.94014">
        <ele>2631</ele>
        <time>2021-11-19T08:56:03Z</time>
      </trkpt>
      <trkpt lat="44.72021" lon="6.94022">
        <ele>2629</ele>
        <time>2021-11-19T08:56:10Z</time>
      </trkpt>
      <trkpt lat="44.72021" lon="6.94025">
        <ele>2627</ele>
        <time>2021-11-19T08:56:14Z</time>
      </trkpt>
      <trkpt lat="44.72018" lon="6.94031">
        <ele>2626</ele>
        <time>2021-11-19T08:56:19Z</time>
      </trkpt>
      <trkpt lat="44.72016" lon="6.94032">
        <ele>2626</ele>
        <time>2021-11-19T08:56:23Z</time>
      </trkpt>
      <trkpt lat="44.72015" lon="6.94034">
        <ele>2626</ele>
        <time>2021-11-19T08:56:25Z</time>
      </trkpt>
      <trkpt lat="44.72013" lon="6.94036">
        <ele>2627</ele>
        <time>2021-11-19T08:56:28Z</time>
      </trkpt>
      <trkpt lat="44.72012" lon="6.9404">
        <ele>2628</ele>
        <time>2021-11-19T08:56:31Z</time>
      </trkpt>
      <trkpt lat="44.7201" lon="6.94041">
        <ele>2629</ele>
        <time>2021-11-19T08:56:34Z</time>
      </trkpt>
      <trkpt lat="44.72007" lon="6.94045">
        <ele>2632</ele>
        <time>2021-11-19T08:56:45Z</time>
      </trkpt>
      <trkpt lat="44.72006" lon="6.94048">
        <ele>2634</ele>
        <time>2021-11-19T08:56:49Z</time>
      </trkpt>
      <trkpt lat="44.72001" lon="6.94057">
        <ele>2640</ele>
        <time>2021-11-19T08:57:31Z</time>
      </trkpt>
      <trkpt lat="44.71998" lon="6.94061">
        <ele>2641</ele>
        <time>2021-11-19T08:57:35Z</time>
      </trkpt>
      <trkpt lat="44.71998" lon="6.94063">
        <ele>2642</ele>
        <time>2021-11-19T08:57:39Z</time>
      </trkpt>
      <trkpt lat="44.71996" lon="6.94066">
        <ele>2642</ele>
        <time>2021-11-19T08:57:46Z</time>
      </trkpt>
      <trkpt lat="44.71994" lon="6.94068">
        <ele>2642</ele>
        <time>2021-11-19T08:57:50Z</time>
      </trkpt>
      <trkpt lat="44.71992" lon="6.94071">
        <ele>2642</ele>
        <time>2021-11-19T08:57:53Z</time>
      </trkpt>
      <trkpt lat="44.71991" lon="6.94073">
        <ele>2643</ele>
        <time>2021-11-19T08:57:56Z</time>
      </trkpt>
      <trkpt lat="44.71988" lon="6.94077">
        <ele>2644</ele>
        <time>2021-11-19T08:58:03Z</time>
      </trkpt>
      <trkpt lat="44.71987" lon="6.9408">
        <ele>2645</ele>
        <time>2021-11-19T08:58:06Z</time>
      </trkpt>
      <trkpt lat="44.71986" lon="6.94082">
        <ele>2645</ele>
        <time>2021-11-19T08:58:09Z</time>
      </trkpt>
      <trkpt lat="44.71979" lon="6.94094">
        <ele>2647</ele>
        <time>2021-11-19T08:58:30Z</time>
      </trkpt>
      <trkpt lat="44.71979" lon="6.94095">
        <ele>2648</ele>
        <time>2021-11-19T08:58:39Z</time>
      </trkpt>
      <trkpt lat="44.71977" lon="6.94099">
        <ele>2648</ele>
        <time>2021-11-19T08:59:13Z</time>
      </trkpt>
      <trkpt lat="44.71975" lon="6.94106">
        <ele>2648</ele>
        <time>2021-11-19T08:59:22Z</time>
      </trkpt>
      <trkpt lat="44.71974" lon="6.94108">
        <ele>2649</ele>
        <time>2021-11-19T08:59:25Z</time>
      </trkpt>
      <trkpt lat="44.71973" lon="6.9411">
        <ele>2649</ele>
        <time>2021-11-19T08:59:28Z</time>
      </trkpt>
      <trkpt lat="44.71971" lon="6.94112">
        <ele>2649</ele>
        <time>2021-11-19T08:59:34Z</time>
      </trkpt>
      <trkpt lat="44.7197" lon="6.94113">
        <ele>2649</ele>
        <time>2021-11-19T08:59:38Z</time>
      </trkpt>
      <trkpt lat="44.71968" lon="6.94119">
        <ele>2650</ele>
        <time>2021-11-19T09:00:03Z</time>
      </trkpt>
      <trkpt lat="44.71967" lon="6.94121">
        <ele>2650</ele>
        <time>2021-11-19T09:00:06Z</time>
      </trkpt>
      <trkpt lat="44.71967" lon="6.94123">
        <ele>2650</ele>
        <time>2021-11-19T09:00:10Z</time>
      </trkpt>
      <trkpt lat="44.71964" lon="6.94131">
        <ele>2651</ele>
        <time>2021-11-19T09:00:18Z</time>
      </trkpt>
      <trkpt lat="44.71962" lon="6.94136">
        <ele>2652</ele>
        <time>2021-11-19T09:00:25Z</time>
      </trkpt>
      <trkpt lat="44.71959" lon="6.94139">
        <ele>2653</ele>
        <time>2021-11-19T09:00:30Z</time>
      </trkpt>
      <trkpt lat="44.71957" lon="6.9414">
        <ele>2653</ele>
        <time>2021-11-19T09:00:32Z</time>
      </trkpt>
      <trkpt lat="44.71956" lon="6.94141">
        <ele>2654</ele>
        <time>2021-11-19T09:00:36Z</time>
      </trkpt>
      <trkpt lat="44.71954" lon="6.94143">
        <ele>2654</ele>
        <time>2021-11-19T09:00:39Z</time>
      </trkpt>
      <trkpt lat="44.71953" lon="6.94145">
        <ele>2655</ele>
        <time>2021-11-19T09:00:44Z</time>
      </trkpt>
      <trkpt lat="44.71953" lon="6.94146">
        <ele>2657</ele>
        <time>2021-11-19T09:00:57Z</time>
      </trkpt>
      <trkpt lat="44.71956" lon="6.94146">
        <ele>2660</ele>
        <time>2021-11-19T09:01:03Z</time>
      </trkpt>
      <trkpt lat="44.71957" lon="6.94148">
        <ele>2661</ele>
        <time>2021-11-19T09:01:08Z</time>
      </trkpt>
      <trkpt lat="44.71954" lon="6.94153">
        <ele>2663</ele>
        <time>2021-11-19T09:01:14Z</time>
      </trkpt>
      <trkpt lat="44.71953" lon="6.94155">
        <ele>2664</ele>
        <time>2021-11-19T09:01:16Z</time>
      </trkpt>
      <trkpt lat="44.7195" lon="6.94158">
        <ele>2666</ele>
        <time>2021-11-19T09:01:23Z</time>
      </trkpt>
      <trkpt lat="44.71949" lon="6.9416">
        <ele>2667</ele>
        <time>2021-11-19T09:01:27Z</time>
      </trkpt>
      <trkpt lat="44.71948" lon="6.94161">
        <ele>2668</ele>
        <time>2021-11-19T09:01:33Z</time>
      </trkpt>
      <trkpt lat="44.71946" lon="6.94165">
        <ele>2669</ele>
        <time>2021-11-19T09:01:40Z</time>
      </trkpt>
      <trkpt lat="44.71944" lon="6.94166">
        <ele>2670</ele>
        <time>2021-11-19T09:01:44Z</time>
      </trkpt>
      <trkpt lat="44.71943" lon="6.94168">
        <ele>2670</ele>
        <time>2021-11-19T09:01:47Z</time>
      </trkpt>
      <trkpt lat="44.71941" lon="6.94169">
        <ele>2671</ele>
        <time>2021-11-19T09:01:50Z</time>
      </trkpt>
      <trkpt lat="44.71938" lon="6.94172">
        <ele>2672</ele>
        <time>2021-11-19T09:01:56Z</time>
      </trkpt>
      <trkpt lat="44.71938" lon="6.94174">
        <ele>2672</ele>
        <time>2021-11-19T09:02:00Z</time>
      </trkpt>
      <trkpt lat="44.71937" lon="6.94176">
        <ele>2672</ele>
        <time>2021-11-19T09:02:04Z</time>
      </trkpt>
      <trkpt lat="44.7193" lon="6.94183">
        <ele>2673</ele>
        <time>2021-11-19T09:02:22Z</time>
      </trkpt>
      <trkpt lat="44.7193" lon="6.94186">
        <ele>2673</ele>
        <time>2021-11-19T09:02:26Z</time>
      </trkpt>
      <trkpt lat="44.71929" lon="6.94188">
        <ele>2673</ele>
        <time>2021-11-19T09:02:29Z</time>
      </trkpt>
      <trkpt lat="44.71928" lon="6.94188">
        <ele>2673</ele>
        <time>2021-11-19T09:02:33Z</time>
      </trkpt>
      <trkpt lat="44.71926" lon="6.94188">
        <ele>2674</ele>
        <time>2021-11-19T09:02:42Z</time>
      </trkpt>
      <trkpt lat="44.71924" lon="6.94189">
        <ele>2674</ele>
        <time>2021-11-19T09:02:45Z</time>
      </trkpt>
      <trkpt lat="44.71918" lon="6.9419">
        <ele>2676</ele>
        <time>2021-11-19T09:02:54Z</time>
      </trkpt>
      <trkpt lat="44.71915" lon="6.94194">
        <ele>2679</ele>
        <time>2021-11-19T09:03:02Z</time>
      </trkpt>
      <trkpt lat="44.71913" lon="6.94195">
        <ele>2680</ele>
        <time>2021-11-19T09:03:05Z</time>
      </trkpt>
      <trkpt lat="44.71911" lon="6.94195">
        <ele>2681</ele>
        <time>2021-11-19T09:03:11Z</time>
      </trkpt>
      <trkpt lat="44.7191" lon="6.94196">
        <ele>2681</ele>
        <time>2021-11-19T09:03:15Z</time>
      </trkpt>
      <trkpt lat="44.71907" lon="6.94198">
        <ele>2682</ele>
        <time>2021-11-19T09:03:21Z</time>
      </trkpt>
      <trkpt lat="44.719" lon="6.942">
        <ele>2684</ele>
        <time>2021-11-19T09:03:30Z</time>
      </trkpt>
      <trkpt lat="44.71899" lon="6.942">
        <ele>2684</ele>
        <time>2021-11-19T09:03:33Z</time>
      </trkpt>
      <trkpt lat="44.71897" lon="6.94201">
        <ele>2685</ele>
        <time>2021-11-19T09:03:35Z</time>
      </trkpt>
      <trkpt lat="44.71895" lon="6.94201">
        <ele>2686</ele>
        <time>2021-11-19T09:03:38Z</time>
      </trkpt>
      <trkpt lat="44.71893" lon="6.94204">
        <ele>2688</ele>
        <time>2021-11-19T09:03:50Z</time>
      </trkpt>
      <trkpt lat="44.71894" lon="6.94206">
        <ele>2689</ele>
        <time>2021-11-19T09:03:54Z</time>
      </trkpt>
      <trkpt lat="44.71897" lon="6.94209">
        <ele>2690</ele>
        <time>2021-11-19T09:04:00Z</time>
      </trkpt>
      <trkpt lat="44.71898" lon="6.9421">
        <ele>2691</ele>
        <time>2021-11-19T09:04:02Z</time>
      </trkpt>
      <trkpt lat="44.71899" lon="6.94211">
        <ele>2691</ele>
        <time>2021-11-19T09:04:05Z</time>
      </trkpt>
      <trkpt lat="44.71899" lon="6.94213">
        <ele>2691</ele>
        <time>2021-11-19T09:04:09Z</time>
      </trkpt>
      <trkpt lat="44.71899" lon="6.94214">
        <ele>2692</ele>
        <time>2021-11-19T09:04:20Z</time>
      </trkpt>
      <trkpt lat="44.71898" lon="6.94214">
        <ele>2692</ele>
        <time>2021-11-19T09:04:28Z</time>
      </trkpt>
      <trkpt lat="44.71897" lon="6.94215">
        <ele>2692</ele>
        <time>2021-11-19T09:04:31Z</time>
      </trkpt>
      <trkpt lat="44.71893" lon="6.94216">
        <ele>2693</ele>
        <time>2021-11-19T09:04:40Z</time>
      </trkpt>
      <trkpt lat="44.7189" lon="6.94219">
        <ele>2694</ele>
        <time>2021-11-19T09:04:46Z</time>
      </trkpt>
      <trkpt lat="44.71887" lon="6.94222">
        <ele>2695</ele>
        <time>2021-11-19T09:04:52Z</time>
      </trkpt>
      <trkpt lat="44.71884" lon="6.94227">
        <ele>2697</ele>
        <time>2021-11-19T09:05:06Z</time>
      </trkpt>
      <trkpt lat="44.71883" lon="6.94228">
        <ele>2697</ele>
        <time>2021-11-19T09:05:22Z</time>
      </trkpt>
      <trkpt lat="44.71881" lon="6.94229">
        <ele>2698</ele>
        <time>2021-11-19T09:05:30Z</time>
      </trkpt>
      <trkpt lat="44.71879" lon="6.94228">
        <ele>2698</ele>
        <time>2021-11-19T09:05:35Z</time>
      </trkpt>
      <trkpt lat="44.71877" lon="6.94229">
        <ele>2699</ele>
        <time>2021-11-19T09:05:38Z</time>
      </trkpt>
      <trkpt lat="44.71876" lon="6.9423">
        <ele>2699</ele>
        <time>2021-11-19T09:05:40Z</time>
      </trkpt>
      <trkpt lat="44.71872" lon="6.94235">
        <ele>2702</ele>
        <time>2021-11-19T09:05:51Z</time>
      </trkpt>
      <trkpt lat="44.71871" lon="6.94235">
        <ele>2702</ele>
        <time>2021-11-19T09:05:53Z</time>
      </trkpt>
      <trkpt lat="44.71863" lon="6.94239">
        <ele>2705</ele>
        <time>2021-11-19T09:06:04Z</time>
      </trkpt>
      <trkpt lat="44.71861" lon="6.94244">
        <ele>2706</ele>
        <time>2021-11-19T09:06:15Z</time>
      </trkpt>
      <trkpt lat="44.7186" lon="6.94246">
        <ele>2707</ele>
        <time>2021-11-19T09:06:18Z</time>
      </trkpt>
      <trkpt lat="44.71858" lon="6.94246">
        <ele>2707</ele>
        <time>2021-11-19T09:06:21Z</time>
      </trkpt>
      <trkpt lat="44.71855" lon="6.94249">
        <ele>2709</ele>
        <time>2021-11-19T09:06:27Z</time>
      </trkpt>
      <trkpt lat="44.71851" lon="6.94253">
        <ele>2710</ele>
        <time>2021-11-19T09:06:37Z</time>
      </trkpt>
      <trkpt lat="44.7185" lon="6.94254">
        <ele>2710</ele>
        <time>2021-11-19T09:06:40Z</time>
      </trkpt>
      <trkpt lat="44.71849" lon="6.94257">
        <ele>2710</ele>
        <time>2021-11-19T09:06:43Z</time>
      </trkpt>
      <trkpt lat="44.71848" lon="6.94259">
        <ele>2710</ele>
        <time>2021-11-19T09:06:46Z</time>
      </trkpt>
      <trkpt lat="44.71847" lon="6.94259">
        <ele>2710</ele>
        <time>2021-11-19T09:06:48Z</time>
      </trkpt>
      <trkpt lat="44.71844" lon="6.9426">
        <ele>2709</ele>
        <time>2021-11-19T09:06:54Z</time>
      </trkpt>
      <trkpt lat="44.71842" lon="6.94262">
        <ele>2709</ele>
        <time>2021-11-19T09:06:57Z</time>
      </trkpt>
      <trkpt lat="44.71846" lon="6.94264">
        <ele>2710</ele>
        <time>2021-11-19T09:07:21Z</time>
      </trkpt>
      <trkpt lat="44.71848" lon="6.94264">
        <ele>2710</ele>
        <time>2021-11-19T09:07:23Z</time>
      </trkpt>
      <trkpt lat="44.71852" lon="6.9427">
        <ele>2712</ele>
        <time>2021-11-19T09:07:36Z</time>
      </trkpt>
      <trkpt lat="44.71853" lon="6.94272">
        <ele>2713</ele>
        <time>2021-11-19T09:07:40Z</time>
      </trkpt>
      <trkpt lat="44.71854" lon="6.94272">
        <ele>2713</ele>
        <time>2021-11-19T09:07:42Z</time>
      </trkpt>
      <trkpt lat="44.71856" lon="6.94272">
        <ele>2714</ele>
        <time>2021-11-19T09:07:49Z</time>
      </trkpt>
      <trkpt lat="44.71849" lon="6.94275">
        <ele>2719</ele>
        <time>2021-11-19T09:08:38Z</time>
      </trkpt>
      <trkpt lat="44.71851" lon="6.94275">
        <ele>2721</ele>
        <time>2021-11-19T09:08:41Z</time>
      </trkpt>
      <trkpt lat="44.71853" lon="6.94278">
        <ele>2723</ele>
        <time>2021-11-19T09:08:44Z</time>
      </trkpt>
      <trkpt lat="44.71854" lon="6.94283">
        <ele>2725</ele>
        <time>2021-11-19T09:08:49Z</time>
      </trkpt>
      <trkpt lat="44.71856" lon="6.94285">
        <ele>2725</ele>
        <time>2021-11-19T09:08:52Z</time>
      </trkpt>
      <trkpt lat="44.71857" lon="6.94287">
        <ele>2725</ele>
        <time>2021-11-19T09:08:54Z</time>
      </trkpt>
      <trkpt lat="44.71859" lon="6.9429">
        <ele>2726</ele>
        <time>2021-11-19T09:08:57Z</time>
      </trkpt>
      <trkpt lat="44.71861" lon="6.94291">
        <ele>2725</ele>
        <time>2021-11-19T09:08:59Z</time>
      </trkpt>
      <trkpt lat="44.71865" lon="6.94293">
        <ele>2728</ele>
        <time>2021-11-19T09:09:06Z</time>
      </trkpt>
      <trkpt lat="44.71867" lon="6.94293">
        <ele>2729</ele>
        <time>2021-11-19T09:09:12Z</time>
      </trkpt>
      <trkpt lat="44.71869" lon="6.94295">
        <ele>2730</ele>
        <time>2021-11-19T09:09:15Z</time>
      </trkpt>
      <trkpt lat="44.71871" lon="6.94296">
        <ele>2731</ele>
        <time>2021-11-19T09:09:17Z</time>
      </trkpt>
      <trkpt lat="44.71875" lon="6.94299">
        <ele>2731</ele>
        <time>2021-11-19T09:09:23Z</time>
      </trkpt>
      <trkpt lat="44.71877" lon="6.94301">
        <ele>2731</ele>
        <time>2021-11-19T09:09:26Z</time>
      </trkpt>
      <trkpt lat="44.71878" lon="6.94303">
        <ele>2731</ele>
        <time>2021-11-19T09:09:30Z</time>
      </trkpt>
      <trkpt lat="44.71881" lon="6.94304">
        <ele>2732</ele>
        <time>2021-11-19T09:09:34Z</time>
      </trkpt>
      <trkpt lat="44.71883" lon="6.94303">
        <ele>2732</ele>
        <time>2021-11-19T09:09:37Z</time>
      </trkpt>
      <trkpt lat="44.71884" lon="6.94305">
        <ele>2733</ele>
        <time>2021-11-19T09:09:41Z</time>
      </trkpt>
      <trkpt lat="44.71885" lon="6.94307">
        <ele>2733</ele>
        <time>2021-11-19T09:09:44Z</time>
      </trkpt>
      <trkpt lat="44.71888" lon="6.94311">
        <ele>2733</ele>
        <time>2021-11-19T09:09:52Z</time>
      </trkpt>
      <trkpt lat="44.71889" lon="6.94311">
        <ele>2733</ele>
        <time>2021-11-19T09:09:55Z</time>
      </trkpt>
      <trkpt lat="44.7189" lon="6.94313">
        <ele>2733</ele>
        <time>2021-11-19T09:09:58Z</time>
      </trkpt>
      <trkpt lat="44.71891" lon="6.94315">
        <ele>2733</ele>
        <time>2021-11-19T09:10:01Z</time>
      </trkpt>
      <trkpt lat="44.71892" lon="6.94317">
        <ele>2733</ele>
        <time>2021-11-19T09:10:04Z</time>
      </trkpt>
      <trkpt lat="44.71892" lon="6.94319">
        <ele>2737</ele>
        <time>2021-11-19T09:10:21Z</time>
      </trkpt>
      <trkpt lat="44.7189" lon="6.9432">
        <ele>2737</ele>
        <time>2021-11-19T09:10:24Z</time>
      </trkpt>
      <trkpt lat="44.71889" lon="6.94319">
        <ele>2738</ele>
        <time>2021-11-19T09:10:25Z</time>
      </trkpt>
      <trkpt lat="44.71887" lon="6.94321">
        <ele>2739</ele>
        <time>2021-11-19T09:10:28Z</time>
      </trkpt>
      <trkpt lat="44.71886" lon="6.94322">
        <ele>2739</ele>
        <time>2021-11-19T09:10:30Z</time>
      </trkpt>
      <trkpt lat="44.71886" lon="6.94325">
        <ele>2739</ele>
        <time>2021-11-19T09:10:34Z</time>
      </trkpt>
      <trkpt lat="44.71885" lon="6.94327">
        <ele>2739</ele>
        <time>2021-11-19T09:10:38Z</time>
      </trkpt>
      <trkpt lat="44.71883" lon="6.9433">
        <ele>2740</ele>
        <time>2021-11-19T09:10:45Z</time>
      </trkpt>
      <trkpt lat="44.7188" lon="6.94332">
        <ele>2740</ele>
        <time>2021-11-19T09:10:52Z</time>
      </trkpt>
      <trkpt lat="44.71879" lon="6.94332">
        <ele>2740</ele>
        <time>2021-11-19T09:10:57Z</time>
      </trkpt>
      <trkpt lat="44.71875" lon="6.94334">
        <ele>2741</ele>
        <time>2021-11-19T09:11:03Z</time>
      </trkpt>
      <trkpt lat="44.71872" lon="6.94337">
        <ele>2743</ele>
        <time>2021-11-19T09:11:09Z</time>
      </trkpt>
      <trkpt lat="44.71873" lon="6.94339">
        <ele>2744</ele>
        <time>2021-11-19T09:11:13Z</time>
      </trkpt>
      <trkpt lat="44.71874" lon="6.9434">
        <ele>2744</ele>
        <time>2021-11-19T09:11:18Z</time>
      </trkpt>
      <trkpt lat="44.71875" lon="6.94341">
        <ele>2746</ele>
        <time>2021-11-19T09:11:21Z</time>
      </trkpt>
      <trkpt lat="44.71877" lon="6.94343">
        <ele>2747</ele>
        <time>2021-11-19T09:11:25Z</time>
      </trkpt>
      <trkpt lat="44.71878" lon="6.94344">
        <ele>2747</ele>
        <time>2021-11-19T09:11:29Z</time>
      </trkpt>
      <trkpt lat="44.71879" lon="6.94345">
        <ele>2748</ele>
        <time>2021-11-19T09:11:32Z</time>
      </trkpt>
      <trkpt lat="44.71881" lon="6.94347">
        <ele>2748</ele>
        <time>2021-11-19T09:11:38Z</time>
      </trkpt>
      <trkpt lat="44.71883" lon="6.94346">
        <ele>2748</ele>
        <time>2021-11-19T09:11:41Z</time>
      </trkpt>
      <trkpt lat="44.71886" lon="6.94349">
        <ele>2749</ele>
        <time>2021-11-19T09:11:46Z</time>
      </trkpt>
      <trkpt lat="44.71887" lon="6.9435">
        <ele>2749</ele>
        <time>2021-11-19T09:11:48Z</time>
      </trkpt>
      <trkpt lat="44.7189" lon="6.94354">
        <ele>2751</ele>
        <time>2021-11-19T09:11:55Z</time>
      </trkpt>
      <trkpt lat="44.71893" lon="6.94356">
        <ele>2752</ele>
        <time>2021-11-19T09:12:06Z</time>
      </trkpt>
      <trkpt lat="44.71894" lon="6.94357">
        <ele>2753</ele>
        <time>2021-11-19T09:12:08Z</time>
      </trkpt>
      <trkpt lat="44.71896" lon="6.94361">
        <ele>2755</ele>
        <time>2021-11-19T09:12:16Z</time>
      </trkpt>
      <trkpt lat="44.71898" lon="6.94362">
        <ele>2755</ele>
        <time>2021-11-19T09:12:18Z</time>
      </trkpt>
      <trkpt lat="44.719" lon="6.94364">
        <ele>2756</ele>
        <time>2021-11-19T09:12:24Z</time>
      </trkpt>
      <trkpt lat="44.71903" lon="6.94368">
        <ele>2756</ele>
        <time>2021-11-19T09:12:32Z</time>
      </trkpt>
      <trkpt lat="44.71901" lon="6.9437">
        <ele>2757</ele>
        <time>2021-11-19T09:12:43Z</time>
      </trkpt>
      <trkpt lat="44.71899" lon="6.94373">
        <ele>2759</ele>
        <time>2021-11-19T09:12:51Z</time>
      </trkpt>
      <trkpt lat="44.7189" lon="6.94381">
        <ele>2763</ele>
        <time>2021-11-19T09:13:14Z</time>
      </trkpt>
      <trkpt lat="44.71889" lon="6.94382">
        <ele>2764</ele>
        <time>2021-11-19T09:13:17Z</time>
      </trkpt>
      <trkpt lat="44.71887" lon="6.94383">
        <ele>2764</ele>
        <time>2021-11-19T09:13:20Z</time>
      </trkpt>
      <trkpt lat="44.71886" lon="6.94384">
        <ele>2765</ele>
        <time>2021-11-19T09:13:28Z</time>
      </trkpt>
      <trkpt lat="44.71885" lon="6.94385">
        <ele>2765</ele>
        <time>2021-11-19T09:13:38Z</time>
      </trkpt>
      <trkpt lat="44.71884" lon="6.94385">
        <ele>2765</ele>
        <time>2021-11-19T09:13:40Z</time>
      </trkpt>
      <trkpt lat="44.71883" lon="6.94387">
        <ele>2765</ele>
        <time>2021-11-19T09:13:43Z</time>
      </trkpt>
      <trkpt lat="44.71881" lon="6.94388">
        <ele>2766</ele>
        <time>2021-11-19T09:13:48Z</time>
      </trkpt>
      <trkpt lat="44.7188" lon="6.94391">
        <ele>2766</ele>
        <time>2021-11-19T09:14:27Z</time>
      </trkpt>
      <trkpt lat="44.71884" lon="6.94394">
        <ele>2767</ele>
        <time>2021-11-19T09:14:38Z</time>
      </trkpt>
      <trkpt lat="44.71886" lon="6.94397">
        <ele>2768</ele>
        <time>2021-11-19T09:14:43Z</time>
      </trkpt>
      <trkpt lat="44.71888" lon="6.94398">
        <ele>2768</ele>
        <time>2021-11-19T09:14:46Z</time>
      </trkpt>
      <trkpt lat="44.7189" lon="6.94402">
        <ele>2769</ele>
        <time>2021-11-19T09:14:51Z</time>
      </trkpt>
      <trkpt lat="44.71891" lon="6.94403">
        <ele>2769</ele>
        <time>2021-11-19T09:14:55Z</time>
      </trkpt>
      <trkpt lat="44.71893" lon="6.94404">
        <ele>2770</ele>
        <time>2021-11-19T09:15:01Z</time>
      </trkpt>
      <trkpt lat="44.71889" lon="6.94407">
        <ele>2771</ele>
        <time>2021-11-19T09:15:13Z</time>
      </trkpt>
      <trkpt lat="44.71885" lon="6.94409">
        <ele>2772</ele>
        <time>2021-11-19T09:15:20Z</time>
      </trkpt>
      <trkpt lat="44.71884" lon="6.9441">
        <ele>2773</ele>
        <time>2021-11-19T09:15:23Z</time>
      </trkpt>
      <trkpt lat="44.71878" lon="6.94415">
        <ele>2774</ele>
        <time>2021-11-19T09:15:34Z</time>
      </trkpt>
      <trkpt lat="44.71877" lon="6.94417">
        <ele>2775</ele>
        <time>2021-11-19T09:15:37Z</time>
      </trkpt>
      <trkpt lat="44.71876" lon="6.94417">
        <ele>2775</ele>
        <time>2021-11-19T09:15:41Z</time>
      </trkpt>
      <trkpt lat="44.71874" lon="6.94418">
        <ele>2776</ele>
        <time>2021-11-19T09:15:44Z</time>
      </trkpt>
      <trkpt lat="44.71871" lon="6.9442">
        <ele>2777</ele>
        <time>2021-11-19T09:15:49Z</time>
      </trkpt>
      <trkpt lat="44.71869" lon="6.9442">
        <ele>2777</ele>
        <time>2021-11-19T09:15:54Z</time>
      </trkpt>
      <trkpt lat="44.71867" lon="6.94421">
        <ele>2778</ele>
        <time>2021-11-19T09:15:57Z</time>
      </trkpt>
      <trkpt lat="44.71866" lon="6.94422">
        <ele>2778</ele>
        <time>2021-11-19T09:16:02Z</time>
      </trkpt>
      <trkpt lat="44.71864" lon="6.94425">
        <ele>2779</ele>
        <time>2021-11-19T09:16:09Z</time>
      </trkpt>
      <trkpt lat="44.71863" lon="6.94425">
        <ele>2780</ele>
        <time>2021-11-19T09:16:13Z</time>
      </trkpt>
      <trkpt lat="44.71865" lon="6.94427">
        <ele>2780</ele>
        <time>2021-11-19T09:16:55Z</time>
      </trkpt>
      <trkpt lat="44.71866" lon="6.94428">
        <ele>2782</ele>
        <time>2021-11-19T09:16:58Z</time>
      </trkpt>
      <trkpt lat="44.71868" lon="6.9443">
        <ele>2782</ele>
        <time>2021-11-19T09:17:01Z</time>
      </trkpt>
      <trkpt lat="44.71871" lon="6.94432">
        <ele>2782</ele>
        <time>2021-11-19T09:17:07Z</time>
      </trkpt>
      <trkpt lat="44.71874" lon="6.94434">
        <ele>2782</ele>
        <time>2021-11-19T09:17:13Z</time>
      </trkpt>
      <trkpt lat="44.71875" lon="6.94434">
        <ele>2782</ele>
        <time>2021-11-19T09:17:17Z</time>
      </trkpt>
      <trkpt lat="44.71877" lon="6.94435">
        <ele>2782</ele>
        <time>2021-11-19T09:17:21Z</time>
      </trkpt>
      <trkpt lat="44.71878" lon="6.94436">
        <ele>2782</ele>
        <time>2021-11-19T09:17:23Z</time>
      </trkpt>
      <trkpt lat="44.71879" lon="6.94439">
        <ele>2782</ele>
        <time>2021-11-19T09:17:26Z</time>
      </trkpt>
      <trkpt lat="44.71881" lon="6.94439">
        <ele>2783</ele>
        <time>2021-11-19T09:17:29Z</time>
      </trkpt>
      <trkpt lat="44.71883" lon="6.9444">
        <ele>2783</ele>
        <time>2021-11-19T09:17:33Z</time>
      </trkpt>
      <trkpt lat="44.71884" lon="6.94441">
        <ele>2784</ele>
        <time>2021-11-19T09:17:38Z</time>
      </trkpt>
      <trkpt lat="44.71886" lon="6.94442">
        <ele>2784</ele>
        <time>2021-11-19T09:17:42Z</time>
      </trkpt>
      <trkpt lat="44.71886" lon="6.94444">
        <ele>2785</ele>
        <time>2021-11-19T09:17:45Z</time>
      </trkpt>
      <trkpt lat="44.71888" lon="6.94445">
        <ele>2785</ele>
        <time>2021-11-19T09:17:51Z</time>
      </trkpt>
      <trkpt lat="44.71883" lon="6.94453">
        <ele>2789</ele>
        <time>2021-11-19T09:18:43Z</time>
      </trkpt>
      <trkpt lat="44.71881" lon="6.94455">
        <ele>2791</ele>
        <time>2021-11-19T09:18:48Z</time>
      </trkpt>
      <trkpt lat="44.71879" lon="6.94455">
        <ele>2792</ele>
        <time>2021-11-19T09:18:52Z</time>
      </trkpt>
      <trkpt lat="44.71876" lon="6.9446">
        <ele>2794</ele>
        <time>2021-11-19T09:19:06Z</time>
      </trkpt>
      <trkpt lat="44.71872" lon="6.94461">
        <ele>2795</ele>
        <time>2021-11-19T09:19:22Z</time>
      </trkpt>
      <trkpt lat="44.71868" lon="6.94463">
        <ele>2797</ele>
        <time>2021-11-19T09:19:37Z</time>
      </trkpt>
      <trkpt lat="44.7187" lon="6.94466">
        <ele>2798</ele>
        <time>2021-11-19T09:19:48Z</time>
      </trkpt>
      <trkpt lat="44.71872" lon="6.94469">
        <ele>2798</ele>
        <time>2021-11-19T09:19:51Z</time>
      </trkpt>
      <trkpt lat="44.71875" lon="6.94468">
        <ele>2798</ele>
        <time>2021-11-19T09:19:59Z</time>
      </trkpt>
      <trkpt lat="44.71876" lon="6.94469">
        <ele>2799</ele>
        <time>2021-11-19T09:20:03Z</time>
      </trkpt>
      <trkpt lat="44.71878" lon="6.94468">
        <ele>2799</ele>
        <time>2021-11-19T09:20:06Z</time>
      </trkpt>
      <trkpt lat="44.7188" lon="6.9447">
        <ele>2800</ele>
        <time>2021-11-19T09:20:09Z</time>
      </trkpt>
      <trkpt lat="44.71881" lon="6.94472">
        <ele>2801</ele>
        <time>2021-11-19T09:20:12Z</time>
      </trkpt>
      <trkpt lat="44.71883" lon="6.94472">
        <ele>2801</ele>
        <time>2021-11-19T09:20:16Z</time>
      </trkpt>
      <trkpt lat="44.71884" lon="6.94472">
        <ele>2802</ele>
        <time>2021-11-19T09:20:19Z</time>
      </trkpt>
      <trkpt lat="44.71887" lon="6.94474">
        <ele>2804</ele>
        <time>2021-11-19T09:20:27Z</time>
      </trkpt>
      <trkpt lat="44.71889" lon="6.94474">
        <ele>2805</ele>
        <time>2021-11-19T09:20:35Z</time>
      </trkpt>
      <trkpt lat="44.71891" lon="6.94475">
        <ele>2805</ele>
        <time>2021-11-19T09:20:41Z</time>
      </trkpt>
      <trkpt lat="44.71892" lon="6.94475">
        <ele>2806</ele>
        <time>2021-11-19T09:20:50Z</time>
      </trkpt>
      <trkpt lat="44.71894" lon="6.94475">
        <ele>2806</ele>
        <time>2021-11-19T09:20:53Z</time>
      </trkpt>
      <trkpt lat="44.71898" lon="6.94475">
        <ele>2807</ele>
        <time>2021-11-19T09:21:03Z</time>
      </trkpt>
      <trkpt lat="44.719" lon="6.94474">
        <ele>2808</ele>
        <time>2021-11-19T09:21:07Z</time>
      </trkpt>
      <trkpt lat="44.71902" lon="6.94474">
        <ele>2809</ele>
        <time>2021-11-19T09:21:10Z</time>
      </trkpt>
      <trkpt lat="44.71903" lon="6.94475">
        <ele>2810</ele>
        <time>2021-11-19T09:21:14Z</time>
      </trkpt>
      <trkpt lat="44.71905" lon="6.94475">
        <ele>2810</ele>
        <time>2021-11-19T09:21:17Z</time>
      </trkpt>
      <trkpt lat="44.71905" lon="6.94476">
        <ele>2810</ele>
        <time>2021-11-19T09:21:25Z</time>
      </trkpt>
      <trkpt lat="44.71907" lon="6.94481">
        <ele>2811</ele>
        <time>2021-11-19T09:21:55Z</time>
      </trkpt>
      <trkpt lat="44.71907" lon="6.94478">
        <ele>2812</ele>
        <time>2021-11-19T09:21:58Z</time>
      </trkpt>
      <trkpt lat="44.71911" lon="6.94481">
        <ele>2809</ele>
        <time>2021-11-19T09:22:18Z</time>
      </trkpt>
      <trkpt lat="44.71915" lon="6.94488">
        <ele>2807</ele>
        <time>2021-11-19T09:22:24Z</time>
      </trkpt>
      <trkpt lat="44.7192" lon="6.94489">
        <ele>2807</ele>
        <time>2021-11-19T09:22:33Z</time>
      </trkpt>
      <trkpt lat="44.7192" lon="6.94489">
        <ele>2811</ele>
        <time>2021-11-19T09:23:07Z</time>
      </trkpt>
      <trkpt lat="44.71922" lon="6.94491">
        <ele>2812</ele>
        <time>2021-11-19T09:23:09Z</time>
      </trkpt>
      <trkpt lat="44.71924" lon="6.94493">
        <ele>2813</ele>
        <time>2021-11-19T09:23:12Z</time>
      </trkpt>
      <trkpt lat="44.71926" lon="6.94494">
        <ele>2814</ele>
        <time>2021-11-19T09:23:15Z</time>
      </trkpt>
      <trkpt lat="44.71928" lon="6.94492">
        <ele>2814</ele>
        <time>2021-11-19T09:23:19Z</time>
      </trkpt>
      <trkpt lat="44.71931" lon="6.94495">
        <ele>2816</ele>
        <time>2021-11-19T09:23:28Z</time>
      </trkpt>
      <trkpt lat="44.71932" lon="6.94497">
        <ele>2816</ele>
        <time>2021-11-19T09:23:37Z</time>
      </trkpt>
      <trkpt lat="44.71939" lon="6.94494">
        <ele>2815</ele>
        <time>2021-11-19T09:24:04Z</time>
      </trkpt>
      <trkpt lat="44.71941" lon="6.94495">
        <ele>2815</ele>
        <time>2021-11-19T09:24:07Z</time>
      </trkpt>
      <trkpt lat="44.71945" lon="6.94497">
        <ele>2815</ele>
        <time>2021-11-19T09:24:12Z</time>
      </trkpt>
      <trkpt lat="44.71947" lon="6.94498">
        <ele>2816</ele>
        <time>2021-11-19T09:24:16Z</time>
      </trkpt>
      <trkpt lat="44.71948" lon="6.945">
        <ele>2816</ele>
        <time>2021-11-19T09:24:20Z</time>
      </trkpt>
      <trkpt lat="44.7195" lon="6.94505">
        <ele>2816</ele>
        <time>2021-11-19T09:24:26Z</time>
      </trkpt>
      <trkpt lat="44.71951" lon="6.9451">
        <ele>2817</ele>
        <time>2021-11-19T09:24:31Z</time>
      </trkpt>
      <trkpt lat="44.71953" lon="6.94515">
        <ele>2818</ele>
        <time>2021-11-19T09:24:39Z</time>
      </trkpt>
      <trkpt lat="44.71955" lon="6.94517">
        <ele>2819</ele>
        <time>2021-11-19T09:24:43Z</time>
      </trkpt>
      <trkpt lat="44.71957" lon="6.94517">
        <ele>2819</ele>
        <time>2021-11-19T09:24:48Z</time>
      </trkpt>
      <trkpt lat="44.71958" lon="6.94519">
        <ele>2820</ele>
        <time>2021-11-19T09:24:54Z</time>
      </trkpt>
      <trkpt lat="44.7196" lon="6.94521">
        <ele>2820</ele>
        <time>2021-11-19T09:24:57Z</time>
      </trkpt>
      <trkpt lat="44.7196" lon="6.94524">
        <ele>2821</ele>
        <time>2021-11-19T09:25:00Z</time>
      </trkpt>
      <trkpt lat="44.71961" lon="6.94527">
        <ele>2821</ele>
        <time>2021-11-19T09:25:03Z</time>
      </trkpt>
      <trkpt lat="44.71962" lon="6.9453">
        <ele>2821</ele>
        <time>2021-11-19T09:25:07Z</time>
      </trkpt>
      <trkpt lat="44.71964" lon="6.94531">
        <ele>2822</ele>
        <time>2021-11-19T09:25:16Z</time>
      </trkpt>
      <trkpt lat="44.71965" lon="6.94534">
        <ele>2824</ele>
        <time>2021-11-19T09:25:19Z</time>
      </trkpt>
      <trkpt lat="44.71966" lon="6.94536">
        <ele>2825</ele>
        <time>2021-11-19T09:25:22Z</time>
      </trkpt>
      <trkpt lat="44.71966" lon="6.94539">
        <ele>2827</ele>
        <time>2021-11-19T09:25:26Z</time>
      </trkpt>
      <trkpt lat="44.71968" lon="6.9454">
        <ele>2828</ele>
        <time>2021-11-19T09:25:30Z</time>
      </trkpt>
      <trkpt lat="44.71968" lon="6.94544">
        <ele>2830</ele>
        <time>2021-11-19T09:25:36Z</time>
      </trkpt>
      <trkpt lat="44.7197" lon="6.94545">
        <ele>2830</ele>
        <time>2021-11-19T09:25:40Z</time>
      </trkpt>
      <trkpt lat="44.71972" lon="6.94547">
        <ele>2831</ele>
        <time>2021-11-19T09:25:44Z</time>
      </trkpt>
      <trkpt lat="44.71973" lon="6.94549">
        <ele>2832</ele>
        <time>2021-11-19T09:25:50Z</time>
      </trkpt>
      <trkpt lat="44.71974" lon="6.9455">
        <ele>2833</ele>
        <time>2021-11-19T09:25:56Z</time>
      </trkpt>
      <trkpt lat="44.71975" lon="6.9455">
        <ele>2835</ele>
        <time>2021-11-19T09:26:18Z</time>
      </trkpt>
      <trkpt lat="44.71972" lon="6.94554">
        <ele>2839</ele>
        <time>2021-11-19T09:26:26Z</time>
      </trkpt>
      <trkpt lat="44.71971" lon="6.94555">
        <ele>2840</ele>
        <time>2021-11-19T09:26:29Z</time>
      </trkpt>
      <trkpt lat="44.71969" lon="6.94555">
        <ele>2841</ele>
        <time>2021-11-19T09:26:33Z</time>
      </trkpt>
      <trkpt lat="44.71967" lon="6.94555">
        <ele>2841</ele>
        <time>2021-11-19T09:26:37Z</time>
      </trkpt>
      <trkpt lat="44.71965" lon="6.94557">
        <ele>2842</ele>
        <time>2021-11-19T09:26:41Z</time>
      </trkpt>
      <trkpt lat="44.71966" lon="6.94556">
        <ele>2843</ele>
        <time>2021-11-19T09:26:55Z</time>
      </trkpt>
      <trkpt lat="44.71967" lon="6.94556">
        <ele>2843</ele>
        <time>2021-11-19T09:26:59Z</time>
      </trkpt>
      <trkpt lat="44.71969" lon="6.94559">
        <ele>2843</ele>
        <time>2021-11-19T09:27:08Z</time>
      </trkpt>
      <trkpt lat="44.71971" lon="6.94561">
        <ele>2843</ele>
        <time>2021-11-19T09:27:12Z</time>
      </trkpt>
      <trkpt lat="44.71971" lon="6.94568">
        <ele>2845</ele>
        <time>2021-11-19T09:27:41Z</time>
      </trkpt>
      <trkpt lat="44.71967" lon="6.9457">
        <ele>2847</ele>
        <time>2021-11-19T09:27:49Z</time>
      </trkpt>
      <trkpt lat="44.71965" lon="6.94571">
        <ele>2848</ele>
        <time>2021-11-19T09:27:53Z</time>
      </trkpt>
      <trkpt lat="44.71964" lon="6.94572">
        <ele>2849</ele>
        <time>2021-11-19T09:27:57Z</time>
      </trkpt>
      <trkpt lat="44.71962" lon="6.94572">
        <ele>2850</ele>
        <time>2021-11-19T09:28:00Z</time>
      </trkpt>
      <trkpt lat="44.71961" lon="6.94573">
        <ele>2851</ele>
        <time>2021-11-19T09:28:03Z</time>
      </trkpt>
      <trkpt lat="44.71954" lon="6.94571">
        <ele>2855</ele>
        <time>2021-11-19T09:28:14Z</time>
      </trkpt>
      <trkpt lat="44.71952" lon="6.94571">
        <ele>2856</ele>
        <time>2021-11-19T09:28:25Z</time>
      </trkpt>
      <trkpt lat="44.71951" lon="6.94572">
        <ele>2856</ele>
        <time>2021-11-19T09:28:28Z</time>
      </trkpt>
      <trkpt lat="44.7195" lon="6.94574">
        <ele>2856</ele>
        <time>2021-11-19T09:28:31Z</time>
      </trkpt>
      <trkpt lat="44.71949" lon="6.94577">
        <ele>2856</ele>
        <time>2021-11-19T09:28:34Z</time>
      </trkpt>
      <trkpt lat="44.71945" lon="6.94575">
        <ele>2856</ele>
        <time>2021-11-19T09:28:41Z</time>
      </trkpt>
      <trkpt lat="44.71944" lon="6.94574">
        <ele>2856</ele>
        <time>2021-11-19T09:28:45Z</time>
      </trkpt>
      <trkpt lat="44.71942" lon="6.94574">
        <ele>2856</ele>
        <time>2021-11-19T09:28:49Z</time>
      </trkpt>
      <trkpt lat="44.71941" lon="6.94575">
        <ele>2856</ele>
        <time>2021-11-19T09:28:54Z</time>
      </trkpt>
      <trkpt lat="44.71939" lon="6.94575">
        <ele>2856</ele>
        <time>2021-11-19T09:28:58Z</time>
      </trkpt>
      <trkpt lat="44.71937" lon="6.94577">
        <ele>2856</ele>
        <time>2021-11-19T09:29:02Z</time>
      </trkpt>
      <trkpt lat="44.71936" lon="6.94577">
        <ele>2856</ele>
        <time>2021-11-19T09:29:07Z</time>
      </trkpt>
      <trkpt lat="44.71934" lon="6.94578">
        <ele>2856</ele>
        <time>2021-11-19T09:29:13Z</time>
      </trkpt>
      <trkpt lat="44.71933" lon="6.94579">
        <ele>2857</ele>
        <time>2021-11-19T09:29:19Z</time>
      </trkpt>
      <trkpt lat="44.71931" lon="6.94578">
        <ele>2857</ele>
        <time>2021-11-19T09:29:27Z</time>
      </trkpt>
      <trkpt lat="44.7193" lon="6.94577">
        <ele>2859</ele>
        <time>2021-11-19T09:29:57Z</time>
      </trkpt>
      <trkpt lat="44.71931" lon="6.94581">
        <ele>2859</ele>
        <time>2021-11-19T09:30:00Z</time>
      </trkpt>
      <trkpt lat="44.71933" lon="6.94582">
        <ele>2860</ele>
        <time>2021-11-19T09:30:02Z</time>
      </trkpt>
      <trkpt lat="44.71934" lon="6.94585">
        <ele>2861</ele>
        <time>2021-11-19T09:30:06Z</time>
      </trkpt>
      <trkpt lat="44.71934" lon="6.94588">
        <ele>2862</ele>
        <time>2021-11-19T09:30:11Z</time>
      </trkpt>
      <trkpt lat="44.71934" lon="6.94588">
        <ele>2862</ele>
        <time>2021-11-19T09:30:24Z</time>
      </trkpt>
      <trkpt lat="44.71932" lon="6.94589">
        <ele>2862</ele>
        <time>2021-11-19T09:30:43Z</time>
      </trkpt>
      <trkpt lat="44.7193" lon="6.9459">
        <ele>2866</ele>
        <time>2021-11-19T09:30:46Z</time>
      </trkpt>
      <trkpt lat="44.71928" lon="6.94592">
        <ele>2868</ele>
        <time>2021-11-19T09:30:50Z</time>
      </trkpt>
      <trkpt lat="44.71926" lon="6.94592">
        <ele>2871</ele>
        <time>2021-11-19T09:30:54Z</time>
      </trkpt>
      <trkpt lat="44.71927" lon="6.94595">
        <ele>2873</ele>
        <time>2021-11-19T09:31:01Z</time>
      </trkpt>
      <trkpt lat="44.71927" lon="6.94598">
        <ele>2874</ele>
        <time>2021-11-19T09:31:04Z</time>
      </trkpt>
      <trkpt lat="44.71926" lon="6.94601">
        <ele>2875</ele>
        <time>2021-11-19T09:31:07Z</time>
      </trkpt>
      <trkpt lat="44.71927" lon="6.94606">
        <ele>2876</ele>
        <time>2021-11-19T09:31:17Z</time>
      </trkpt>
      <trkpt lat="44.71929" lon="6.94608">
        <ele>2876</ele>
        <time>2021-11-19T09:31:20Z</time>
      </trkpt>
      <trkpt lat="44.71931" lon="6.94613">
        <ele>2877</ele>
        <time>2021-11-19T09:31:28Z</time>
      </trkpt>
      <trkpt lat="44.71933" lon="6.94613">
        <ele>2877</ele>
        <time>2021-11-19T09:31:31Z</time>
      </trkpt>
      <trkpt lat="44.71935" lon="6.94612">
        <ele>2878</ele>
        <time>2021-11-19T09:31:35Z</time>
      </trkpt>
      <trkpt lat="44.71938" lon="6.94613">
        <ele>2878</ele>
        <time>2021-11-19T09:31:39Z</time>
      </trkpt>
      <trkpt lat="44.7194" lon="6.94614">
        <ele>2879</ele>
        <time>2021-11-19T09:31:42Z</time>
      </trkpt>
      <trkpt lat="44.71941" lon="6.94616">
        <ele>2879</ele>
        <time>2021-11-19T09:31:47Z</time>
      </trkpt>
      <trkpt lat="44.7194" lon="6.94619">
        <ele>2879</ele>
        <time>2021-11-19T09:31:51Z</time>
      </trkpt>
      <trkpt lat="44.71937" lon="6.94619">
        <ele>2880</ele>
        <time>2021-11-19T09:32:23Z</time>
      </trkpt>
      <trkpt lat="44.71937" lon="6.94616">
        <ele>2880</ele>
        <time>2021-11-19T09:32:33Z</time>
      </trkpt>
      <trkpt lat="44.71936" lon="6.94614">
        <ele>2881</ele>
        <time>2021-11-19T09:32:36Z</time>
      </trkpt>
      <trkpt lat="44.71934" lon="6.94613">
        <ele>2882</ele>
        <time>2021-11-19T09:32:54Z</time>
      </trkpt>
      <trkpt lat="44.71932" lon="6.94612">
        <ele>2882</ele>
        <time>2021-11-19T09:32:57Z</time>
      </trkpt>
      <trkpt lat="44.7193" lon="6.94614">
        <ele>2883</ele>
        <time>2021-11-19T09:33:00Z</time>
      </trkpt>
      <trkpt lat="44.71929" lon="6.94615">
        <ele>2882</ele>
        <time>2021-11-19T09:33:04Z</time>
      </trkpt>
      <trkpt lat="44.71927" lon="6.94614">
        <ele>2882</ele>
        <time>2021-11-19T09:33:09Z</time>
      </trkpt>
      <trkpt lat="44.71927" lon="6.9461">
        <ele>2881</ele>
        <time>2021-11-19T09:33:21Z</time>
      </trkpt>
      <trkpt lat="44.71929" lon="6.94617">
        <ele>2880</ele>
        <time>2021-11-19T09:33:41Z</time>
      </trkpt>
      <trkpt lat="44.71936" lon="6.94617">
        <ele>2880</ele>
        <time>2021-11-19T09:33:47Z</time>
      </trkpt>
      <trkpt lat="44.71936" lon="6.9462">
        <ele>2880</ele>
        <time>2021-11-19T09:33:52Z</time>
      </trkpt>
      <trkpt lat="44.71936" lon="6.94621">
        <ele>2886</ele>
        <time>2021-11-19T09:36:50Z</time>
      </trkpt>
      <trkpt lat="44.71937" lon="6.94621">
        <ele>2887</ele>
        <time>2021-11-19T09:36:54Z</time>
      </trkpt>
      <trkpt lat="44.71938" lon="6.94622">
        <ele>2887</ele>
        <time>2021-11-19T09:37:00Z</time>
      </trkpt>
      <trkpt lat="44.71939" lon="6.94624">
        <ele>2887</ele>
        <time>2021-11-19T09:37:12Z</time>
      </trkpt>
      <trkpt lat="44.71939" lon="6.9463">
        <ele>2887</ele>
        <time>2021-11-19T09:37:35Z</time>
      </trkpt>
      <trkpt lat="44.71941" lon="6.9463">
        <ele>2888</ele>
        <time>2021-11-19T09:37:39Z</time>
      </trkpt>
      <trkpt lat="44.71943" lon="6.94629">
        <ele>2888</ele>
        <time>2021-11-19T09:37:56Z</time>
      </trkpt>
      <trkpt lat="44.7194" lon="6.9463">
        <ele>2888</ele>
        <time>2021-11-19T09:37:59Z</time>
      </trkpt>
      <trkpt lat="44.71935" lon="6.94628">
        <ele>2888</ele>
        <time>2021-11-19T09:38:08Z</time>
      </trkpt>
      <trkpt lat="44.71933" lon="6.94629">
        <ele>2887</ele>
        <time>2021-11-19T09:38:10Z</time>
      </trkpt>
      <trkpt lat="44.71931" lon="6.94632">
        <ele>2882</ele>
        <time>2021-11-19T09:38:27Z</time>
      </trkpt>
      <trkpt lat="44.7193" lon="6.94631">
        <ele>2880</ele>
        <time>2021-11-19T09:39:06Z</time>
      </trkpt>
      <trkpt lat="44.71929" lon="6.94627">
        <ele>2882</ele>
        <time>2021-11-19T09:39:27Z</time>
      </trkpt>
      <trkpt lat="44.71927" lon="6.9463">
        <ele>2883</ele>
        <time>2021-11-19T09:39:31Z</time>
      </trkpt>
      <trkpt lat="44.7192" lon="6.94632">
        <ele>2883</ele>
        <time>2021-11-19T09:39:51Z</time>
      </trkpt>
      <trkpt lat="44.71918" lon="6.94628">
        <ele>2883</ele>
        <time>2021-11-19T09:39:53Z</time>
      </trkpt>
      <trkpt lat="44.71917" lon="6.94625">
        <ele>2882</ele>
        <time>2021-11-19T09:39:55Z</time>
      </trkpt>
      <trkpt lat="44.71914" lon="6.94625">
        <ele>2881</ele>
        <time>2021-11-19T09:39:58Z</time>
      </trkpt>
      <trkpt lat="44.71915" lon="6.9462">
        <ele>2880</ele>
        <time>2021-11-19T09:40:02Z</time>
      </trkpt>
      <trkpt lat="44.71913" lon="6.94602">
        <ele>2876</ele>
        <time>2021-11-19T09:40:07Z</time>
      </trkpt>
      <trkpt lat="44.71911" lon="6.94609">
        <ele>2875</ele>
        <time>2021-11-19T09:40:12Z</time>
      </trkpt>
      <trkpt lat="44.71898" lon="6.94641">
        <ele>2869</ele>
        <time>2021-11-19T09:40:18Z</time>
      </trkpt>
      <trkpt lat="44.71904" lon="6.94631">
        <ele>2868</ele>
        <time>2021-11-19T09:40:19Z</time>
      </trkpt>
      <trkpt lat="44.71911" lon="6.94625">
        <ele>2862</ele>
        <time>2021-11-19T09:40:22Z</time>
      </trkpt>
      <trkpt lat="44.71909" lon="6.94628">
        <ele>2860</ele>
        <time>2021-11-19T09:40:23Z</time>
      </trkpt>
      <trkpt lat="44.71914" lon="6.94629">
        <ele>2860</ele>
        <time>2021-11-19T09:40:25Z</time>
      </trkpt>
      <trkpt lat="44.71917" lon="6.94625">
        <ele>2860</ele>
        <time>2021-11-19T09:40:28Z</time>
      </trkpt>
      <trkpt lat="44.71928" lon="6.94627">
        <ele>2878</ele>
        <time>2021-11-19T09:40:30Z</time>
      </trkpt>
      <trkpt lat="44.71927" lon="6.94627">
        <ele>2892</ele>
        <time>2021-11-19T09:40:40Z</time>
      </trkpt>
      <trkpt lat="44.71926" lon="6.94626">
        <ele>2894</ele>
        <time>2021-11-19T09:40:44Z</time>
      </trkpt>
      <trkpt lat="44.71925" lon="6.94628">
        <ele>2894</ele>
        <time>2021-11-19T09:40:47Z</time>
      </trkpt>
      <trkpt lat="44.71924" lon="6.94629">
        <ele>2894</ele>
        <time>2021-11-19T09:40:50Z</time>
      </trkpt>
      <trkpt lat="44.71923" lon="6.9463">
        <ele>2894</ele>
        <time>2021-11-19T09:40:58Z</time>
      </trkpt>
      <trkpt lat="44.71923" lon="6.94628">
        <ele>2894</ele>
        <time>2021-11-19T09:41:02Z</time>
      </trkpt>
      <trkpt lat="44.71923" lon="6.94626">
        <ele>2894</ele>
        <time>2021-11-19T09:41:05Z</time>
      </trkpt>
      <trkpt lat="44.71923" lon="6.94628">
        <ele>2896</ele>
        <time>2021-11-19T09:41:28Z</time>
      </trkpt>
      <trkpt lat="44.71924" lon="6.94629">
        <ele>2896</ele>
        <time>2021-11-19T09:41:33Z</time>
      </trkpt>
      <trkpt lat="44.71923" lon="6.94632">
        <ele>2895</ele>
        <time>2021-11-19T09:41:42Z</time>
      </trkpt>
      <trkpt lat="44.7192" lon="6.9463">
        <ele>2894</ele>
        <time>2021-11-19T09:44:29Z</time>
      </trkpt>
      <trkpt lat="44.71921" lon="6.94632">
        <ele>2895</ele>
        <time>2021-11-19T09:44:31Z</time>
      </trkpt>
      <trkpt lat="44.71922" lon="6.9463">
        <ele>2894</ele>
        <time>2021-11-19T09:44:35Z</time>
      </trkpt>
      <trkpt lat="44.71922" lon="6.94628">
        <ele>2893</ele>
        <time>2021-11-19T09:47:18Z</time>
      </trkpt>
      <trkpt lat="44.71921" lon="6.94628">
        <ele>2891</ele>
        <time>2021-11-19T09:47:56Z</time>
      </trkpt>
      <trkpt lat="44.7192" lon="6.94629">
        <ele>2891</ele>
        <time>2021-11-19T09:50:51Z</time>
      </trkpt>
      <trkpt lat="44.71918" lon="6.94632">
        <ele>2893</ele>
        <time>2021-11-19T09:51:14Z</time>
      </trkpt>
      <trkpt lat="44.71919" lon="6.94624">
        <ele>2892</ele>
        <time>2021-11-19T09:51:48Z</time>
      </trkpt>
      <trkpt lat="44.7192" lon="6.94623">
        <ele>2889</ele>
        <time>2021-11-19T09:52:02Z</time>
      </trkpt>
      <trkpt lat="44.71921" lon="6.94625">
        <ele>2889</ele>
        <time>2021-11-19T09:52:06Z</time>
      </trkpt>
      <trkpt lat="44.71918" lon="6.94629">
        <ele>2890</ele>
        <time>2021-11-19T09:53:34Z</time>
      </trkpt>
      <trkpt lat="44.71917" lon="6.94629">
        <ele>2891</ele>
        <time>2021-11-19T09:53:36Z</time>
      </trkpt>
      <trkpt lat="44.71915" lon="6.94628">
        <ele>2892</ele>
        <time>2021-11-19T09:53:40Z</time>
      </trkpt>
      <trkpt lat="44.71916" lon="6.94626">
        <ele>2892</ele>
        <time>2021-11-19T09:53:45Z</time>
      </trkpt>
      <trkpt lat="44.71916" lon="6.94625">
        <ele>2892</ele>
        <time>2021-11-19T09:53:56Z</time>
      </trkpt>
      <trkpt lat="44.71918" lon="6.94627">
        <ele>2892</ele>
        <time>2021-11-19T09:54:40Z</time>
      </trkpt>
      <trkpt lat="44.71919" lon="6.94629">
        <ele>2892</ele>
        <time>2021-11-19T09:54:56Z</time>
      </trkpt>
      <trkpt lat="44.71918" lon="6.94625">
        <ele>2892</ele>
        <time>2021-11-19T09:55:06Z</time>
      </trkpt>
      <trkpt lat="44.71918" lon="6.94626">
        <ele>2893</ele>
        <time>2021-11-19T09:55:32Z</time>
      </trkpt>
      <trkpt lat="44.71931" lon="6.94598">
        <ele>2891</ele>
        <time>2021-11-19T09:55:37Z</time>
      </trkpt>
      <trkpt lat="44.71938" lon="6.94582">
        <ele>2888</ele>
        <time>2021-11-19T09:55:39Z</time>
      </trkpt>
      <trkpt lat="44.71943" lon="6.94574">
        <ele>2886</ele>
        <time>2021-11-19T09:55:40Z</time>
      </trkpt>
      <trkpt lat="44.71948" lon="6.94566">
        <ele>2883</ele>
        <time>2021-11-19T09:55:41Z</time>
      </trkpt>
      <trkpt lat="44.7196" lon="6.94543">
        <ele>2876</ele>
        <time>2021-11-19T09:55:44Z</time>
      </trkpt>
      <trkpt lat="44.71966" lon="6.94522">
        <ele>2865</ele>
        <time>2021-11-19T09:55:47Z</time>
      </trkpt>
      <trkpt lat="44.71966" lon="6.94514">
        <ele>2860</ele>
        <time>2021-11-19T09:55:48Z</time>
      </trkpt>
      <trkpt lat="44.71966" lon="6.94505">
        <ele>2856</ele>
        <time>2021-11-19T09:55:49Z</time>
      </trkpt>
      <trkpt lat="44.71964" lon="6.94471">
        <ele>2843</ele>
        <time>2021-11-19T09:55:53Z</time>
      </trkpt>
      <trkpt lat="44.71964" lon="6.94462">
        <ele>2839</ele>
        <time>2021-11-19T09:55:54Z</time>
      </trkpt>
      <trkpt lat="44.71968" lon="6.94453">
        <ele>2835</ele>
        <time>2021-11-19T09:55:55Z</time>
      </trkpt>
      <trkpt lat="44.7197" lon="6.94434">
        <ele>2828</ele>
        <time>2021-11-19T09:55:57Z</time>
      </trkpt>
      <trkpt lat="44.71974" lon="6.94426">
        <ele>2825</ele>
        <time>2021-11-19T09:55:58Z</time>
      </trkpt>
      <trkpt lat="44.71977" lon="6.94417">
        <ele>2820</ele>
        <time>2021-11-19T09:55:59Z</time>
      </trkpt>
      <trkpt lat="44.71976" lon="6.94407">
        <ele>2816</ele>
        <time>2021-11-19T09:56:00Z</time>
      </trkpt>
      <trkpt lat="44.71982" lon="6.94391">
        <ele>2808</ele>
        <time>2021-11-19T09:56:02Z</time>
      </trkpt>
      <trkpt lat="44.71983" lon="6.94383">
        <ele>2806</ele>
        <time>2021-11-19T09:56:03Z</time>
      </trkpt>
      <trkpt lat="44.71986" lon="6.94366">
        <ele>2800</ele>
        <time>2021-11-19T09:56:05Z</time>
      </trkpt>
      <trkpt lat="44.71985" lon="6.94359">
        <ele>2795</ele>
        <time>2021-11-19T09:56:06Z</time>
      </trkpt>
      <trkpt lat="44.71982" lon="6.94349">
        <ele>2793</ele>
        <time>2021-11-19T09:56:07Z</time>
      </trkpt>
      <trkpt lat="44.71982" lon="6.94322">
        <ele>2786</ele>
        <time>2021-11-19T09:56:10Z</time>
      </trkpt>
      <trkpt lat="44.71984" lon="6.94315">
        <ele>2784</ele>
        <time>2021-11-19T09:56:11Z</time>
      </trkpt>
      <trkpt lat="44.71986" lon="6.94306">
        <ele>2781</ele>
        <time>2021-11-19T09:56:12Z</time>
      </trkpt>
      <trkpt lat="44.71988" lon="6.94299">
        <ele>2778</ele>
        <time>2021-11-19T09:56:13Z</time>
      </trkpt>
      <trkpt lat="44.7199" lon="6.94299">
        <ele>2776</ele>
        <time>2021-11-19T09:56:14Z</time>
      </trkpt>
      <trkpt lat="44.71997" lon="6.94311">
        <ele>2762</ele>
        <time>2021-11-19T09:56:27Z</time>
      </trkpt>
      <trkpt lat="44.71999" lon="6.9431">
        <ele>2757</ele>
        <time>2021-11-19T09:56:45Z</time>
      </trkpt>
      <trkpt lat="44.71999" lon="6.94308">
        <ele>2748</ele>
        <time>2021-11-19T09:57:44Z</time>
      </trkpt>
      <trkpt lat="44.72004" lon="6.9423">
        <ele>2739</ele>
        <time>2021-11-19T09:57:51Z</time>
      </trkpt>
      <trkpt lat="44.72007" lon="6.94218">
        <ele>2737</ele>
        <time>2021-11-19T09:57:52Z</time>
      </trkpt>
      <trkpt lat="44.72009" lon="6.94207">
        <ele>2735</ele>
        <time>2021-11-19T09:57:53Z</time>
      </trkpt>
      <trkpt lat="44.7201" lon="6.94196">
        <ele>2732</ele>
        <time>2021-11-19T09:57:54Z</time>
      </trkpt>
      <trkpt lat="44.72022" lon="6.94133">
        <ele>2706</ele>
        <time>2021-11-19T09:58:00Z</time>
      </trkpt>
      <trkpt lat="44.72021" lon="6.94122">
        <ele>2701</ele>
        <time>2021-11-19T09:58:01Z</time>
      </trkpt>
      <trkpt lat="44.72023" lon="6.94112">
        <ele>2695</ele>
        <time>2021-11-19T09:58:02Z</time>
      </trkpt>
      <trkpt lat="44.72023" lon="6.94099">
        <ele>2693</ele>
        <time>2021-11-19T09:58:03Z</time>
      </trkpt>
      <trkpt lat="44.72024" lon="6.94089">
        <ele>2689</ele>
        <time>2021-11-19T09:58:04Z</time>
      </trkpt>
      <trkpt lat="44.72027" lon="6.94067">
        <ele>2685</ele>
        <time>2021-11-19T09:58:06Z</time>
      </trkpt>
      <trkpt lat="44.7203" lon="6.94057">
        <ele>2681</ele>
        <time>2021-11-19T09:58:07Z</time>
      </trkpt>
      <trkpt lat="44.72033" lon="6.94046">
        <ele>2678</ele>
        <time>2021-11-19T09:58:08Z</time>
      </trkpt>
      <trkpt lat="44.72042" lon="6.94024">
        <ele>2669</ele>
        <time>2021-11-19T09:58:10Z</time>
      </trkpt>
      <trkpt lat="44.72051" lon="6.94007">
        <ele>2662</ele>
        <time>2021-11-19T09:58:12Z</time>
      </trkpt>
      <trkpt lat="44.72053" lon="6.93997">
        <ele>2661</ele>
        <time>2021-11-19T09:58:13Z</time>
      </trkpt>
      <trkpt lat="44.72056" lon="6.93966">
        <ele>2656</ele>
        <time>2021-11-19T09:58:16Z</time>
      </trkpt>
      <trkpt lat="44.72058" lon="6.93953">
        <ele>2653</ele>
        <time>2021-11-19T09:58:17Z</time>
      </trkpt>
      <trkpt lat="44.7206" lon="6.93942">
        <ele>2651</ele>
        <time>2021-11-19T09:58:18Z</time>
      </trkpt>
      <trkpt lat="44.72064" lon="6.93931">
        <ele>2649</ele>
        <time>2021-11-19T09:58:19Z</time>
      </trkpt>
      <trkpt lat="44.72095" lon="6.93843">
        <ele>2623</ele>
        <time>2021-11-19T09:58:27Z</time>
      </trkpt>
      <trkpt lat="44.721" lon="6.93831">
        <ele>2620</ele>
        <time>2021-11-19T09:58:28Z</time>
      </trkpt>
      <trkpt lat="44.72107" lon="6.9382">
        <ele>2616</ele>
        <time>2021-11-19T09:58:29Z</time>
      </trkpt>
      <trkpt lat="44.72116" lon="6.93797">
        <ele>2606</ele>
        <time>2021-11-19T09:58:31Z</time>
      </trkpt>
      <trkpt lat="44.7212" lon="6.93787">
        <ele>2602</ele>
        <time>2021-11-19T09:58:32Z</time>
      </trkpt>
      <trkpt lat="44.72126" lon="6.93779">
        <ele>2598</ele>
        <time>2021-11-19T09:58:33Z</time>
      </trkpt>
      <trkpt lat="44.72133" lon="6.93772">
        <ele>2592</ele>
        <time>2021-11-19T09:58:36Z</time>
      </trkpt>
      <trkpt lat="44.72133" lon="6.9378">
        <ele>2581</ele>
        <time>2021-11-19T09:59:13Z</time>
      </trkpt>
      <trkpt lat="44.72131" lon="6.93781">
        <ele>2576</ele>
        <time>2021-11-19T09:59:34Z</time>
      </trkpt>
      <trkpt lat="44.72135" lon="6.93781">
        <ele>2575</ele>
        <time>2021-11-19T10:03:00Z</time>
      </trkpt>
      <trkpt lat="44.72132" lon="6.93768">
        <ele>2569</ele>
        <time>2021-11-19T10:03:01Z</time>
      </trkpt>
      <trkpt lat="44.72137" lon="6.93778">
        <ele>2564</ele>
        <time>2021-11-19T10:03:49Z</time>
      </trkpt>
      <trkpt lat="44.72138" lon="6.93791">
        <ele>2569</ele>
        <time>2021-11-19T10:11:03Z</time>
      </trkpt>
      <trkpt lat="44.72141" lon="6.93807">
        <ele>2573</ele>
        <time>2021-11-19T10:12:24Z</time>
      </trkpt>
      <trkpt lat="44.72146" lon="6.93842">
        <ele>2575</ele>
        <time>2021-11-19T10:12:56Z</time>
      </trkpt>
      <trkpt lat="44.72142" lon="6.93857">
        <ele>2579</ele>
        <time>2021-11-19T10:13:14Z</time>
      </trkpt>
      <trkpt lat="44.72134" lon="6.93867">
        <ele>2583</ele>
        <time>2021-11-19T10:13:45Z</time>
      </trkpt>
      <trkpt lat="44.72126" lon="6.93876">
        <ele>2586</ele>
        <time>2021-11-19T10:14:03Z</time>
      </trkpt>
      <trkpt lat="44.72105" lon="6.93889">
        <ele>2592</ele>
        <time>2021-11-19T10:14:38Z</time>
      </trkpt>
      <trkpt lat="44.72095" lon="6.93895">
        <ele>2596</ele>
        <time>2021-11-19T10:14:57Z</time>
      </trkpt>
      <trkpt lat="44.72101" lon="6.93904">
        <ele>2601</ele>
        <time>2021-11-19T10:15:37Z</time>
      </trkpt>
      <trkpt lat="44.72102" lon="6.93905">
        <ele>2604</ele>
        <time>2021-11-19T10:15:40Z</time>
      </trkpt>
      <trkpt lat="44.72097" lon="6.93916">
        <ele>2606</ele>
        <time>2021-11-19T10:16:06Z</time>
      </trkpt>
      <trkpt lat="44.72087" lon="6.93922">
        <ele>2608</ele>
        <time>2021-11-19T10:16:25Z</time>
      </trkpt>
      <trkpt lat="44.72069" lon="6.93939">
        <ele>2616</ele>
        <time>2021-11-19T10:17:05Z</time>
      </trkpt>
      <trkpt lat="44.72063" lon="6.93952">
        <ele>2621</ele>
        <time>2021-11-19T10:17:24Z</time>
      </trkpt>
      <trkpt lat="44.7205" lon="6.93977">
        <ele>2628</ele>
        <time>2021-11-19T10:18:06Z</time>
      </trkpt>
      <trkpt lat="44.72048" lon="6.93979">
        <ele>2629</ele>
        <time>2021-11-19T10:18:09Z</time>
      </trkpt>
      <trkpt lat="44.72043" lon="6.93983">
        <ele>2630</ele>
        <time>2021-11-19T10:18:27Z</time>
      </trkpt>
      <trkpt lat="44.72026" lon="6.9401">
        <ele>2630</ele>
        <time>2021-11-19T10:19:15Z</time>
      </trkpt>
      <trkpt lat="44.72022" lon="6.94017">
        <ele>2631</ele>
        <time>2021-11-19T10:19:23Z</time>
      </trkpt>
      <trkpt lat="44.7202" lon="6.94018">
        <ele>2631</ele>
        <time>2021-11-19T10:19:25Z</time>
      </trkpt>
      <trkpt lat="44.72008" lon="6.94046">
        <ele>2641</ele>
        <time>2021-11-19T10:19:58Z</time>
      </trkpt>
      <trkpt lat="44.71993" lon="6.94069">
        <ele>2652</ele>
        <time>2021-11-19T10:20:35Z</time>
      </trkpt>
      <trkpt lat="44.71988" lon="6.94087">
        <ele>2660</ele>
        <time>2021-11-19T10:21:05Z</time>
      </trkpt>
      <trkpt lat="44.71985" lon="6.9409">
        <ele>2660</ele>
        <time>2021-11-19T10:21:10Z</time>
      </trkpt>
      <trkpt lat="44.71972" lon="6.94111">
        <ele>2660</ele>
        <time>2021-11-19T10:22:13Z</time>
      </trkpt>
      <trkpt lat="44.71959" lon="6.94134">
        <ele>2667</ele>
        <time>2021-11-19T10:22:48Z</time>
      </trkpt>
      <trkpt lat="44.71949" lon="6.94143">
        <ele>2665</ele>
        <time>2021-11-19T10:23:15Z</time>
      </trkpt>
      <trkpt lat="44.71952" lon="6.94155">
        <ele>2667</ele>
        <time>2021-11-19T10:23:46Z</time>
      </trkpt>
      <trkpt lat="44.71951" lon="6.94157">
        <ele>2669</ele>
        <time>2021-11-19T10:23:49Z</time>
      </trkpt>
      <trkpt lat="44.71943" lon="6.94163">
        <ele>2671</ele>
        <time>2021-11-19T10:24:09Z</time>
      </trkpt>
      <trkpt lat="44.71928" lon="6.94185">
        <ele>2676</ele>
        <time>2021-11-19T10:24:56Z</time>
      </trkpt>
      <trkpt lat="44.71909" lon="6.94198">
        <ele>2679</ele>
        <time>2021-11-19T10:25:37Z</time>
      </trkpt>
      <trkpt lat="44.71897" lon="6.94203">
        <ele>2680</ele>
        <time>2021-11-19T10:26:10Z</time>
      </trkpt>
      <trkpt lat="44.71897" lon="6.94216">
        <ele>2689</ele>
        <time>2021-11-19T10:27:10Z</time>
      </trkpt>
      <trkpt lat="44.71888" lon="6.94224">
        <ele>2698</ele>
        <time>2021-11-19T10:28:04Z</time>
      </trkpt>
      <trkpt lat="44.7187" lon="6.94239">
        <ele>2701</ele>
        <time>2021-11-19T10:28:43Z</time>
      </trkpt>
      <trkpt lat="44.71852" lon="6.94256">
        <ele>2702</ele>
        <time>2021-11-19T10:29:27Z</time>
      </trkpt>
      <trkpt lat="44.71843" lon="6.94263">
        <ele>2705</ele>
        <time>2021-11-19T10:29:51Z</time>
      </trkpt>
      <trkpt lat="44.71833" lon="6.94271">
        <ele>2709</ele>
        <time>2021-11-19T10:30:13Z</time>
      </trkpt>
      <trkpt lat="44.71824" lon="6.94278">
        <ele>2713</ele>
        <time>2021-11-19T10:30:35Z</time>
      </trkpt>
      <trkpt lat="44.71813" lon="6.94286">
        <ele>2716</ele>
        <time>2021-11-19T10:31:22Z</time>
      </trkpt>
      <trkpt lat="44.71805" lon="6.9429">
        <ele>2718</ele>
        <time>2021-11-19T10:32:35Z</time>
      </trkpt>
      <trkpt lat="44.71796" lon="6.94299">
        <ele>2721</ele>
        <time>2021-11-19T10:32:53Z</time>
      </trkpt>
      <trkpt lat="44.71785" lon="6.94304">
        <ele>2725</ele>
        <time>2021-11-19T10:33:12Z</time>
      </trkpt>
      <trkpt lat="44.71788" lon="6.94317">
        <ele>2730</ele>
        <time>2021-11-19T10:33:50Z</time>
      </trkpt>
      <trkpt lat="44.71799" lon="6.94326">
        <ele>2733</ele>
        <time>2021-11-19T10:34:52Z</time>
      </trkpt>
      <trkpt lat="44.718" lon="6.94339">
        <ele>2735</ele>
        <time>2021-11-19T10:34:53Z</time>
      </trkpt>
      <trkpt lat="44.71791" lon="6.94346">
        <ele>2738</ele>
        <time>2021-11-19T10:35:16Z</time>
      </trkpt>
      <trkpt lat="44.71782" lon="6.94354">
        <ele>2741</ele>
        <time>2021-11-19T10:35:37Z</time>
      </trkpt>
      <trkpt lat="44.71783" lon="6.94368">
        <ele>2745</ele>
        <time>2021-11-19T10:36:08Z</time>
      </trkpt>
      <trkpt lat="44.71791" lon="6.94377">
        <ele>2749</ele>
        <time>2021-11-19T10:37:15Z</time>
      </trkpt>
      <trkpt lat="44.71793" lon="6.94379">
        <ele>2750</ele>
        <time>2021-11-19T10:37:18Z</time>
      </trkpt>
      <trkpt lat="44.71812" lon="6.94388">
        <ele>2755</ele>
        <time>2021-11-19T10:38:08Z</time>
      </trkpt>
      <trkpt lat="44.71822" lon="6.94394">
        <ele>2757</ele>
        <time>2021-11-19T10:38:41Z</time>
      </trkpt>
      <trkpt lat="44.71825" lon="6.94395">
        <ele>2758</ele>
        <time>2021-11-19T10:38:44Z</time>
      </trkpt>
      <trkpt lat="44.71845" lon="6.94396">
        <ele>2764</ele>
        <time>2021-11-19T10:39:15Z</time>
      </trkpt>
      <trkpt lat="44.71866" lon="6.94407">
        <ele>2779</ele>
        <time>2021-11-19T10:40:00Z</time>
      </trkpt>
      <trkpt lat="44.71876" lon="6.94413">
        <ele>2782</ele>
        <time>2021-11-19T10:40:22Z</time>
      </trkpt>
      <trkpt lat="44.71872" lon="6.94418">
        <ele>2782</ele>
        <time>2021-11-19T10:41:07Z</time>
      </trkpt>
      <trkpt lat="44.71864" lon="6.94429">
        <ele>2779</ele>
        <time>2021-11-19T10:41:29Z</time>
      </trkpt>
      <trkpt lat="44.71861" lon="6.94424">
        <ele>2784</ele>
        <time>2021-11-19T10:41:30Z</time>
      </trkpt>
      <trkpt lat="44.71869" lon="6.94432">
        <ele>2798</ele>
        <time>2021-11-19T10:42:06Z</time>
      </trkpt>
      <trkpt lat="44.71887" lon="6.94445">
        <ele>2799</ele>
        <time>2021-11-19T10:42:40Z</time>
      </trkpt>
      <trkpt lat="44.71871" lon="6.9446">
        <ele>2801</ele>
        <time>2021-11-19T10:43:31Z</time>
      </trkpt>
      <trkpt lat="44.71876" lon="6.94471">
        <ele>2803</ele>
        <time>2021-11-19T10:44:34Z</time>
      </trkpt>
      <trkpt lat="44.71886" lon="6.94476">
        <ele>2805</ele>
        <time>2021-11-19T10:44:55Z</time>
      </trkpt>
      <trkpt lat="44.71897" lon="6.94477">
        <ele>2808</ele>
        <time>2021-11-19T10:45:18Z</time>
      </trkpt>
      <trkpt lat="44.71907" lon="6.94481">
        <ele>2812</ele>
        <time>2021-11-19T10:46:04Z</time>
      </trkpt>
      <trkpt lat="44.71923" lon="6.94489">
        <ele>2817</ele>
        <time>2021-11-19T10:46:44Z</time>
      </trkpt>
      <trkpt lat="44.71929" lon="6.94492">
        <ele>2818</ele>
        <time>2021-11-19T10:46:57Z</time>
      </trkpt>
      <trkpt lat="44.71931" lon="6.94491">
        <ele>2821</ele>
        <time>2021-11-19T10:47:01Z</time>
      </trkpt>
      <trkpt lat="44.7194" lon="6.94492">
        <ele>2824</ele>
        <time>2021-11-19T10:48:12Z</time>
      </trkpt>
      <trkpt lat="44.71952" lon="6.94518">
        <ele>2830</ele>
        <time>2021-11-19T10:49:12Z</time>
      </trkpt>
      <trkpt lat="44.7196" lon="6.94529">
        <ele>2830</ele>
        <time>2021-11-19T10:49:31Z</time>
      </trkpt>
      <trkpt lat="44.71967" lon="6.94539">
        <ele>2832</ele>
        <time>2021-11-19T10:49:52Z</time>
      </trkpt>
      <trkpt lat="44.71976" lon="6.94549">
        <ele>2834</ele>
        <time>2021-11-19T10:50:28Z</time>
      </trkpt>
      <trkpt lat="44.71967" lon="6.94555">
        <ele>2838</ele>
        <time>2021-11-19T10:51:04Z</time>
      </trkpt>
      <trkpt lat="44.71965" lon="6.94557">
        <ele>2840</ele>
        <time>2021-11-19T10:51:08Z</time>
      </trkpt>
      <trkpt lat="44.71965" lon="6.94569">
        <ele>2847</ele>
        <time>2021-11-19T10:52:08Z</time>
      </trkpt>
      <trkpt lat="44.71955" lon="6.9457">
        <ele>2854</ele>
        <time>2021-11-19T10:52:27Z</time>
      </trkpt>
      <trkpt lat="44.71944" lon="6.94571">
        <ele>2857</ele>
        <time>2021-11-19T10:52:50Z</time>
      </trkpt>
      <trkpt lat="44.71932" lon="6.94573">
        <ele>2860</ele>
        <time>2021-11-19T10:54:01Z</time>
      </trkpt>
      <trkpt lat="44.71932" lon="6.94586">
        <ele>2867</ele>
        <time>2021-11-19T10:55:10Z</time>
      </trkpt>
      <trkpt lat="44.71931" lon="6.94587">
        <ele>2872</ele>
        <time>2021-11-19T10:55:50Z</time>
      </trkpt>
      <trkpt lat="44.71926" lon="6.94598">
        <ele>2874</ele>
        <time>2021-11-19T10:56:45Z</time>
      </trkpt>
      <trkpt lat="44.71926" lon="6.94601">
        <ele>2875</ele>
        <time>2021-11-19T10:57:11Z</time>
      </trkpt>
      <trkpt lat="44.71917" lon="6.94606">
        <ele>2881</ele>
        <time>2021-11-19T10:58:18Z</time>
      </trkpt>
      <trkpt lat="44.71916" lon="6.94618">
        <ele>2888</ele>
        <time>2021-11-19T10:59:33Z</time>
      </trkpt>
      <trkpt lat="44.71924" lon="6.94627">
        <ele>2894</ele>
        <time>2021-11-19T11:00:56Z</time>
      </trkpt>
      <trkpt lat="44.71925" lon="6.94625">
        <ele>2894</ele>
        <time>2021-11-19T11:10:04Z</time>
      </trkpt>
      <trkpt lat="44.71919" lon="6.9462">
        <ele>2891</ele>
        <time>2021-11-19T11:11:23Z</time>
      </trkpt>
      <trkpt lat="44.7192" lon="6.94556">
        <ele>2884</ele>
        <time>2021-11-19T11:11:29Z</time>
      </trkpt>
      <trkpt lat="44.71918" lon="6.94547">
        <ele>2883</ele>
        <time>2021-11-19T11:11:30Z</time>
      </trkpt>
      <trkpt lat="44.71918" lon="6.94455">
        <ele>2870</ele>
        <time>2021-11-19T11:11:39Z</time>
      </trkpt>
      <trkpt lat="44.71921" lon="6.94447">
        <ele>2868</ele>
        <time>2021-11-19T11:11:40Z</time>
      </trkpt>
      <trkpt lat="44.71924" lon="6.94439">
        <ele>2865</ele>
        <time>2021-11-19T11:11:41Z</time>
      </trkpt>
      <trkpt lat="44.71928" lon="6.94428">
        <ele>2863</ele>
        <time>2021-11-19T11:11:42Z</time>
      </trkpt>
      <trkpt lat="44.71934" lon="6.94421">
        <ele>2859</ele>
        <time>2021-11-19T11:11:44Z</time>
      </trkpt>
      <trkpt lat="44.71934" lon="6.94425">
        <ele>2855</ele>
        <time>2021-11-19T11:11:47Z</time>
      </trkpt>
      <trkpt lat="44.71929" lon="6.94439">
        <ele>2833</ele>
        <time>2021-11-19T11:11:58Z</time>
      </trkpt>
      <trkpt lat="44.71925" lon="6.9444">
        <ele>2817</ele>
        <time>2021-11-19T11:12:05Z</time>
      </trkpt>
      <trkpt lat="44.71925" lon="6.94436">
        <ele>2815</ele>
        <time>2021-11-19T11:12:09Z</time>
      </trkpt>
      <trkpt lat="44.71931" lon="6.94442">
        <ele>2813</ele>
        <time>2021-11-19T11:12:13Z</time>
      </trkpt>
      <trkpt lat="44.71928" lon="6.94445">
        <ele>2812</ele>
        <time>2021-11-19T11:12:20Z</time>
      </trkpt>
      <trkpt lat="44.71929" lon="6.94449">
        <ele>2807</ele>
        <time>2021-11-19T11:12:24Z</time>
      </trkpt>
      <trkpt lat="44.71927" lon="6.94449">
        <ele>2804</ele>
        <time>2021-11-19T11:12:27Z</time>
      </trkpt>
      <trkpt lat="44.71925" lon="6.94444">
        <ele>2801</ele>
        <time>2021-11-19T11:13:11Z</time>
      </trkpt>
      <trkpt lat="44.71923" lon="6.94439">
        <ele>2801</ele>
        <time>2021-11-19T11:13:12Z</time>
      </trkpt>
      <trkpt lat="44.71923" lon="6.94431">
        <ele>2801</ele>
        <time>2021-11-19T11:13:13Z</time>
      </trkpt>
      <trkpt lat="44.71919" lon="6.94418">
        <ele>2799</ele>
        <time>2021-11-19T11:13:15Z</time>
      </trkpt>
      <trkpt lat="44.71918" lon="6.94412">
        <ele>2798</ele>
        <time>2021-11-19T11:13:16Z</time>
      </trkpt>
      <trkpt lat="44.71917" lon="6.94403">
        <ele>2796</ele>
        <time>2021-11-19T11:13:17Z</time>
      </trkpt>
      <trkpt lat="44.71912" lon="6.94389">
        <ele>2793</ele>
        <time>2021-11-19T11:13:19Z</time>
      </trkpt>
      <trkpt lat="44.71911" lon="6.94382">
        <ele>2791</ele>
        <time>2021-11-19T11:13:20Z</time>
      </trkpt>
      <trkpt lat="44.71908" lon="6.94376">
        <ele>2789</ele>
        <time>2021-11-19T11:13:21Z</time>
      </trkpt>
      <trkpt lat="44.71892" lon="6.94354">
        <ele>2781</ele>
        <time>2021-11-19T11:13:25Z</time>
      </trkpt>
      <trkpt lat="44.71888" lon="6.94342">
        <ele>2774</ele>
        <time>2021-11-19T11:13:27Z</time>
      </trkpt>
      <trkpt lat="44.71887" lon="6.94325">
        <ele>2768</ele>
        <time>2021-11-19T11:13:29Z</time>
      </trkpt>
      <trkpt lat="44.71889" lon="6.94317">
        <ele>2764</ele>
        <time>2021-11-19T11:13:30Z</time>
      </trkpt>
      <trkpt lat="44.71887" lon="6.94301">
        <ele>2758</ele>
        <time>2021-11-19T11:13:32Z</time>
      </trkpt>
      <trkpt lat="44.71888" lon="6.94292">
        <ele>2756</ele>
        <time>2021-11-19T11:13:33Z</time>
      </trkpt>
      <trkpt lat="44.71887" lon="6.94282">
        <ele>2753</ele>
        <time>2021-11-19T11:13:34Z</time>
      </trkpt>
      <trkpt lat="44.71885" lon="6.94274">
        <ele>2751</ele>
        <time>2021-11-19T11:13:35Z</time>
      </trkpt>
      <trkpt lat="44.71883" lon="6.94267">
        <ele>2749</ele>
        <time>2021-11-19T11:13:36Z</time>
      </trkpt>
      <trkpt lat="44.71873" lon="6.94227">
        <ele>2739</ele>
        <time>2021-11-19T11:13:41Z</time>
      </trkpt>
      <trkpt lat="44.71871" lon="6.94223">
        <ele>2736</ele>
        <time>2021-11-19T11:13:42Z</time>
      </trkpt>
      <trkpt lat="44.71869" lon="6.94222">
        <ele>2733</ele>
        <time>2021-11-19T11:13:43Z</time>
      </trkpt>
      <trkpt lat="44.71872" lon="6.94235">
        <ele>2716</ele>
        <time>2021-11-19T11:15:26Z</time>
      </trkpt>
      <trkpt lat="44.7187" lon="6.94229">
        <ele>2709</ele>
        <time>2021-11-19T11:18:57Z</time>
      </trkpt>
      <trkpt lat="44.71875" lon="6.94235">
        <ele>2709</ele>
        <time>2021-11-19T11:19:06Z</time>
      </trkpt>
      <trkpt lat="44.71866" lon="6.94238">
        <ele>2709</ele>
        <time>2021-11-19T11:21:09Z</time>
      </trkpt>
      <trkpt lat="44.71859" lon="6.94247">
        <ele>2709</ele>
        <time>2021-11-19T11:21:54Z</time>
      </trkpt>
      <trkpt lat="44.71849" lon="6.94254">
        <ele>2710</ele>
        <time>2021-11-19T11:22:14Z</time>
      </trkpt>
      <trkpt lat="44.71841" lon="6.94263">
        <ele>2712</ele>
        <time>2021-11-19T11:22:35Z</time>
      </trkpt>
      <trkpt lat="44.71833" lon="6.9427">
        <ele>2714</ele>
        <time>2021-11-19T11:23:02Z</time>
      </trkpt>
      <trkpt lat="44.71823" lon="6.94275">
        <ele>2717</ele>
        <time>2021-11-19T11:23:26Z</time>
      </trkpt>
      <trkpt lat="44.71812" lon="6.94284">
        <ele>2725</ele>
        <time>2021-11-19T11:23:56Z</time>
      </trkpt>
      <trkpt lat="44.71793" lon="6.94294">
        <ele>2727</ele>
        <time>2021-11-19T11:24:35Z</time>
      </trkpt>
      <trkpt lat="44.71784" lon="6.94306">
        <ele>2729</ele>
        <time>2021-11-19T11:24:57Z</time>
      </trkpt>
      <trkpt lat="44.71787" lon="6.94318">
        <ele>2733</ele>
        <time>2021-11-19T11:25:29Z</time>
      </trkpt>
      <trkpt lat="44.71797" lon="6.94323">
        <ele>2738</ele>
        <time>2021-11-19T11:26:09Z</time>
      </trkpt>
      <trkpt lat="44.71801" lon="6.94326">
        <ele>2740</ele>
        <time>2021-11-19T11:26:14Z</time>
      </trkpt>
      <trkpt lat="44.71794" lon="6.94332">
        <ele>2745</ele>
        <time>2021-11-19T11:27:13Z</time>
      </trkpt>
      <trkpt lat="44.71792" lon="6.94333">
        <ele>2747</ele>
        <time>2021-11-19T11:27:16Z</time>
      </trkpt>
      <trkpt lat="44.71778" lon="6.94354">
        <ele>2750</ele>
        <time>2021-11-19T11:27:57Z</time>
      </trkpt>
      <trkpt lat="44.71776" lon="6.94356">
        <ele>2751</ele>
        <time>2021-11-19T11:28:03Z</time>
      </trkpt>
      <trkpt lat="44.71779" lon="6.94368">
        <ele>2754</ele>
        <time>2021-11-19T11:28:24Z</time>
      </trkpt>
      <trkpt lat="44.71778" lon="6.9437">
        <ele>2755</ele>
        <time>2021-11-19T11:28:27Z</time>
      </trkpt>
      <trkpt lat="44.71773" lon="6.94382">
        <ele>2758</ele>
        <time>2021-11-19T11:28:50Z</time>
      </trkpt>
      <trkpt lat="44.71762" lon="6.94393">
        <ele>2762</ele>
        <time>2021-11-19T11:29:14Z</time>
      </trkpt>
      <trkpt lat="44.71753" lon="6.94394">
        <ele>2765</ele>
        <time>2021-11-19T11:29:29Z</time>
      </trkpt>
      <trkpt lat="44.7175" lon="6.94393">
        <ele>2766</ele>
        <time>2021-11-19T11:29:32Z</time>
      </trkpt>
      <trkpt lat="44.71741" lon="6.94393">
        <ele>2769</ele>
        <time>2021-11-19T11:29:46Z</time>
      </trkpt>
      <trkpt lat="44.7173" lon="6.9439">
        <ele>2772</ele>
        <time>2021-11-19T11:30:19Z</time>
      </trkpt>
      <trkpt lat="44.71722" lon="6.94396">
        <ele>2774</ele>
        <time>2021-11-19T11:31:41Z</time>
      </trkpt>
      <trkpt lat="44.7171" lon="6.9442">
        <ele>2779</ele>
        <time>2021-11-19T11:32:24Z</time>
      </trkpt>
      <trkpt lat="44.71707" lon="6.94421">
        <ele>2780</ele>
        <time>2021-11-19T11:32:27Z</time>
      </trkpt>
      <trkpt lat="44.71699" lon="6.94431">
        <ele>2784</ele>
        <time>2021-11-19T11:32:58Z</time>
      </trkpt>
      <trkpt lat="44.71691" lon="6.94436">
        <ele>2787</ele>
        <time>2021-11-19T11:33:01Z</time>
      </trkpt>
      <trkpt lat="44.71696" lon="6.94447">
        <ele>2791</ele>
        <time>2021-11-19T11:34:26Z</time>
      </trkpt>
      <trkpt lat="44.71695" lon="6.9446">
        <ele>2795</ele>
        <time>2021-11-19T11:35:22Z</time>
      </trkpt>
      <trkpt lat="44.71687" lon="6.94471">
        <ele>2799</ele>
        <time>2021-11-19T11:35:49Z</time>
      </trkpt>
      <trkpt lat="44.71678" lon="6.94479">
        <ele>2803</ele>
        <time>2021-11-19T11:36:21Z</time>
      </trkpt>
      <trkpt lat="44.7167" lon="6.94485">
        <ele>2805</ele>
        <time>2021-11-19T11:36:39Z</time>
      </trkpt>
      <trkpt lat="44.71661" lon="6.94494">
        <ele>2809</ele>
        <time>2021-11-19T11:37:19Z</time>
      </trkpt>
      <trkpt lat="44.71655" lon="6.94508">
        <ele>2814</ele>
        <time>2021-11-19T11:37:39Z</time>
      </trkpt>
      <trkpt lat="44.71639" lon="6.94528">
        <ele>2824</ele>
        <time>2021-11-19T11:38:18Z</time>
      </trkpt>
      <trkpt lat="44.71637" lon="6.94529">
        <ele>2826</ele>
        <time>2021-11-19T11:38:21Z</time>
      </trkpt>
      <trkpt lat="44.71646" lon="6.94538">
        <ele>2830</ele>
        <time>2021-11-19T11:38:51Z</time>
      </trkpt>
      <trkpt lat="44.71656" lon="6.94544">
        <ele>2831</ele>
        <time>2021-11-19T11:39:32Z</time>
      </trkpt>
      <trkpt lat="44.71652" lon="6.94555">
        <ele>2833</ele>
        <time>2021-11-19T11:39:58Z</time>
      </trkpt>
      <trkpt lat="44.71642" lon="6.94565">
        <ele>2837</ele>
        <time>2021-11-19T11:40:59Z</time>
      </trkpt>
      <trkpt lat="44.71635" lon="6.94576">
        <ele>2840</ele>
        <time>2021-11-19T11:41:56Z</time>
      </trkpt>
      <trkpt lat="44.71646" lon="6.94577">
        <ele>2843</ele>
        <time>2021-11-19T11:42:12Z</time>
      </trkpt>
      <trkpt lat="44.71654" lon="6.94581">
        <ele>2845</ele>
        <time>2021-11-19T11:42:29Z</time>
      </trkpt>
      <trkpt lat="44.71665" lon="6.94585">
        <ele>2848</ele>
        <time>2021-11-19T11:42:52Z</time>
      </trkpt>
      <trkpt lat="44.71658" lon="6.94594">
        <ele>2851</ele>
        <time>2021-11-19T11:43:14Z</time>
      </trkpt>
      <trkpt lat="44.71657" lon="6.94596">
        <ele>2852</ele>
        <time>2021-11-19T11:43:17Z</time>
      </trkpt>
      <trkpt lat="44.7165" lon="6.94605">
        <ele>2854</ele>
        <time>2021-11-19T11:43:33Z</time>
      </trkpt>
      <trkpt lat="44.71642" lon="6.94614">
        <ele>2859</ele>
        <time>2021-11-19T11:43:54Z</time>
      </trkpt>
      <trkpt lat="44.7165" lon="6.94618">
        <ele>2865</ele>
        <time>2021-11-19T11:44:39Z</time>
      </trkpt>
      <trkpt lat="44.7166" lon="6.9462">
        <ele>2868</ele>
        <time>2021-11-19T11:45:05Z</time>
      </trkpt>
      <trkpt lat="44.71653" lon="6.94629">
        <ele>2874</ele>
        <time>2021-11-19T11:46:51Z</time>
      </trkpt>
      <trkpt lat="44.71653" lon="6.94639">
        <ele>2880</ele>
        <time>2021-11-19T11:47:36Z</time>
      </trkpt>
      <trkpt lat="44.71655" lon="6.9464">
        <ele>2882</ele>
        <time>2021-11-19T11:48:07Z</time>
      </trkpt>
      <trkpt lat="44.71646" lon="6.94645">
        <ele>2887</ele>
        <time>2021-11-19T11:48:31Z</time>
      </trkpt>
      <trkpt lat="44.71664" lon="6.94654">
        <ele>2891</ele>
        <time>2021-11-19T11:49:28Z</time>
      </trkpt>
      <trkpt lat="44.71657" lon="6.94662">
        <ele>2892</ele>
        <time>2021-11-19T11:49:58Z</time>
      </trkpt>
      <trkpt lat="44.71655" lon="6.94664">
        <ele>2893</ele>
        <time>2021-11-19T11:50:01Z</time>
      </trkpt>
      <trkpt lat="44.71663" lon="6.9467">
        <ele>2897</ele>
        <time>2021-11-19T11:50:44Z</time>
      </trkpt>
      <trkpt lat="44.71675" lon="6.94672">
        <ele>2901</ele>
        <time>2021-11-19T11:51:52Z</time>
      </trkpt>
      <trkpt lat="44.71671" lon="6.94683">
        <ele>2906</ele>
        <time>2021-11-19T11:52:35Z</time>
      </trkpt>
      <trkpt lat="44.71664" lon="6.94694">
        <ele>2915</ele>
        <time>2021-11-19T11:53:37Z</time>
      </trkpt>
      <trkpt lat="44.71656" lon="6.94709">
        <ele>2923</ele>
        <time>2021-11-19T11:54:09Z</time>
      </trkpt>
      <trkpt lat="44.71638" lon="6.94724">
        <ele>2927</ele>
        <time>2021-11-19T11:54:49Z</time>
      </trkpt>
      <trkpt lat="44.71636" lon="6.94736">
        <ele>2933</ele>
        <time>2021-11-19T11:56:20Z</time>
      </trkpt>
      <trkpt lat="44.7164" lon="6.94748">
        <ele>2940</ele>
        <time>2021-11-19T11:56:52Z</time>
      </trkpt>
      <trkpt lat="44.71645" lon="6.9475">
        <ele>2942</ele>
        <time>2021-11-19T11:57:00Z</time>
      </trkpt>
      <trkpt lat="44.71647" lon="6.94748">
        <ele>2943</ele>
        <time>2021-11-19T11:57:04Z</time>
      </trkpt>
      <trkpt lat="44.71657" lon="6.94751">
        <ele>2946</ele>
        <time>2021-11-19T11:57:23Z</time>
      </trkpt>
      <trkpt lat="44.71659" lon="6.94765">
        <ele>2952</ele>
        <time>2021-11-19T11:58:04Z</time>
      </trkpt>
      <trkpt lat="44.71667" lon="6.94765">
        <ele>2958</ele>
        <time>2021-11-19T11:58:58Z</time>
      </trkpt>
      <trkpt lat="44.71679" lon="6.94763">
        <ele>2958</ele>
        <time>2021-11-19T11:59:21Z</time>
      </trkpt>
      <trkpt lat="44.71689" lon="6.94764">
        <ele>2963</ele>
        <time>2021-11-19T11:59:51Z</time>
      </trkpt>
      <trkpt lat="44.71691" lon="6.94763">
        <ele>2965</ele>
        <time>2021-11-19T11:59:53Z</time>
      </trkpt>
      <trkpt lat="44.71696" lon="6.94777">
        <ele>2970</ele>
        <time>2021-11-19T12:00:16Z</time>
      </trkpt>
      <trkpt lat="44.71705" lon="6.94782">
        <ele>2973</ele>
        <time>2021-11-19T12:00:32Z</time>
      </trkpt>
      <trkpt lat="44.71711" lon="6.94795">
        <ele>2980</ele>
        <time>2021-11-19T12:00:55Z</time>
      </trkpt>
      <trkpt lat="44.71719" lon="6.94804">
        <ele>2984</ele>
        <time>2021-11-19T12:01:14Z</time>
      </trkpt>
      <trkpt lat="44.71723" lon="6.94818">
        <ele>2986</ele>
        <time>2021-11-19T12:01:45Z</time>
      </trkpt>
      <trkpt lat="44.71723" lon="6.94813">
        <ele>2981</ele>
        <time>2021-11-19T12:02:36Z</time>
      </trkpt>
      <trkpt lat="44.71721" lon="6.94811">
        <ele>2981</ele>
        <time>2021-11-19T12:02:38Z</time>
      </trkpt>
      <trkpt lat="44.7172" lon="6.94805">
        <ele>2982</ele>
        <time>2021-11-19T12:02:42Z</time>
      </trkpt>
      <trkpt lat="44.71724" lon="6.94808">
        <ele>2984</ele>
        <time>2021-11-19T12:08:25Z</time>
      </trkpt>
      <trkpt lat="44.71725" lon="6.94804">
        <ele>2977</ele>
        <time>2021-11-19T12:08:46Z</time>
      </trkpt>
      <trkpt lat="44.71727" lon="6.94804">
        <ele>2978</ele>
        <time>2021-11-19T12:08:48Z</time>
      </trkpt>
      <trkpt lat="44.71723" lon="6.94799">
        <ele>2979</ele>
        <time>2021-11-19T12:11:48Z</time>
      </trkpt>
      <trkpt lat="44.71727" lon="6.94805">
        <ele>2978</ele>
        <time>2021-11-19T12:11:52Z</time>
      </trkpt>
      <trkpt lat="44.71726" lon="6.94794">
        <ele>2978</ele>
        <time>2021-11-19T12:13:27Z</time>
      </trkpt>
      <trkpt lat="44.71722" lon="6.94776">
        <ele>2978</ele>
        <time>2021-11-19T12:13:30Z</time>
      </trkpt>
      <trkpt lat="44.7172" lon="6.94746">
        <ele>2976</ele>
        <time>2021-11-19T12:13:33Z</time>
      </trkpt>
      <trkpt lat="44.71721" lon="6.94731">
        <ele>2974</ele>
        <time>2021-11-19T12:13:35Z</time>
      </trkpt>
      <trkpt lat="44.7172" lon="6.94725">
        <ele>2973</ele>
        <time>2021-11-19T12:13:36Z</time>
      </trkpt>
      <trkpt lat="44.71721" lon="6.94734">
        <ele>2962</ele>
        <time>2021-11-19T12:14:40Z</time>
      </trkpt>
      <trkpt lat="44.71725" lon="6.94737">
        <ele>2955</ele>
        <time>2021-11-19T12:14:43Z</time>
      </trkpt>
      <trkpt lat="44.71722" lon="6.94729">
        <ele>2953</ele>
        <time>2021-11-19T12:15:20Z</time>
      </trkpt>
      <trkpt lat="44.71722" lon="6.94717">
        <ele>2953</ele>
        <time>2021-11-19T12:15:22Z</time>
      </trkpt>
      <trkpt lat="44.7172" lon="6.94672">
        <ele>2946</ele>
        <time>2021-11-19T12:15:29Z</time>
      </trkpt>
      <trkpt lat="44.71722" lon="6.94666">
        <ele>2944</ele>
        <time>2021-11-19T12:15:30Z</time>
      </trkpt>
      <trkpt lat="44.71737" lon="6.94624">
        <ele>2931</ele>
        <time>2021-11-19T12:15:36Z</time>
      </trkpt>
      <trkpt lat="44.71733" lon="6.9462">
        <ele>2923</ele>
        <time>2021-11-19T12:15:38Z</time>
      </trkpt>
      <trkpt lat="44.71734" lon="6.94602">
        <ele>2910</ele>
        <time>2021-11-19T12:15:41Z</time>
      </trkpt>
      <trkpt lat="44.71736" lon="6.94597">
        <ele>2907</ele>
        <time>2021-11-19T12:15:42Z</time>
      </trkpt>
      <trkpt lat="44.71741" lon="6.94601">
        <ele>2903</ele>
        <time>2021-11-19T12:15:43Z</time>
      </trkpt>
      <trkpt lat="44.71753" lon="6.94612">
        <ele>2885</ele>
        <time>2021-11-19T12:18:52Z</time>
      </trkpt>
      <trkpt lat="44.71758" lon="6.94615">
        <ele>2875</ele>
        <time>2021-11-19T12:18:57Z</time>
      </trkpt>
      <trkpt lat="44.7176" lon="6.94609">
        <ele>2873</ele>
        <time>2021-11-19T12:19:14Z</time>
      </trkpt>
      <trkpt lat="44.71761" lon="6.94529">
        <ele>2867</ele>
        <time>2021-11-19T12:19:23Z</time>
      </trkpt>
      <trkpt lat="44.71764" lon="6.9452">
        <ele>2865</ele>
        <time>2021-11-19T12:19:24Z</time>
      </trkpt>
      <trkpt lat="44.71766" lon="6.94511">
        <ele>2863</ele>
        <time>2021-11-19T12:19:25Z</time>
      </trkpt>
      <trkpt lat="44.71767" lon="6.94502">
        <ele>2860</ele>
        <time>2021-11-19T12:19:26Z</time>
      </trkpt>
      <trkpt lat="44.7177" lon="6.94494">
        <ele>2858</ele>
        <time>2021-11-19T12:19:27Z</time>
      </trkpt>
      <trkpt lat="44.71772" lon="6.94486">
        <ele>2855</ele>
        <time>2021-11-19T12:19:28Z</time>
      </trkpt>
      <trkpt lat="44.7177" lon="6.94477">
        <ele>2853</ele>
        <time>2021-11-19T12:19:29Z</time>
      </trkpt>
      <trkpt lat="44.71766" lon="6.94467">
        <ele>2850</ele>
        <time>2021-11-19T12:19:30Z</time>
      </trkpt>
      <trkpt lat="44.71762" lon="6.94458">
        <ele>2848</ele>
        <time>2021-11-19T12:19:31Z</time>
      </trkpt>
      <trkpt lat="44.71755" lon="6.94429">
        <ele>2842</ele>
        <time>2021-11-19T12:19:34Z</time>
      </trkpt>
      <trkpt lat="44.71755" lon="6.94419">
        <ele>2840</ele>
        <time>2021-11-19T12:19:35Z</time>
      </trkpt>
      <trkpt lat="44.71755" lon="6.94408">
        <ele>2838</ele>
        <time>2021-11-19T12:19:36Z</time>
      </trkpt>
      <trkpt lat="44.71757" lon="6.94396">
        <ele>2836</ele>
        <time>2021-11-19T12:19:37Z</time>
      </trkpt>
      <trkpt lat="44.7176" lon="6.94372">
        <ele>2832</ele>
        <time>2021-11-19T12:19:39Z</time>
      </trkpt>
      <trkpt lat="44.71763" lon="6.94362">
        <ele>2830</ele>
        <time>2021-11-19T12:19:40Z</time>
      </trkpt>
      <trkpt lat="44.7177" lon="6.94352">
        <ele>2826</ele>
        <time>2021-11-19T12:19:42Z</time>
      </trkpt>
      <trkpt lat="44.71769" lon="6.94368">
        <ele>2811</ele>
        <time>2021-11-19T12:20:01Z</time>
      </trkpt>
      <trkpt lat="44.71771" lon="6.94369">
        <ele>2804</ele>
        <time>2021-11-19T12:20:05Z</time>
      </trkpt>
      <trkpt lat="44.71775" lon="6.94382">
        <ele>2789</ele>
        <time>2021-11-19T12:20:20Z</time>
      </trkpt>
      <trkpt lat="44.71777" lon="6.94383">
        <ele>2781</ele>
        <time>2021-11-19T12:20:22Z</time>
      </trkpt>
      <trkpt lat="44.71768" lon="6.94369">
        <ele>2772</ele>
        <time>2021-11-19T12:20:29Z</time>
      </trkpt>
      <trkpt lat="44.71764" lon="6.94351">
        <ele>2770</ele>
        <time>2021-11-19T12:20:31Z</time>
      </trkpt>
      <trkpt lat="44.71764" lon="6.9433">
        <ele>2768</ele>
        <time>2021-11-19T12:20:33Z</time>
      </trkpt>
      <trkpt lat="44.71771" lon="6.94325">
        <ele>2762</ele>
        <time>2021-11-19T12:20:34Z</time>
      </trkpt>
      <trkpt lat="44.7177" lon="6.94314">
        <ele>2759</ele>
        <time>2021-11-19T12:20:35Z</time>
      </trkpt>
      <trkpt lat="44.71769" lon="6.94303">
        <ele>2757</ele>
        <time>2021-11-19T12:20:36Z</time>
      </trkpt>
      <trkpt lat="44.71764" lon="6.94282">
        <ele>2753</ele>
        <time>2021-11-19T12:20:38Z</time>
      </trkpt>
      <trkpt lat="44.71761" lon="6.94272">
        <ele>2750</ele>
        <time>2021-11-19T12:20:39Z</time>
      </trkpt>
      <trkpt lat="44.71754" lon="6.94252">
        <ele>2746</ele>
        <time>2021-11-19T12:20:41Z</time>
      </trkpt>
      <trkpt lat="44.71751" lon="6.94242">
        <ele>2744</ele>
        <time>2021-11-19T12:20:42Z</time>
      </trkpt>
      <trkpt lat="44.71748" lon="6.94232">
        <ele>2742</ele>
        <time>2021-11-19T12:20:43Z</time>
      </trkpt>
      <trkpt lat="44.71746" lon="6.9421">
        <ele>2737</ele>
        <time>2021-11-19T12:20:45Z</time>
      </trkpt>
      <trkpt lat="44.71746" lon="6.942">
        <ele>2735</ele>
        <time>2021-11-19T12:20:46Z</time>
      </trkpt>
      <trkpt lat="44.71748" lon="6.94189">
        <ele>2732</ele>
        <time>2021-11-19T12:20:47Z</time>
      </trkpt>
      <trkpt lat="44.71748" lon="6.94179">
        <ele>2730</ele>
        <time>2021-11-19T12:20:48Z</time>
      </trkpt>
      <trkpt lat="44.71744" lon="6.9415">
        <ele>2722</ele>
        <time>2021-11-19T12:20:51Z</time>
      </trkpt>
      <trkpt lat="44.71741" lon="6.94141">
        <ele>2719</ele>
        <time>2021-11-19T12:20:52Z</time>
      </trkpt>
      <trkpt lat="44.71738" lon="6.94132">
        <ele>2717</ele>
        <time>2021-11-19T12:20:53Z</time>
      </trkpt>
      <trkpt lat="44.71737" lon="6.94122">
        <ele>2713</ele>
        <time>2021-11-19T12:20:54Z</time>
      </trkpt>
      <trkpt lat="44.71732" lon="6.94101">
        <ele>2708</ele>
        <time>2021-11-19T12:20:56Z</time>
      </trkpt>
      <trkpt lat="44.71739" lon="6.94098">
        <ele>2697</ele>
        <time>2021-11-19T12:20:57Z</time>
      </trkpt>
      <trkpt lat="44.71735" lon="6.94075">
        <ele>2684</ele>
        <time>2021-11-19T12:21:00Z</time>
      </trkpt>
      <trkpt lat="44.71737" lon="6.94078">
        <ele>2680</ele>
        <time>2021-11-19T12:21:04Z</time>
      </trkpt>
      <trkpt lat="44.71732" lon="6.94081">
        <ele>2674</ele>
        <time>2021-11-19T12:21:35Z</time>
      </trkpt>
      <trkpt lat="44.71728" lon="6.94075">
        <ele>2671</ele>
        <time>2021-11-19T12:21:36Z</time>
      </trkpt>
      <trkpt lat="44.71725" lon="6.94057">
        <ele>2668</ele>
        <time>2021-11-19T12:21:38Z</time>
      </trkpt>
      <trkpt lat="44.71729" lon="6.94013">
        <ele>2663</ele>
        <time>2021-11-19T12:21:42Z</time>
      </trkpt>
      <trkpt lat="44.71731" lon="6.94003">
        <ele>2661</ele>
        <time>2021-11-19T12:21:43Z</time>
      </trkpt>
      <trkpt lat="44.71731" lon="6.93993">
        <ele>2659</ele>
        <time>2021-11-19T12:21:44Z</time>
      </trkpt>
      <trkpt lat="44.71727" lon="6.93988">
        <ele>2656</ele>
        <time>2021-11-19T12:21:45Z</time>
      </trkpt>
      <trkpt lat="44.71717" lon="6.93983">
        <ele>2650</ele>
        <time>2021-11-19T12:21:47Z</time>
      </trkpt>
      <trkpt lat="44.71712" lon="6.93977">
        <ele>2648</ele>
        <time>2021-11-19T12:21:48Z</time>
      </trkpt>
      <trkpt lat="44.71707" lon="6.93972">
        <ele>2645</ele>
        <time>2021-11-19T12:21:49Z</time>
      </trkpt>
      <trkpt lat="44.71701" lon="6.93966">
        <ele>2642</ele>
        <time>2021-11-19T12:21:50Z</time>
      </trkpt>
      <trkpt lat="44.71697" lon="6.93958">
        <ele>2641</ele>
        <time>2021-11-19T12:21:51Z</time>
      </trkpt>
      <trkpt lat="44.71695" lon="6.93949">
        <ele>2638</ele>
        <time>2021-11-19T12:21:52Z</time>
      </trkpt>
      <trkpt lat="44.71695" lon="6.9394">
        <ele>2636</ele>
        <time>2021-11-19T12:21:53Z</time>
      </trkpt>
      <trkpt lat="44.71696" lon="6.93928">
        <ele>2634</ele>
        <time>2021-11-19T12:21:54Z</time>
      </trkpt>
      <trkpt lat="44.71697" lon="6.93918">
        <ele>2631</ele>
        <time>2021-11-19T12:21:55Z</time>
      </trkpt>
      <trkpt lat="44.71699" lon="6.93908">
        <ele>2629</ele>
        <time>2021-11-19T12:21:56Z</time>
      </trkpt>
      <trkpt lat="44.71701" lon="6.93897">
        <ele>2626</ele>
        <time>2021-11-19T12:21:57Z</time>
      </trkpt>
      <trkpt lat="44.71702" lon="6.93888">
        <ele>2623</ele>
        <time>2021-11-19T12:21:58Z</time>
      </trkpt>
      <trkpt lat="44.71707" lon="6.93878">
        <ele>2621</ele>
        <time>2021-11-19T12:21:59Z</time>
      </trkpt>
      <trkpt lat="44.71712" lon="6.93871">
        <ele>2618</ele>
        <time>2021-11-19T12:22:00Z</time>
      </trkpt>
      <trkpt lat="44.71716" lon="6.93862">
        <ele>2615</ele>
        <time>2021-11-19T12:22:01Z</time>
      </trkpt>
      <trkpt lat="44.71716" lon="6.93854">
        <ele>2613</ele>
        <time>2021-11-19T12:22:02Z</time>
      </trkpt>
      <trkpt lat="44.71716" lon="6.93843">
        <ele>2610</ele>
        <time>2021-11-19T12:22:03Z</time>
      </trkpt>
      <trkpt lat="44.71716" lon="6.93831">
        <ele>2606</ele>
        <time>2021-11-19T12:22:04Z</time>
      </trkpt>
      <trkpt lat="44.71716" lon="6.93818">
        <ele>2602</ele>
        <time>2021-11-19T12:22:05Z</time>
      </trkpt>
      <trkpt lat="44.71695" lon="6.93745">
        <ele>2574</ele>
        <time>2021-11-19T12:22:14Z</time>
      </trkpt>
      <trkpt lat="44.71693" lon="6.93735">
        <ele>2571</ele>
        <time>2021-11-19T12:22:15Z</time>
      </trkpt>
      <trkpt lat="44.71693" lon="6.93725">
        <ele>2568</ele>
        <time>2021-11-19T12:22:16Z</time>
      </trkpt>
      <trkpt lat="44.71703" lon="6.93656">
        <ele>2555</ele>
        <time>2021-11-19T12:22:23Z</time>
      </trkpt>
      <trkpt lat="44.71705" lon="6.93646">
        <ele>2552</ele>
        <time>2021-11-19T12:22:24Z</time>
      </trkpt>
      <trkpt lat="44.71708" lon="6.93635">
        <ele>2550</ele>
        <time>2021-11-19T12:22:25Z</time>
      </trkpt>
      <trkpt lat="44.71712" lon="6.93623">
        <ele>2547</ele>
        <time>2021-11-19T12:22:26Z</time>
      </trkpt>
      <trkpt lat="44.71715" lon="6.9361">
        <ele>2544</ele>
        <time>2021-11-19T12:22:27Z</time>
      </trkpt>
      <trkpt lat="44.71715" lon="6.93596">
        <ele>2541</ele>
        <time>2021-11-19T12:22:28Z</time>
      </trkpt>
      <trkpt lat="44.71717" lon="6.93581">
        <ele>2538</ele>
        <time>2021-11-19T12:22:29Z</time>
      </trkpt>
      <trkpt lat="44.71719" lon="6.93567">
        <ele>2534</ele>
        <time>2021-11-19T12:22:30Z</time>
      </trkpt>
      <trkpt lat="44.71721" lon="6.93555">
        <ele>2531</ele>
        <time>2021-11-19T12:22:31Z</time>
      </trkpt>
      <trkpt lat="44.71722" lon="6.93543">
        <ele>2527</ele>
        <time>2021-11-19T12:22:32Z</time>
      </trkpt>
      <trkpt lat="44.71727" lon="6.93522">
        <ele>2519</ele>
        <time>2021-11-19T12:22:35Z</time>
      </trkpt>
      <trkpt lat="44.71722" lon="6.93477">
        <ele>2504</ele>
        <time>2021-11-19T12:23:05Z</time>
      </trkpt>
      <trkpt lat="44.71721" lon="6.93466">
        <ele>2503</ele>
        <time>2021-11-19T12:23:07Z</time>
      </trkpt>
      <trkpt lat="44.71723" lon="6.93447">
        <ele>2501</ele>
        <time>2021-11-19T12:23:11Z</time>
      </trkpt>
      <trkpt lat="44.71722" lon="6.93433">
        <ele>2499</ele>
        <time>2021-11-19T12:23:14Z</time>
      </trkpt>
      <trkpt lat="44.71722" lon="6.9342">
        <ele>2497</ele>
        <time>2021-11-19T12:23:18Z</time>
      </trkpt>
      <trkpt lat="44.7172" lon="6.93401">
        <ele>2495</ele>
        <time>2021-11-19T12:23:23Z</time>
      </trkpt>
      <trkpt lat="44.71718" lon="6.93332">
        <ele>2491</ele>
        <time>2021-11-19T12:23:37Z</time>
      </trkpt>
      <trkpt lat="44.71693" lon="6.93168">
        <ele>2473</ele>
        <time>2021-11-19T12:24:04Z</time>
      </trkpt>
      <trkpt lat="44.71695" lon="6.93142">
        <ele>2470</ele>
        <time>2021-11-19T12:24:07Z</time>
      </trkpt>
      <trkpt lat="44.71694" lon="6.93121">
        <ele>2469</ele>
        <time>2021-11-19T12:24:09Z</time>
      </trkpt>
      <trkpt lat="44.71697" lon="6.93099">
        <ele>2467</ele>
        <time>2021-11-19T12:24:11Z</time>
      </trkpt>
      <trkpt lat="44.71715" lon="6.93059">
        <ele>2461</ele>
        <time>2021-11-19T12:24:15Z</time>
      </trkpt>
      <trkpt lat="44.71722" lon="6.93052">
        <ele>2459</ele>
        <time>2021-11-19T12:24:16Z</time>
      </trkpt>
      <trkpt lat="44.71729" lon="6.93043">
        <ele>2457</ele>
        <time>2021-11-19T12:24:17Z</time>
      </trkpt>
      <trkpt lat="44.71736" lon="6.93033">
        <ele>2455</ele>
        <time>2021-11-19T12:24:18Z</time>
      </trkpt>
      <trkpt lat="44.71745" lon="6.93027">
        <ele>2452</ele>
        <time>2021-11-19T12:24:19Z</time>
      </trkpt>
      <trkpt lat="44.71755" lon="6.93022">
        <ele>2450</ele>
        <time>2021-11-19T12:24:20Z</time>
      </trkpt>
      <trkpt lat="44.71764" lon="6.93018">
        <ele>2448</ele>
        <time>2021-11-19T12:24:21Z</time>
      </trkpt>
      <trkpt lat="44.71771" lon="6.93005">
        <ele>2444</ele>
        <time>2021-11-19T12:24:23Z</time>
      </trkpt>
      <trkpt lat="44.71771" lon="6.93001">
        <ele>2443</ele>
        <time>2021-11-19T12:24:24Z</time>
      </trkpt>
      <trkpt lat="44.71748" lon="6.92964">
        <ele>2438</ele>
        <time>2021-11-19T12:24:40Z</time>
      </trkpt>
      <trkpt lat="44.71741" lon="6.92944">
        <ele>2436</ele>
        <time>2021-11-19T12:24:42Z</time>
      </trkpt>
      <trkpt lat="44.7175" lon="6.92908">
        <ele>2431</ele>
        <time>2021-11-19T12:24:45Z</time>
      </trkpt>
      <trkpt lat="44.71754" lon="6.92896">
        <ele>2429</ele>
        <time>2021-11-19T12:24:46Z</time>
      </trkpt>
      <trkpt lat="44.71756" lon="6.92881">
        <ele>2426</ele>
        <time>2021-11-19T12:24:47Z</time>
      </trkpt>
      <trkpt lat="44.71754" lon="6.92868">
        <ele>2424</ele>
        <time>2021-11-19T12:24:48Z</time>
      </trkpt>
      <trkpt lat="44.71753" lon="6.92856">
        <ele>2421</ele>
        <time>2021-11-19T12:24:49Z</time>
      </trkpt>
      <trkpt lat="44.71753" lon="6.92843">
        <ele>2419</ele>
        <time>2021-11-19T12:24:50Z</time>
      </trkpt>
      <trkpt lat="44.71751" lon="6.92832">
        <ele>2416</ele>
        <time>2021-11-19T12:24:51Z</time>
      </trkpt>
      <trkpt lat="44.71749" lon="6.92822">
        <ele>2414</ele>
        <time>2021-11-19T12:24:52Z</time>
      </trkpt>
      <trkpt lat="44.71749" lon="6.92811">
        <ele>2412</ele>
        <time>2021-11-19T12:24:53Z</time>
      </trkpt>
      <trkpt lat="44.7175" lon="6.92799">
        <ele>2410</ele>
        <time>2021-11-19T12:24:54Z</time>
      </trkpt>
      <trkpt lat="44.71749" lon="6.92787">
        <ele>2408</ele>
        <time>2021-11-19T12:24:55Z</time>
      </trkpt>
      <trkpt lat="44.71748" lon="6.92775">
        <ele>2406</ele>
        <time>2021-11-19T12:24:56Z</time>
      </trkpt>
      <trkpt lat="44.71749" lon="6.92763">
        <ele>2403</ele>
        <time>2021-11-19T12:24:57Z</time>
      </trkpt>
      <trkpt lat="44.7175" lon="6.92751">
        <ele>2401</ele>
        <time>2021-11-19T12:24:58Z</time>
      </trkpt>
      <trkpt lat="44.7175" lon="6.9274">
        <ele>2398</ele>
        <time>2021-11-19T12:24:59Z</time>
      </trkpt>
      <trkpt lat="44.71749" lon="6.92728">
        <ele>2396</ele>
        <time>2021-11-19T12:25:00Z</time>
      </trkpt>
      <trkpt lat="44.7175" lon="6.92613">
        <ele>2382</ele>
        <time>2021-11-19T12:25:10Z</time>
      </trkpt>
      <trkpt lat="44.71752" lon="6.92603">
        <ele>2381</ele>
        <time>2021-11-19T12:25:11Z</time>
      </trkpt>
      <trkpt lat="44.71756" lon="6.92594">
        <ele>2380</ele>
        <time>2021-11-19T12:25:12Z</time>
      </trkpt>
      <trkpt lat="44.71759" lon="6.92584">
        <ele>2378</ele>
        <time>2021-11-19T12:25:13Z</time>
      </trkpt>
      <trkpt lat="44.7176" lon="6.92573">
        <ele>2377</ele>
        <time>2021-11-19T12:25:14Z</time>
      </trkpt>
      <trkpt lat="44.71758" lon="6.92562">
        <ele>2376</ele>
        <time>2021-11-19T12:25:15Z</time>
      </trkpt>
      <trkpt lat="44.71746" lon="6.92539">
        <ele>2373</ele>
        <time>2021-11-19T12:25:18Z</time>
      </trkpt>
      <trkpt lat="44.71637" lon="6.92406">
        <ele>2349</ele>
        <time>2021-11-19T12:25:38Z</time>
      </trkpt>
      <trkpt lat="44.71622" lon="6.92393">
        <ele>2346</ele>
        <time>2021-11-19T12:25:40Z</time>
      </trkpt>
      <trkpt lat="44.71616" lon="6.92387">
        <ele>2344</ele>
        <time>2021-11-19T12:25:41Z</time>
      </trkpt>
      <trkpt lat="44.71609" lon="6.9236">
        <ele>2339</ele>
        <time>2021-11-19T12:25:44Z</time>
      </trkpt>
      <trkpt lat="44.71584" lon="6.92307">
        <ele>2327</ele>
        <time>2021-11-19T12:25:51Z</time>
      </trkpt>
      <trkpt lat="44.71575" lon="6.92298">
        <ele>2324</ele>
        <time>2021-11-19T12:25:53Z</time>
      </trkpt>
      <trkpt lat="44.71572" lon="6.9229">
        <ele>2322</ele>
        <time>2021-11-19T12:25:54Z</time>
      </trkpt>
      <trkpt lat="44.71567" lon="6.92284">
        <ele>2320</ele>
        <time>2021-11-19T12:25:55Z</time>
      </trkpt>
      <trkpt lat="44.71562" lon="6.92283">
        <ele>2317</ele>
        <time>2021-11-19T12:25:56Z</time>
      </trkpt>
      <trkpt lat="44.71556" lon="6.92284">
        <ele>2315</ele>
        <time>2021-11-19T12:25:57Z</time>
      </trkpt>
      <trkpt lat="44.71551" lon="6.92283">
        <ele>2312</ele>
        <time>2021-11-19T12:25:58Z</time>
      </trkpt>
      <trkpt lat="44.71538" lon="6.92269">
        <ele>2303</ele>
        <time>2021-11-19T12:26:01Z</time>
      </trkpt>
      <trkpt lat="44.71536" lon="6.92263">
        <ele>2299</ele>
        <time>2021-11-19T12:26:02Z</time>
      </trkpt>
      <trkpt lat="44.71534" lon="6.92261">
        <ele>2296</ele>
        <time>2021-11-19T12:26:03Z</time>
      </trkpt>
      <trkpt lat="44.71531" lon="6.92259">
        <ele>2292</ele>
        <time>2021-11-19T12:26:04Z</time>
      </trkpt>
      <trkpt lat="44.71528" lon="6.92256">
        <ele>2291</ele>
        <time>2021-11-19T12:26:05Z</time>
      </trkpt>
      <trkpt lat="44.71527" lon="6.92253">
        <ele>2287</ele>
        <time>2021-11-19T12:26:06Z</time>
      </trkpt>
      <trkpt lat="44.71524" lon="6.92252">
        <ele>2286</ele>
        <time>2021-11-19T12:26:07Z</time>
      </trkpt>
      <trkpt lat="44.71521" lon="6.92253">
        <ele>2283</ele>
        <time>2021-11-19T12:26:08Z</time>
      </trkpt>
      <trkpt lat="44.71518" lon="6.92258">
        <ele>2279</ele>
        <time>2021-11-19T12:26:09Z</time>
      </trkpt>
      <trkpt lat="44.71517" lon="6.92262">
        <ele>2277</ele>
        <time>2021-11-19T12:26:10Z</time>
      </trkpt>
      <trkpt lat="44.71517" lon="6.92265">
        <ele>2273</ele>
        <time>2021-11-19T12:26:12Z</time>
      </trkpt>
      <trkpt lat="44.71506" lon="6.92282">
        <ele>2260</ele>
        <time>2021-11-19T12:26:40Z</time>
      </trkpt>
      <trkpt lat="44.71501" lon="6.92288">
        <ele>2257</ele>
        <time>2021-11-19T12:26:44Z</time>
      </trkpt>
      <trkpt lat="44.71498" lon="6.92289">
        <ele>2256</ele>
        <time>2021-11-19T12:26:45Z</time>
      </trkpt>
      <trkpt lat="44.71497" lon="6.92287">
        <ele>2255</ele>
        <time>2021-11-19T12:26:46Z</time>
      </trkpt>
      <trkpt lat="44.71495" lon="6.92283">
        <ele>2254</ele>
        <time>2021-11-19T12:26:47Z</time>
      </trkpt>
      <trkpt lat="44.71496" lon="6.92273">
        <ele>2252</ele>
        <time>2021-11-19T12:26:49Z</time>
      </trkpt>
      <trkpt lat="44.71495" lon="6.92272">
        <ele>2247</ele>
        <time>2021-11-19T12:26:56Z</time>
      </trkpt>
      <trkpt lat="44.71493" lon="6.92274">
        <ele>2245</ele>
        <time>2021-11-19T12:26:57Z</time>
      </trkpt>
      <trkpt lat="44.71493" lon="6.92267">
        <ele>2241</ele>
        <time>2021-11-19T12:27:07Z</time>
      </trkpt>
      <trkpt lat="44.71494" lon="6.92262">
        <ele>2240</ele>
        <time>2021-11-19T12:27:09Z</time>
      </trkpt>
      <trkpt lat="44.71492" lon="6.92262">
        <ele>2238</ele>
        <time>2021-11-19T12:27:15Z</time>
      </trkpt>
      <trkpt lat="44.7149" lon="6.92265">
        <ele>2237</ele>
        <time>2021-11-19T12:27:17Z</time>
      </trkpt>
      <trkpt lat="44.71483" lon="6.92267">
        <ele>2234</ele>
        <time>2021-11-19T12:27:24Z</time>
      </trkpt>
      <trkpt lat="44.71478" lon="6.92261">
        <ele>2232</ele>
        <time>2021-11-19T12:27:32Z</time>
      </trkpt>
      <trkpt lat="44.71476" lon="6.92258">
        <ele>2232</ele>
        <time>2021-11-19T12:27:33Z</time>
      </trkpt>
      <trkpt lat="44.71471" lon="6.92258">
        <ele>2230</ele>
        <time>2021-11-19T12:27:34Z</time>
      </trkpt>
      <trkpt lat="44.71465" lon="6.92264">
        <ele>2228</ele>
        <time>2021-11-19T12:27:36Z</time>
      </trkpt>
      <trkpt lat="44.71462" lon="6.92268">
        <ele>2227</ele>
        <time>2021-11-19T12:27:38Z</time>
      </trkpt>
      <trkpt lat="44.71456" lon="6.92274">
        <ele>2224</ele>
        <time>2021-11-19T12:27:42Z</time>
      </trkpt>
      <trkpt lat="44.71451" lon="6.92285">
        <ele>2216</ele>
        <time>2021-11-19T12:27:54Z</time>
      </trkpt>
      <trkpt lat="44.7145" lon="6.92287">
        <ele>2214</ele>
        <time>2021-11-19T12:27:55Z</time>
      </trkpt>
      <trkpt lat="44.71435" lon="6.923">
        <ele>2206</ele>
        <time>2021-11-19T12:28:09Z</time>
      </trkpt>
      <trkpt lat="44.71434" lon="6.92302">
        <ele>2205</ele>
        <time>2021-11-19T12:28:10Z</time>
      </trkpt>
      <trkpt lat="44.71432" lon="6.923">
        <ele>2203</ele>
        <time>2021-11-19T12:28:14Z</time>
      </trkpt>
      <trkpt lat="44.7143" lon="6.92299">
        <ele>2202</ele>
        <time>2021-11-19T12:28:18Z</time>
      </trkpt>
      <trkpt lat="44.71428" lon="6.92301">
        <ele>2202</ele>
        <time>2021-11-19T12:28:19Z</time>
      </trkpt>
      <trkpt lat="44.71426" lon="6.92301">
        <ele>2201</ele>
        <time>2021-11-19T12:28:21Z</time>
      </trkpt>
      <trkpt lat="44.71424" lon="6.92292">
        <ele>2199</ele>
        <time>2021-11-19T12:28:33Z</time>
      </trkpt>
      <trkpt lat="44.71426" lon="6.9229">
        <ele>2199</ele>
        <time>2021-11-19T12:28:34Z</time>
      </trkpt>
      <trkpt lat="44.71426" lon="6.92288">
        <ele>2198</ele>
        <time>2021-11-19T12:28:36Z</time>
      </trkpt>
      <trkpt lat="44.71426" lon="6.9228">
        <ele>2198</ele>
        <time>2021-11-19T12:28:40Z</time>
      </trkpt>
      <trkpt lat="44.71419" lon="6.92284">
        <ele>2198</ele>
        <time>2021-11-19T12:28:46Z</time>
      </trkpt>
      <trkpt lat="44.71416" lon="6.92288">
        <ele>2197</ele>
        <time>2021-11-19T12:28:48Z</time>
      </trkpt>
      <trkpt lat="44.71408" lon="6.92294">
        <ele>2196</ele>
        <time>2021-11-19T12:29:02Z</time>
      </trkpt>
      <trkpt lat="44.71408" lon="6.92293">
        <ele>2194</ele>
        <time>2021-11-19T12:29:33Z</time>
      </trkpt>
      <trkpt lat="44.71404" lon="6.92293">
        <ele>2191</ele>
        <time>2021-11-19T12:29:34Z</time>
      </trkpt>
      <trkpt lat="44.71399" lon="6.92293">
        <ele>2190</ele>
        <time>2021-11-19T12:29:35Z</time>
      </trkpt>
      <trkpt lat="44.71395" lon="6.92295">
        <ele>2189</ele>
        <time>2021-11-19T12:29:36Z</time>
      </trkpt>
      <trkpt lat="44.71392" lon="6.92297">
        <ele>2189</ele>
        <time>2021-11-19T12:29:37Z</time>
      </trkpt>
      <trkpt lat="44.71393" lon="6.92292">
        <ele>2189</ele>
        <time>2021-11-19T12:29:44Z</time>
      </trkpt>
      <trkpt lat="44.71392" lon="6.92288">
        <ele>2188</ele>
        <time>2021-11-19T12:29:45Z</time>
      </trkpt>
      <trkpt lat="44.71392" lon="6.92283">
        <ele>2187</ele>
        <time>2021-11-19T12:29:46Z</time>
      </trkpt>
      <trkpt lat="44.7139" lon="6.92279">
        <ele>2187</ele>
        <time>2021-11-19T12:29:47Z</time>
      </trkpt>
      <trkpt lat="44.71386" lon="6.92279">
        <ele>2186</ele>
        <time>2021-11-19T12:29:48Z</time>
      </trkpt>
      <trkpt lat="44.71382" lon="6.92281">
        <ele>2186</ele>
        <time>2021-11-19T12:29:49Z</time>
      </trkpt>
      <trkpt lat="44.7138" lon="6.92282">
        <ele>2186</ele>
        <time>2021-11-19T12:29:50Z</time>
      </trkpt>
      <trkpt lat="44.71382" lon="6.92275">
        <ele>2186</ele>
        <time>2021-11-19T12:29:57Z</time>
      </trkpt>
      <trkpt lat="44.71384" lon="6.92271">
        <ele>2185</ele>
        <time>2021-11-19T12:30:01Z</time>
      </trkpt>
      <trkpt lat="44.71386" lon="6.92262">
        <ele>2183</ele>
        <time>2021-11-19T12:30:08Z</time>
      </trkpt>
      <trkpt lat="44.71388" lon="6.9226">
        <ele>2183</ele>
        <time>2021-11-19T12:30:09Z</time>
      </trkpt>
      <trkpt lat="44.71382" lon="6.92258">
        <ele>2181</ele>
        <time>2021-11-19T12:30:14Z</time>
      </trkpt>
      <trkpt lat="44.7137" lon="6.92266">
        <ele>2178</ele>
        <time>2021-11-19T12:30:21Z</time>
      </trkpt>
      <trkpt lat="44.71367" lon="6.92262">
        <ele>2177</ele>
        <time>2021-11-19T12:30:27Z</time>
      </trkpt>
      <trkpt lat="44.71368" lon="6.92254">
        <ele>2175</ele>
        <time>2021-11-19T12:30:31Z</time>
      </trkpt>
      <trkpt lat="44.71366" lon="6.92253">
        <ele>2175</ele>
        <time>2021-11-19T12:30:32Z</time>
      </trkpt>
      <trkpt lat="44.71364" lon="6.92254">
        <ele>2174</ele>
        <time>2021-11-19T12:30:33Z</time>
      </trkpt>
      <trkpt lat="44.71363" lon="6.92255">
        <ele>2174</ele>
        <time>2021-11-19T12:30:34Z</time>
      </trkpt>
      <trkpt lat="44.71361" lon="6.92252">
        <ele>2172</ele>
        <time>2021-11-19T12:30:36Z</time>
      </trkpt>
      <trkpt lat="44.71359" lon="6.92251">
        <ele>2171</ele>
        <time>2021-11-19T12:30:38Z</time>
      </trkpt>
      <trkpt lat="44.71358" lon="6.92249">
        <ele>2170</ele>
        <time>2021-11-19T12:30:39Z</time>
      </trkpt>
      <trkpt lat="44.71354" lon="6.92237">
        <ele>2168</ele>
        <time>2021-11-19T12:30:41Z</time>
      </trkpt>
      <trkpt lat="44.71354" lon="6.92229">
        <ele>2167</ele>
        <time>2021-11-19T12:30:42Z</time>
      </trkpt>
      <trkpt lat="44.71355" lon="6.92222">
        <ele>2166</ele>
        <time>2021-11-19T12:30:43Z</time>
      </trkpt>
      <trkpt lat="44.71357" lon="6.92212">
        <ele>2162</ele>
        <time>2021-11-19T12:30:46Z</time>
      </trkpt>
      <trkpt lat="44.71362" lon="6.92195">
        <ele>2155</ele>
        <time>2021-11-19T12:30:51Z</time>
      </trkpt>
      <trkpt lat="44.71363" lon="6.92193">
        <ele>2153</ele>
        <time>2021-11-19T12:30:52Z</time>
      </trkpt>
      <trkpt lat="44.71363" lon="6.9219">
        <ele>2152</ele>
        <time>2021-11-19T12:30:55Z</time>
      </trkpt>
      <trkpt lat="44.7136" lon="6.92189">
        <ele>2151</ele>
        <time>2021-11-19T12:30:57Z</time>
      </trkpt>
      <trkpt lat="44.71358" lon="6.92186">
        <ele>2150</ele>
        <time>2021-11-19T12:30:58Z</time>
      </trkpt>
      <trkpt lat="44.71357" lon="6.92181">
        <ele>2149</ele>
        <time>2021-11-19T12:30:59Z</time>
      </trkpt>
      <trkpt lat="44.71351" lon="6.92164">
        <ele>2145</ele>
        <time>2021-11-19T12:31:02Z</time>
      </trkpt>
      <trkpt lat="44.71349" lon="6.92161">
        <ele>2144</ele>
        <time>2021-11-19T12:31:03Z</time>
      </trkpt>
      <trkpt lat="44.71346" lon="6.92162">
        <ele>2142</ele>
        <time>2021-11-19T12:31:04Z</time>
      </trkpt>
      <trkpt lat="44.71345" lon="6.92163">
        <ele>2140</ele>
        <time>2021-11-19T12:31:06Z</time>
      </trkpt>
      <trkpt lat="44.71345" lon="6.92154">
        <ele>2137</ele>
        <time>2021-11-19T12:31:11Z</time>
      </trkpt>
      <trkpt lat="44.71345" lon="6.92148">
        <ele>2135</ele>
        <time>2021-11-19T12:31:12Z</time>
      </trkpt>
      <trkpt lat="44.71349" lon="6.92139">
        <ele>2130</ele>
        <time>2021-11-19T12:31:15Z</time>
      </trkpt>
      <trkpt lat="44.71351" lon="6.9213">
        <ele>2126</ele>
        <time>2021-11-19T12:31:18Z</time>
      </trkpt>
      <trkpt lat="44.7135" lon="6.92126">
        <ele>2125</ele>
        <time>2021-11-19T12:31:19Z</time>
      </trkpt>
      <trkpt lat="44.71346" lon="6.92123">
        <ele>2124</ele>
        <time>2021-11-19T12:31:20Z</time>
      </trkpt>
      <trkpt lat="44.71333" lon="6.92123">
        <ele>2122</ele>
        <time>2021-11-19T12:31:22Z</time>
      </trkpt>
      <trkpt lat="44.71312" lon="6.92132">
        <ele>2118</ele>
        <time>2021-11-19T12:31:26Z</time>
      </trkpt>
      <trkpt lat="44.71309" lon="6.92128">
        <ele>2116</ele>
        <time>2021-11-19T12:31:27Z</time>
      </trkpt>
      <trkpt lat="44.71308" lon="6.92121">
        <ele>2114</ele>
        <time>2021-11-19T12:31:28Z</time>
      </trkpt>
      <trkpt lat="44.71306" lon="6.92114">
        <ele>2112</ele>
        <time>2021-11-19T12:31:29Z</time>
      </trkpt>
      <trkpt lat="44.71301" lon="6.92107">
        <ele>2110</ele>
        <time>2021-11-19T12:31:30Z</time>
      </trkpt>
      <trkpt lat="44.71295" lon="6.92104">
        <ele>2109</ele>
        <time>2021-11-19T12:31:31Z</time>
      </trkpt>
      <trkpt lat="44.71278" lon="6.92104">
        <ele>2103</ele>
        <time>2021-11-19T12:31:34Z</time>
      </trkpt>
      <trkpt lat="44.71272" lon="6.92093">
        <ele>2101</ele>
        <time>2021-11-19T12:31:36Z</time>
      </trkpt>
      <trkpt lat="44.71268" lon="6.92087">
        <ele>2099</ele>
        <time>2021-11-19T12:31:37Z</time>
      </trkpt>
      <trkpt lat="44.71263" lon="6.9207">
        <ele>2095</ele>
        <time>2021-11-19T12:31:40Z</time>
      </trkpt>
      <trkpt lat="44.71262" lon="6.92072">
        <ele>2091</ele>
        <time>2021-11-19T12:31:42Z</time>
      </trkpt>
      <trkpt lat="44.71261" lon="6.92068">
        <ele>2089</ele>
        <time>2021-11-19T12:31:53Z</time>
      </trkpt>
      <trkpt lat="44.71261" lon="6.92065">
        <ele>2088</ele>
        <time>2021-11-19T12:31:54Z</time>
      </trkpt>
      <trkpt lat="44.7126" lon="6.92063">
        <ele>2087</ele>
        <time>2021-11-19T12:31:56Z</time>
      </trkpt>
      <trkpt lat="44.71253" lon="6.92069">
        <ele>2085</ele>
        <time>2021-11-19T12:31:59Z</time>
      </trkpt>
      <trkpt lat="44.71247" lon="6.92083">
        <ele>2081</ele>
        <time>2021-11-19T12:32:07Z</time>
      </trkpt>
      <trkpt lat="44.71245" lon="6.92085">
        <ele>2079</ele>
        <time>2021-11-19T12:32:08Z</time>
      </trkpt>
      <trkpt lat="44.71243" lon="6.92087">
        <ele>2079</ele>
        <time>2021-11-19T12:32:09Z</time>
      </trkpt>
      <trkpt lat="44.71241" lon="6.92088">
        <ele>2077</ele>
        <time>2021-11-19T12:32:11Z</time>
      </trkpt>
      <trkpt lat="44.7124" lon="6.92077">
        <ele>2073</ele>
        <time>2021-11-19T12:32:17Z</time>
      </trkpt>
      <trkpt lat="44.71242" lon="6.92049">
        <ele>2068</ele>
        <time>2021-11-19T12:32:25Z</time>
      </trkpt>
      <trkpt lat="44.71241" lon="6.92049">
        <ele>2066</ele>
        <time>2021-11-19T12:32:35Z</time>
      </trkpt>
      <trkpt lat="44.7123" lon="6.92062">
        <ele>2063</ele>
        <time>2021-11-19T12:32:39Z</time>
      </trkpt>
      <trkpt lat="44.71224" lon="6.92062">
        <ele>2059</ele>
        <time>2021-11-19T12:32:51Z</time>
      </trkpt>
      <trkpt lat="44.71203" lon="6.92058">
        <ele>2056</ele>
        <time>2021-11-19T12:33:06Z</time>
      </trkpt>
      <trkpt lat="44.71199" lon="6.92059">
        <ele>2056</ele>
        <time>2021-11-19T12:33:07Z</time>
      </trkpt>
      <trkpt lat="44.71197" lon="6.92061">
        <ele>2056</ele>
        <time>2021-11-19T12:33:08Z</time>
      </trkpt>
      <trkpt lat="44.71205" lon="6.92042">
        <ele>2054</ele>
        <time>2021-11-19T12:33:21Z</time>
      </trkpt>
      <trkpt lat="44.71208" lon="6.92032">
        <ele>2053</ele>
        <time>2021-11-19T12:33:23Z</time>
      </trkpt>
      <trkpt lat="44.71211" lon="6.92023">
        <ele>2052</ele>
        <time>2021-11-19T12:33:25Z</time>
      </trkpt>
      <trkpt lat="44.71219" lon="6.92011">
        <ele>2051</ele>
        <time>2021-11-19T12:33:28Z</time>
      </trkpt>
      <trkpt lat="44.71229" lon="6.91984">
        <ele>2051</ele>
        <time>2021-11-19T12:33:34Z</time>
      </trkpt>
      <trkpt lat="44.7124" lon="6.91944">
        <ele>2048</ele>
        <time>2021-11-19T12:33:43Z</time>
      </trkpt>
      <trkpt lat="44.71264" lon="6.91897">
        <ele>2045</ele>
        <time>2021-11-19T12:33:53Z</time>
      </trkpt>
      <trkpt lat="44.71295" lon="6.91862">
        <ele>2042</ele>
        <time>2021-11-19T12:34:01Z</time>
      </trkpt>
      <trkpt lat="44.71342" lon="6.91816">
        <ele>2038</ele>
        <time>2021-11-19T12:34:13Z</time>
      </trkpt>
      <trkpt lat="44.71413" lon="6.9172">
        <ele>2035</ele>
        <time>2021-11-19T12:34:43Z</time>
      </trkpt>
      <trkpt lat="44.7142" lon="6.91711">
        <ele>2035</ele>
        <time>2021-11-19T12:34:46Z</time>
      </trkpt>
      <trkpt lat="44.71423" lon="6.91709">
        <ele>2035</ele>
        <time>2021-11-19T12:34:47Z</time>
      </trkpt>
      <trkpt lat="44.71443" lon="6.91686">
        <ele>2035</ele>
        <time>2021-11-19T12:34:56Z</time>
      </trkpt>
      <trkpt lat="44.71453" lon="6.91677">
        <ele>2035</ele>
        <time>2021-11-19T12:35:00Z</time>
      </trkpt>
      <trkpt lat="44.71459" lon="6.9167">
        <ele>2036</ele>
        <time>2021-11-19T12:35:03Z</time>
      </trkpt>
      <trkpt lat="44.71464" lon="6.91666">
        <ele>2036</ele>
        <time>2021-11-19T12:35:05Z</time>
      </trkpt>
      <trkpt lat="44.71486" lon="6.91633">
        <ele>2034</ele>
        <time>2021-11-19T12:35:17Z</time>
      </trkpt>
      <trkpt lat="44.71491" lon="6.91616">
        <ele>2035</ele>
        <time>2021-11-19T12:35:23Z</time>
      </trkpt>
      <trkpt lat="44.71493" lon="6.91614">
        <ele>2035</ele>
        <time>2021-11-19T12:35:24Z</time>
      </trkpt>
      <trkpt lat="44.71503" lon="6.91581">
        <ele>2034</ele>
        <time>2021-11-19T12:35:36Z</time>
      </trkpt>
      <trkpt lat="44.71507" lon="6.91545">
        <ele>2031</ele>
        <time>2021-11-19T12:35:57Z</time>
      </trkpt>
      <trkpt lat="44.7154" lon="6.91464">
        <ele>2033</ele>
        <time>2021-11-19T12:36:20Z</time>
      </trkpt>
      <trkpt lat="44.71556" lon="6.91438">
        <ele>2031</ele>
        <time>2021-11-19T12:36:26Z</time>
      </trkpt>
      <trkpt lat="44.71562" lon="6.9143">
        <ele>2030</ele>
        <time>2021-11-19T12:36:28Z</time>
      </trkpt>
      <trkpt lat="44.71563" lon="6.91436">
        <ele>2028</ele>
        <time>2021-11-19T12:37:28Z</time>
      </trkpt>
      <trkpt lat="44.71602" lon="6.91388">
        <ele>2023</ele>
        <time>2021-11-19T12:37:40Z</time>
      </trkpt>
      <trkpt lat="44.71609" lon="6.91375">
        <ele>2022</ele>
        <time>2021-11-19T12:37:42Z</time>
      </trkpt>
      <trkpt lat="44.71638" lon="6.91277">
        <ele>2018</ele>
        <time>2021-11-19T12:37:54Z</time>
      </trkpt>
      <trkpt lat="44.71637" lon="6.91267">
        <ele>2017</ele>
        <time>2021-11-19T12:37:55Z</time>
      </trkpt>
      <trkpt lat="44.71659" lon="6.91192">
        <ele>2013</ele>
        <time>2021-11-19T12:38:06Z</time>
      </trkpt>
      <trkpt lat="44.71667" lon="6.91183">
        <ele>2014</ele>
        <time>2021-11-19T12:38:08Z</time>
      </trkpt>
      <trkpt lat="44.71683" lon="6.91144">
        <ele>2013</ele>
        <time>2021-11-19T12:38:17Z</time>
      </trkpt>
      <trkpt lat="44.71695" lon="6.91123">
        <ele>2010</ele>
        <time>2021-11-19T12:38:24Z</time>
      </trkpt>
      <trkpt lat="44.71696" lon="6.9112">
        <ele>2010</ele>
        <time>2021-11-19T12:38:25Z</time>
      </trkpt>
      <trkpt lat="44.71697" lon="6.91118">
        <ele>2009</ele>
        <time>2021-11-19T12:38:26Z</time>
      </trkpt>
      <trkpt lat="44.71698" lon="6.91116">
        <ele>2009</ele>
        <time>2021-11-19T12:38:27Z</time>
      </trkpt>
      <trkpt lat="44.71707" lon="6.9111">
        <ele>2008</ele>
        <time>2021-11-19T12:38:30Z</time>
      </trkpt>
      <trkpt lat="44.71755" lon="6.9103">
        <ele>2007</ele>
        <time>2021-11-19T12:38:48Z</time>
      </trkpt>
      <trkpt lat="44.7176" lon="6.91018">
        <ele>2007</ele>
        <time>2021-11-19T12:38:50Z</time>
      </trkpt>
      <trkpt lat="44.71784" lon="6.90901">
        <ele>1999</ele>
        <time>2021-11-19T12:39:10Z</time>
      </trkpt>
      <trkpt lat="44.71785" lon="6.90896">
        <ele>1998</ele>
        <time>2021-11-19T12:39:11Z</time>
      </trkpt>
      <trkpt lat="44.71802" lon="6.90776">
        <ele>1997</ele>
        <time>2021-11-19T12:39:32Z</time>
      </trkpt>
      <trkpt lat="44.71818" lon="6.90672">
        <ele>1992</ele>
        <time>2021-11-19T12:39:47Z</time>
      </trkpt>
      <trkpt lat="44.71831" lon="6.90619">
        <ele>1991</ele>
        <time>2021-11-19T12:39:55Z</time>
      </trkpt>
      <trkpt lat="44.71886" lon="6.90487">
        <ele>1985</ele>
        <time>2021-11-19T12:40:23Z</time>
      </trkpt>
      <trkpt lat="44.71889" lon="6.90483">
        <ele>1985</ele>
        <time>2021-11-19T12:40:25Z</time>
      </trkpt>
      <trkpt lat="44.7189" lon="6.90482">
        <ele>1985</ele>
        <time>2021-11-19T12:40:26Z</time>
      </trkpt>
      <trkpt lat="44.71891" lon="6.9048">
        <ele>1985</ele>
        <time>2021-11-19T12:40:27Z</time>
      </trkpt>
      <trkpt lat="44.7189" lon="6.90477">
        <ele>1985</ele>
        <time>2021-11-19T12:40:29Z</time>
      </trkpt>
      <trkpt lat="44.71894" lon="6.90463">
        <ele>1984</ele>
        <time>2021-11-19T12:40:46Z</time>
      </trkpt>
      <trkpt lat="44.71892" lon="6.90458">
        <ele>1984</ele>
        <time>2021-11-19T12:41:16Z</time>
      </trkpt>
    </trkseg>
  </trk>
</gpx>